<?xml version="1.0" encoding="UTF-8" standalone="no" ?>
<gpx xmlns="http://www.topografix.com/GPX/1/1" xmlns:xsi="http://www.w3.org/2001/XMLSchema-instance" xsi:schemaLocation="http://www.topografix.com/GPX/1/1 http://www.topografix.com/GPX/1/1/gpx.xsd" version="1.1" creator="VisuGPX - https://www.visugpx.com">
  <metadata>
    <name>Au fil de l'eau et Buala</name>
    <desc><![CDATA[Boucle autour du Gave avec un passage au Buala]]></desc>
  </metadata>
  <wpt lat="43.07616" lon="-0.07062">
    <ele>501.52</ele>
    <name><![CDATA[0000119]]></name>
    <type><![CDATA[Point de départ]]></type>
  </wpt>
  <wpt lat="43.07616" lon="-0.07056">
    <ele>520.56</ele>
    <name><![CDATA[0000120]]></name>
    <desc><![CDATA[<p><br /><h3>Nom: Segment: 1</h3><br />Heure de départ: 08/25/2018 09:18<br/>Heure d'arrivée: 08/25/2018 12:07<br/>Distance: 44,9km (02:49)<br/>Temps déplacement: 02:39<br/>Vitesse moyenne: 15,92 km/h<br/>Vitesse moyenne mouv.: 16,85 km/h<br/>Vitesse Max.: 43,52 km/h<br/>Altitude minimale: 388 m<br/>Altitude maximale: 615 m<br/>Vitesse de montée: 588,2 m/h<br/>Vitesse de descente: -691,7 m/h<br/>Gain d'altitude: 837 m<br/>Perte d'altitude: -817 m<br/>Temps de montée: 01:25<br/>Temps de descente: 01:10<br/></p>]]></desc>
    <type><![CDATA[Point d'arrivée]]></type>
  </wpt>
  <trk>
    <name><![CDATA[2018-08-25 09:18]]></name>
    <desc><![CDATA[<p>Heure de départ: 08/25/2018 09:18<br/>Heure d'arrivée: 08/25/2018 12:07<br/>Distance: 44,9 km (02:49)<br/>Temps déplacement: 02:39<br/>Vitesse moyenne: 15,92 km/h<br/>Vitesse moyenne mouv.: 16,93 km/h<br/>Vitesse Max.: 43,52 km/h<br/>Altitude minimale: 388 m<br/>Altitude maximale: 615 m<br/>Vitesse de montée: 588,2 m/h<br/>Vitesse de descente: -691,7 m/h<br/>Gain d'altitude: 837 m<br/>Perte d'altitude: -817 m<br/>Temps de montée: 01:25<br/>Temps de descente: 01:10<br/></p><hr align="center" width="480" style="height: 2px; width: 517px"/>]]></desc>
    <trkseg>
      <trkpt lat="43.07616" lon="-0.07062">
        <ele>501.52</ele>
        <time>2018-08-25T07:18:35Z</time>
      </trkpt>
      <trkpt lat="43.07604" lon="-0.07085">
        <ele>506.43</ele>
        <time>2018-08-25T07:20:10Z</time>
      </trkpt>
      <trkpt lat="43.07585" lon="-0.07089">
        <ele>509.51</ele>
        <time>2018-08-25T07:20:17Z</time>
      </trkpt>
      <trkpt lat="43.07564" lon="-0.07077">
        <ele>510.49</ele>
        <time>2018-08-25T07:20:22Z</time>
      </trkpt>
      <trkpt lat="43.07545" lon="-0.07071">
        <ele>511.43</ele>
        <time>2018-08-25T07:20:26Z</time>
      </trkpt>
      <trkpt lat="43.07526" lon="-0.07058">
        <ele>511.52</ele>
        <time>2018-08-25T07:20:30Z</time>
      </trkpt>
      <trkpt lat="43.07507" lon="-0.07046">
        <ele>511.54</ele>
        <time>2018-08-25T07:20:34Z</time>
      </trkpt>
      <trkpt lat="43.07488" lon="-0.07039">
        <ele>509.91</ele>
        <time>2018-08-25T07:20:38Z</time>
      </trkpt>
      <trkpt lat="43.07468" lon="-0.07032">
        <ele>506.62</ele>
        <time>2018-08-25T07:20:43Z</time>
      </trkpt>
      <trkpt lat="43.07474" lon="-0.07007">
        <ele>500.85</ele>
        <time>2018-08-25T07:21:12Z</time>
      </trkpt>
      <trkpt lat="43.07488" lon="-0.06984">
        <ele>500.44</ele>
        <time>2018-08-25T07:21:17Z</time>
      </trkpt>
      <trkpt lat="43.07495" lon="-0.06961">
        <ele>499.53</ele>
        <time>2018-08-25T07:21:21Z</time>
      </trkpt>
      <trkpt lat="43.07498" lon="-0.06933">
        <ele>499.52</ele>
        <time>2018-08-25T07:21:25Z</time>
      </trkpt>
      <trkpt lat="43.07494" lon="-0.06903">
        <ele>498.53</ele>
        <time>2018-08-25T07:21:29Z</time>
      </trkpt>
      <trkpt lat="43.07483" lon="-0.06878">
        <ele>496.83</ele>
        <time>2018-08-25T07:21:33Z</time>
      </trkpt>
      <trkpt lat="43.07473" lon="-0.06857">
        <ele>495.82</ele>
        <time>2018-08-25T07:21:37Z</time>
      </trkpt>
      <trkpt lat="43.07464" lon="-0.06834">
        <ele>494.61</ele>
        <time>2018-08-25T07:21:42Z</time>
      </trkpt>
      <trkpt lat="43.07467" lon="-0.06809">
        <ele>494.52</ele>
        <time>2018-08-25T07:22:06Z</time>
      </trkpt>
      <trkpt lat="43.0747" lon="-0.06781">
        <ele>492.85</ele>
        <time>2018-08-25T07:22:11Z</time>
      </trkpt>
      <trkpt lat="43.07475" lon="-0.06753">
        <ele>491.61</ele>
        <time>2018-08-25T07:22:16Z</time>
      </trkpt>
      <trkpt lat="43.07482" lon="-0.06725">
        <ele>491.53</ele>
        <time>2018-08-25T07:22:21Z</time>
      </trkpt>
      <trkpt lat="43.07472" lon="-0.06703">
        <ele>491.52</ele>
        <time>2018-08-25T07:22:50Z</time>
      </trkpt>
      <trkpt lat="43.07454" lon="-0.06699">
        <ele>491.43</ele>
        <time>2018-08-25T07:23:02Z</time>
      </trkpt>
      <trkpt lat="43.07438" lon="-0.06685">
        <ele>490.55</ele>
        <time>2018-08-25T07:23:06Z</time>
      </trkpt>
      <trkpt lat="43.07423" lon="-0.06668">
        <ele>489.82</ele>
        <time>2018-08-25T07:23:10Z</time>
      </trkpt>
      <trkpt lat="43.0741" lon="-0.06648">
        <ele>489.52</ele>
        <time>2018-08-25T07:23:14Z</time>
      </trkpt>
      <trkpt lat="43.07399" lon="-0.06628">
        <ele>488.82</ele>
        <time>2018-08-25T07:23:18Z</time>
      </trkpt>
      <trkpt lat="43.07391" lon="-0.06605">
        <ele>487.55</ele>
        <time>2018-08-25T07:23:22Z</time>
      </trkpt>
      <trkpt lat="43.07385" lon="-0.06581">
        <ele>486.61</ele>
        <time>2018-08-25T07:23:26Z</time>
      </trkpt>
      <trkpt lat="43.07378" lon="-0.06554">
        <ele>486.54</ele>
        <time>2018-08-25T07:23:31Z</time>
      </trkpt>
      <trkpt lat="43.07367" lon="-0.06534">
        <ele>485.61</ele>
        <time>2018-08-25T07:23:35Z</time>
      </trkpt>
      <trkpt lat="43.07347" lon="-0.06528">
        <ele>485.82</ele>
        <time>2018-08-25T07:23:40Z</time>
      </trkpt>
      <trkpt lat="43.07329" lon="-0.06517">
        <ele>486.22</ele>
        <time>2018-08-25T07:23:44Z</time>
      </trkpt>
      <trkpt lat="43.07312" lon="-0.06505">
        <ele>485.82</ele>
        <time>2018-08-25T07:23:48Z</time>
      </trkpt>
      <trkpt lat="43.07294" lon="-0.06493">
        <ele>486.51</ele>
        <time>2018-08-25T07:23:53Z</time>
      </trkpt>
      <trkpt lat="43.07289" lon="-0.06464">
        <ele>484.61</ele>
        <time>2018-08-25T07:23:58Z</time>
      </trkpt>
      <trkpt lat="43.07291" lon="-0.06438">
        <ele>482.83</ele>
        <time>2018-08-25T07:24:02Z</time>
      </trkpt>
      <trkpt lat="43.07295" lon="-0.06409">
        <ele>481.53</ele>
        <time>2018-08-25T07:24:07Z</time>
      </trkpt>
      <trkpt lat="43.07298" lon="-0.06382">
        <ele>481.81</ele>
        <time>2018-08-25T07:24:11Z</time>
      </trkpt>
      <trkpt lat="43.073" lon="-0.06357">
        <ele>482.43</ele>
        <time>2018-08-25T07:24:15Z</time>
      </trkpt>
      <trkpt lat="43.07298" lon="-0.06327">
        <ele>481.61</ele>
        <time>2018-08-25T07:24:20Z</time>
      </trkpt>
      <trkpt lat="43.07296" lon="-0.06297">
        <ele>480.61</ele>
        <time>2018-08-25T07:24:25Z</time>
      </trkpt>
      <trkpt lat="43.07299" lon="-0.06272">
        <ele>479.82</ele>
        <time>2018-08-25T07:24:29Z</time>
      </trkpt>
      <trkpt lat="43.07304" lon="-0.06247">
        <ele>479.52</ele>
        <time>2018-08-25T07:24:33Z</time>
      </trkpt>
      <trkpt lat="43.07308" lon="-0.06216">
        <ele>480.22</ele>
        <time>2018-08-25T07:24:38Z</time>
      </trkpt>
      <trkpt lat="43.07311" lon="-0.06187">
        <ele>480.52</ele>
        <time>2018-08-25T07:24:43Z</time>
      </trkpt>
      <trkpt lat="43.07315" lon="-0.06162">
        <ele>480.52</ele>
        <time>2018-08-25T07:24:47Z</time>
      </trkpt>
      <trkpt lat="43.07322" lon="-0.06136">
        <ele>479.55</ele>
        <time>2018-08-25T07:24:51Z</time>
      </trkpt>
      <trkpt lat="43.07329" lon="-0.06113">
        <ele>479.52</ele>
        <time>2018-08-25T07:24:55Z</time>
      </trkpt>
      <trkpt lat="43.07337" lon="-0.06086">
        <ele>478.53</ele>
        <time>2018-08-25T07:24:59Z</time>
      </trkpt>
      <trkpt lat="43.07349" lon="-0.06063">
        <ele>478.6</ele>
        <time>2018-08-25T07:25:03Z</time>
      </trkpt>
      <trkpt lat="43.07362" lon="-0.06041">
        <ele>477.76</ele>
        <time>2018-08-25T07:25:08Z</time>
      </trkpt>
      <trkpt lat="43.07375" lon="-0.06017">
        <ele>478.52</ele>
        <time>2018-08-25T07:25:13Z</time>
      </trkpt>
      <trkpt lat="43.07385" lon="-0.05991">
        <ele>478.54</ele>
        <time>2018-08-25T07:25:18Z</time>
      </trkpt>
      <trkpt lat="43.07399" lon="-0.05975">
        <ele>478.52</ele>
        <time>2018-08-25T07:25:23Z</time>
      </trkpt>
      <trkpt lat="43.07413" lon="-0.05958">
        <ele>478.52</ele>
        <time>2018-08-25T07:25:30Z</time>
      </trkpt>
      <trkpt lat="43.07428" lon="-0.05939">
        <ele>477.61</ele>
        <time>2018-08-25T07:25:36Z</time>
      </trkpt>
      <trkpt lat="43.07445" lon="-0.05924">
        <ele>477.52</ele>
        <time>2018-08-25T07:25:43Z</time>
      </trkpt>
      <trkpt lat="43.07464" lon="-0.05915">
        <ele>476.82</ele>
        <time>2018-08-25T07:25:48Z</time>
      </trkpt>
      <trkpt lat="43.07483" lon="-0.05901">
        <ele>475.61</ele>
        <time>2018-08-25T07:25:54Z</time>
      </trkpt>
      <trkpt lat="43.075" lon="-0.05887">
        <ele>476.22</ele>
        <time>2018-08-25T07:26:00Z</time>
      </trkpt>
      <trkpt lat="43.07518" lon="-0.05873">
        <ele>474.85</ele>
        <time>2018-08-25T07:26:05Z</time>
      </trkpt>
      <trkpt lat="43.0753" lon="-0.05853">
        <ele>470.31</ele>
        <time>2018-08-25T07:26:10Z</time>
      </trkpt>
      <trkpt lat="43.07536" lon="-0.05829">
        <ele>466.64</ele>
        <time>2018-08-25T07:26:16Z</time>
      </trkpt>
      <trkpt lat="43.07548" lon="-0.05807">
        <ele>464.62</ele>
        <time>2018-08-25T07:26:24Z</time>
      </trkpt>
      <trkpt lat="43.07557" lon="-0.05782">
        <ele>457.15</ele>
        <time>2018-08-25T07:26:36Z</time>
      </trkpt>
      <trkpt lat="43.0758" lon="-0.05776">
        <ele>454.63</ele>
        <time>2018-08-25T07:26:40Z</time>
      </trkpt>
      <trkpt lat="43.076" lon="-0.05763">
        <ele>452.62</ele>
        <time>2018-08-25T07:26:44Z</time>
      </trkpt>
      <trkpt lat="43.07619" lon="-0.05749">
        <ele>450.83</ele>
        <time>2018-08-25T07:26:48Z</time>
      </trkpt>
      <trkpt lat="43.07637" lon="-0.05736">
        <ele>450.52</ele>
        <time>2018-08-25T07:26:52Z</time>
      </trkpt>
      <trkpt lat="43.07651" lon="-0.05718">
        <ele>449.61</ele>
        <time>2018-08-25T07:26:57Z</time>
      </trkpt>
      <trkpt lat="43.07665" lon="-0.05695">
        <ele>448.55</ele>
        <time>2018-08-25T07:27:02Z</time>
      </trkpt>
      <trkpt lat="43.07678" lon="-0.0567">
        <ele>448.82</ele>
        <time>2018-08-25T07:27:07Z</time>
      </trkpt>
      <trkpt lat="43.07688" lon="-0.05648">
        <ele>448.52</ele>
        <time>2018-08-25T07:27:11Z</time>
      </trkpt>
      <trkpt lat="43.077" lon="-0.05623">
        <ele>447.55</ele>
        <time>2018-08-25T07:27:15Z</time>
      </trkpt>
      <trkpt lat="43.07711" lon="-0.05595">
        <ele>446.55</ele>
        <time>2018-08-25T07:27:19Z</time>
      </trkpt>
      <trkpt lat="43.07707" lon="-0.0557">
        <ele>447.51</ele>
        <time>2018-08-25T07:27:23Z</time>
      </trkpt>
      <trkpt lat="43.07696" lon="-0.05548">
        <ele>445.85</ele>
        <time>2018-08-25T07:27:26Z</time>
      </trkpt>
      <trkpt lat="43.07685" lon="-0.05528">
        <ele>442.25</ele>
        <time>2018-08-25T07:27:29Z</time>
      </trkpt>
      <trkpt lat="43.07669" lon="-0.05503">
        <ele>439.64</ele>
        <time>2018-08-25T07:27:33Z</time>
      </trkpt>
      <trkpt lat="43.07659" lon="-0.05481">
        <ele>437.85</ele>
        <time>2018-08-25T07:27:36Z</time>
      </trkpt>
      <trkpt lat="43.07648" lon="-0.05457">
        <ele>435.86</ele>
        <time>2018-08-25T07:27:39Z</time>
      </trkpt>
      <trkpt lat="43.07637" lon="-0.05429">
        <ele>433.62</ele>
        <time>2018-08-25T07:27:43Z</time>
      </trkpt>
      <trkpt lat="43.07629" lon="-0.05403">
        <ele>431.64</ele>
        <time>2018-08-25T07:27:47Z</time>
      </trkpt>
      <trkpt lat="43.07616" lon="-0.05384">
        <ele>430.31</ele>
        <time>2018-08-25T07:27:53Z</time>
      </trkpt>
      <trkpt lat="43.076" lon="-0.05367">
        <ele>430.52</ele>
        <time>2018-08-25T07:28:02Z</time>
      </trkpt>
      <trkpt lat="43.07591" lon="-0.05339">
        <ele>428.62</ele>
        <time>2018-08-25T07:28:07Z</time>
      </trkpt>
      <trkpt lat="43.07581" lon="-0.05307">
        <ele>427.61</ele>
        <time>2018-08-25T07:28:11Z</time>
      </trkpt>
      <trkpt lat="43.07571" lon="-0.05283">
        <ele>425.91</ele>
        <time>2018-08-25T07:28:14Z</time>
      </trkpt>
      <trkpt lat="43.07556" lon="-0.05261">
        <ele>423.83</ele>
        <time>2018-08-25T07:28:18Z</time>
      </trkpt>
      <trkpt lat="43.07552" lon="-0.05236">
        <ele>422.55</ele>
        <time>2018-08-25T07:28:22Z</time>
      </trkpt>
      <trkpt lat="43.07551" lon="-0.05208">
        <ele>420.62</ele>
        <time>2018-08-25T07:28:26Z</time>
      </trkpt>
      <trkpt lat="43.0755" lon="-0.05179">
        <ele>418.56</ele>
        <time>2018-08-25T07:28:30Z</time>
      </trkpt>
      <trkpt lat="43.07552" lon="-0.05153">
        <ele>417.61</ele>
        <time>2018-08-25T07:28:34Z</time>
      </trkpt>
      <trkpt lat="43.07556" lon="-0.05127">
        <ele>418.51</ele>
        <time>2018-08-25T07:28:38Z</time>
      </trkpt>
      <trkpt lat="43.07564" lon="-0.05104">
        <ele>418.52</ele>
        <time>2018-08-25T07:28:43Z</time>
      </trkpt>
      <trkpt lat="43.07578" lon="-0.05087">
        <ele>419.52</ele>
        <time>2018-08-25T07:28:48Z</time>
      </trkpt>
      <trkpt lat="43.07587" lon="-0.05063">
        <ele>420.51</ele>
        <time>2018-08-25T07:28:53Z</time>
      </trkpt>
      <trkpt lat="43.0759" lon="-0.05037">
        <ele>420.52</ele>
        <time>2018-08-25T07:28:57Z</time>
      </trkpt>
      <trkpt lat="43.07593" lon="-0.05012">
        <ele>419.8</ele>
        <time>2018-08-25T07:29:01Z</time>
      </trkpt>
      <trkpt lat="43.07601" lon="-0.04985">
        <ele>420.43</ele>
        <time>2018-08-25T07:29:06Z</time>
      </trkpt>
      <trkpt lat="43.07612" lon="-0.04964">
        <ele>420.81</ele>
        <time>2018-08-25T07:29:10Z</time>
      </trkpt>
      <trkpt lat="43.07625" lon="-0.04939">
        <ele>421.51</ele>
        <time>2018-08-25T07:29:15Z</time>
      </trkpt>
      <trkpt lat="43.07642" lon="-0.04921">
        <ele>421.52</ele>
        <time>2018-08-25T07:29:21Z</time>
      </trkpt>
      <trkpt lat="43.07662" lon="-0.04906">
        <ele>421.52</ele>
        <time>2018-08-25T07:29:25Z</time>
      </trkpt>
      <trkpt lat="43.0768" lon="-0.04889">
        <ele>421.52</ele>
        <time>2018-08-25T07:29:28Z</time>
      </trkpt>
      <trkpt lat="43.07691" lon="-0.04869">
        <ele>420.82</ele>
        <time>2018-08-25T07:29:31Z</time>
      </trkpt>
      <trkpt lat="43.07699" lon="-0.04847">
        <ele>420.52</ele>
        <time>2018-08-25T07:29:35Z</time>
      </trkpt>
      <trkpt lat="43.0771" lon="-0.04825">
        <ele>420.52</ele>
        <time>2018-08-25T07:29:42Z</time>
      </trkpt>
      <trkpt lat="43.07715" lon="-0.04801">
        <ele>423.52</ele>
        <time>2018-08-25T07:29:53Z</time>
      </trkpt>
      <trkpt lat="43.07711" lon="-0.04777">
        <ele>423.52</ele>
        <time>2018-08-25T07:30:24Z</time>
      </trkpt>
      <trkpt lat="43.07708" lon="-0.0475">
        <ele>425.43</ele>
        <time>2018-08-25T07:30:31Z</time>
      </trkpt>
      <trkpt lat="43.07701" lon="-0.04722">
        <ele>427.51</ele>
        <time>2018-08-25T07:30:39Z</time>
      </trkpt>
      <trkpt lat="43.07697" lon="-0.04689">
        <ele>428.92</ele>
        <time>2018-08-25T07:30:43Z</time>
      </trkpt>
      <trkpt lat="43.07689" lon="-0.04661">
        <ele>429.52</ele>
        <time>2018-08-25T07:30:47Z</time>
      </trkpt>
      <trkpt lat="43.07675" lon="-0.04643">
        <ele>428.52</ele>
        <time>2018-08-25T07:30:52Z</time>
      </trkpt>
      <trkpt lat="43.07655" lon="-0.0465">
        <ele>430.49</ele>
        <time>2018-08-25T07:30:57Z</time>
      </trkpt>
      <trkpt lat="43.07637" lon="-0.04664">
        <ele>431.51</ele>
        <time>2018-08-25T07:31:02Z</time>
      </trkpt>
      <trkpt lat="43.07617" lon="-0.04675">
        <ele>432.52</ele>
        <time>2018-08-25T07:31:07Z</time>
      </trkpt>
      <trkpt lat="43.07599" lon="-0.04686">
        <ele>434.42</ele>
        <time>2018-08-25T07:31:12Z</time>
      </trkpt>
      <trkpt lat="43.07579" lon="-0.04697">
        <ele>436.49</ele>
        <time>2018-08-25T07:31:17Z</time>
      </trkpt>
      <trkpt lat="43.07562" lon="-0.04708">
        <ele>437.49</ele>
        <time>2018-08-25T07:31:21Z</time>
      </trkpt>
      <trkpt lat="43.07543" lon="-0.04721">
        <ele>437.6</ele>
        <time>2018-08-25T07:31:25Z</time>
      </trkpt>
      <trkpt lat="43.07526" lon="-0.04729">
        <ele>437.52</ele>
        <time>2018-08-25T07:31:29Z</time>
      </trkpt>
      <trkpt lat="43.07506" lon="-0.04735">
        <ele>438.49</ele>
        <time>2018-08-25T07:31:34Z</time>
      </trkpt>
      <trkpt lat="43.07485" lon="-0.04731">
        <ele>439.52</ele>
        <time>2018-08-25T07:31:39Z</time>
      </trkpt>
      <trkpt lat="43.07466" lon="-0.0472">
        <ele>439.52</ele>
        <time>2018-08-25T07:31:43Z</time>
      </trkpt>
      <trkpt lat="43.07446" lon="-0.04707">
        <ele>439.52</ele>
        <time>2018-08-25T07:31:47Z</time>
      </trkpt>
      <trkpt lat="43.07426" lon="-0.04693">
        <ele>438.82</ele>
        <time>2018-08-25T07:31:51Z</time>
      </trkpt>
      <trkpt lat="43.07407" lon="-0.04678">
        <ele>438.52</ele>
        <time>2018-08-25T07:31:55Z</time>
      </trkpt>
      <trkpt lat="43.07387" lon="-0.04663">
        <ele>438.52</ele>
        <time>2018-08-25T07:31:59Z</time>
      </trkpt>
      <trkpt lat="43.07368" lon="-0.04649">
        <ele>439.43</ele>
        <time>2018-08-25T07:32:03Z</time>
      </trkpt>
      <trkpt lat="43.07349" lon="-0.04635">
        <ele>439.52</ele>
        <time>2018-08-25T07:32:07Z</time>
      </trkpt>
      <trkpt lat="43.07332" lon="-0.04616">
        <ele>440.43</ele>
        <time>2018-08-25T07:32:11Z</time>
      </trkpt>
      <trkpt lat="43.07317" lon="-0.04601">
        <ele>439.82</ele>
        <time>2018-08-25T07:32:14Z</time>
      </trkpt>
      <trkpt lat="43.07302" lon="-0.04582">
        <ele>439.53</ele>
        <time>2018-08-25T07:32:17Z</time>
      </trkpt>
      <trkpt lat="43.07287" lon="-0.04561">
        <ele>440.5</ele>
        <time>2018-08-25T07:32:20Z</time>
      </trkpt>
      <trkpt lat="43.07272" lon="-0.04538">
        <ele>440.52</ele>
        <time>2018-08-25T07:32:23Z</time>
      </trkpt>
      <trkpt lat="43.07251" lon="-0.04515">
        <ele>439.61</ele>
        <time>2018-08-25T07:32:26Z</time>
      </trkpt>
      <trkpt lat="43.07233" lon="-0.04508">
        <ele>439.53</ele>
        <time>2018-08-25T07:32:28Z</time>
      </trkpt>
      <trkpt lat="43.07209" lon="-0.04494">
        <ele>440.22</ele>
        <time>2018-08-25T07:32:31Z</time>
      </trkpt>
      <trkpt lat="43.07191" lon="-0.0448">
        <ele>440.5</ele>
        <time>2018-08-25T07:32:33Z</time>
      </trkpt>
      <trkpt lat="43.07172" lon="-0.04467">
        <ele>439.61</ele>
        <time>2018-08-25T07:32:35Z</time>
      </trkpt>
      <trkpt lat="43.07152" lon="-0.04454">
        <ele>438.83</ele>
        <time>2018-08-25T07:32:37Z</time>
      </trkpt>
      <trkpt lat="43.07132" lon="-0.04443">
        <ele>438.55</ele>
        <time>2018-08-25T07:32:39Z</time>
      </trkpt>
      <trkpt lat="43.0711" lon="-0.04443">
        <ele>436.91</ele>
        <time>2018-08-25T07:32:41Z</time>
      </trkpt>
      <trkpt lat="43.0709" lon="-0.04454">
        <ele>435.65</ele>
        <time>2018-08-25T07:32:43Z</time>
      </trkpt>
      <trkpt lat="43.0707" lon="-0.04466">
        <ele>434.83</ele>
        <time>2018-08-25T07:32:45Z</time>
      </trkpt>
      <trkpt lat="43.07051" lon="-0.04479">
        <ele>433.85</ele>
        <time>2018-08-25T07:32:47Z</time>
      </trkpt>
      <trkpt lat="43.07032" lon="-0.04491">
        <ele>432.85</ele>
        <time>2018-08-25T07:32:49Z</time>
      </trkpt>
      <trkpt lat="43.07012" lon="-0.04504">
        <ele>431.85</ele>
        <time>2018-08-25T07:32:51Z</time>
      </trkpt>
      <trkpt lat="43.0699" lon="-0.04506">
        <ele>432.46</ele>
        <time>2018-08-25T07:32:53Z</time>
      </trkpt>
      <trkpt lat="43.06971" lon="-0.04495">
        <ele>432.52</ele>
        <time>2018-08-25T07:32:55Z</time>
      </trkpt>
      <trkpt lat="43.06954" lon="-0.04478">
        <ele>432.52</ele>
        <time>2018-08-25T07:32:57Z</time>
      </trkpt>
      <trkpt lat="43.06938" lon="-0.0446">
        <ele>430</ele>
        <time>2018-08-25T07:32:59Z</time>
      </trkpt>
      <trkpt lat="43.06923" lon="-0.0444">
        <ele>426.35</ele>
        <time>2018-08-25T07:33:01Z</time>
      </trkpt>
      <trkpt lat="43.06908" lon="-0.04418">
        <ele>423.08</ele>
        <time>2018-08-25T07:33:03Z</time>
      </trkpt>
      <trkpt lat="43.06895" lon="-0.04395">
        <ele>420.05</ele>
        <time>2018-08-25T07:33:05Z</time>
      </trkpt>
      <trkpt lat="43.06886" lon="-0.04368">
        <ele>417.96</ele>
        <time>2018-08-25T07:33:07Z</time>
      </trkpt>
      <trkpt lat="43.06877" lon="-0.04339">
        <ele>415.95</ele>
        <time>2018-08-25T07:33:09Z</time>
      </trkpt>
      <trkpt lat="43.06861" lon="-0.04317">
        <ele>414.65</ele>
        <time>2018-08-25T07:33:11Z</time>
      </trkpt>
      <trkpt lat="43.0684" lon="-0.043">
        <ele>414.53</ele>
        <time>2018-08-25T07:33:13Z</time>
      </trkpt>
      <trkpt lat="43.06822" lon="-0.04286">
        <ele>414.52</ele>
        <time>2018-08-25T07:33:15Z</time>
      </trkpt>
      <trkpt lat="43.06805" lon="-0.04265">
        <ele>413.82</ele>
        <time>2018-08-25T07:33:18Z</time>
      </trkpt>
      <trkpt lat="43.06803" lon="-0.04234">
        <ele>411.92</ele>
        <time>2018-08-25T07:33:21Z</time>
      </trkpt>
      <trkpt lat="43.06811" lon="-0.04208">
        <ele>407.98</ele>
        <time>2018-08-25T07:33:24Z</time>
      </trkpt>
      <trkpt lat="43.06819" lon="-0.04182">
        <ele>403.98</ele>
        <time>2018-08-25T07:33:27Z</time>
      </trkpt>
      <trkpt lat="43.06827" lon="-0.04152">
        <ele>401.65</ele>
        <time>2018-08-25T07:33:30Z</time>
      </trkpt>
      <trkpt lat="43.06839" lon="-0.04126">
        <ele>399.85</ele>
        <time>2018-08-25T07:33:33Z</time>
      </trkpt>
      <trkpt lat="43.06852" lon="-0.04107">
        <ele>397.65</ele>
        <time>2018-08-25T07:33:36Z</time>
      </trkpt>
      <trkpt lat="43.06868" lon="-0.04085">
        <ele>398.43</ele>
        <time>2018-08-25T07:33:40Z</time>
      </trkpt>
      <trkpt lat="43.0688" lon="-0.04063">
        <ele>397.53</ele>
        <time>2018-08-25T07:33:44Z</time>
      </trkpt>
      <trkpt lat="43.0687" lon="-0.04038">
        <ele>397.5</ele>
        <time>2018-08-25T07:33:48Z</time>
      </trkpt>
      <trkpt lat="43.0686" lon="-0.04017">
        <ele>397.52</ele>
        <time>2018-08-25T07:33:51Z</time>
      </trkpt>
      <trkpt lat="43.06854" lon="-0.03992">
        <ele>397.52</ele>
        <time>2018-08-25T07:33:54Z</time>
      </trkpt>
      <trkpt lat="43.06848" lon="-0.03968">
        <ele>398.22</ele>
        <time>2018-08-25T07:33:57Z</time>
      </trkpt>
      <trkpt lat="43.06841" lon="-0.03943">
        <ele>397.54</ele>
        <time>2018-08-25T07:34:00Z</time>
      </trkpt>
      <trkpt lat="43.06829" lon="-0.03923">
        <ele>397.52</ele>
        <time>2018-08-25T07:34:03Z</time>
      </trkpt>
      <trkpt lat="43.0681" lon="-0.03914">
        <ele>398.22</ele>
        <time>2018-08-25T07:34:06Z</time>
      </trkpt>
      <trkpt lat="43.06791" lon="-0.03913">
        <ele>398.51</ele>
        <time>2018-08-25T07:34:09Z</time>
      </trkpt>
      <trkpt lat="43.06774" lon="-0.03921">
        <ele>398.52</ele>
        <time>2018-08-25T07:34:12Z</time>
      </trkpt>
      <trkpt lat="43.06756" lon="-0.03927">
        <ele>398.52</ele>
        <time>2018-08-25T07:34:15Z</time>
      </trkpt>
      <trkpt lat="43.06739" lon="-0.0392">
        <ele>399.43</ele>
        <time>2018-08-25T07:34:18Z</time>
      </trkpt>
      <trkpt lat="43.06723" lon="-0.03906">
        <ele>400.43</ele>
        <time>2018-08-25T07:34:21Z</time>
      </trkpt>
      <trkpt lat="43.06707" lon="-0.03887">
        <ele>400.58</ele>
        <time>2018-08-25T07:34:24Z</time>
      </trkpt>
      <trkpt lat="43.06693" lon="-0.03869">
        <ele>400.8</ele>
        <time>2018-08-25T07:34:27Z</time>
      </trkpt>
      <trkpt lat="43.06687" lon="-0.03844">
        <ele>401.23</ele>
        <time>2018-08-25T07:34:30Z</time>
      </trkpt>
      <trkpt lat="43.06698" lon="-0.03816">
        <ele>403.12</ele>
        <time>2018-08-25T07:34:33Z</time>
      </trkpt>
      <trkpt lat="43.06701" lon="-0.03786">
        <ele>402.75</ele>
        <time>2018-08-25T07:34:36Z</time>
      </trkpt>
      <trkpt lat="43.06684" lon="-0.03765">
        <ele>403.5</ele>
        <time>2018-08-25T07:34:39Z</time>
      </trkpt>
      <trkpt lat="43.06664" lon="-0.03751">
        <ele>403.52</ele>
        <time>2018-08-25T07:34:42Z</time>
      </trkpt>
      <trkpt lat="43.06645" lon="-0.03768">
        <ele>401.91</ele>
        <time>2018-08-25T07:34:45Z</time>
      </trkpt>
      <trkpt lat="43.06625" lon="-0.03784">
        <ele>399.65</ele>
        <time>2018-08-25T07:34:48Z</time>
      </trkpt>
      <trkpt lat="43.06607" lon="-0.03801">
        <ele>398.62</ele>
        <time>2018-08-25T07:34:51Z</time>
      </trkpt>
      <trkpt lat="43.06589" lon="-0.03818">
        <ele>397.82</ele>
        <time>2018-08-25T07:34:54Z</time>
      </trkpt>
      <trkpt lat="43.06571" lon="-0.0384">
        <ele>397.53</ele>
        <time>2018-08-25T07:34:57Z</time>
      </trkpt>
      <trkpt lat="43.06556" lon="-0.03861">
        <ele>397.52</ele>
        <time>2018-08-25T07:35:00Z</time>
      </trkpt>
      <trkpt lat="43.06542" lon="-0.03881">
        <ele>398.22</ele>
        <time>2018-08-25T07:35:03Z</time>
      </trkpt>
      <trkpt lat="43.06532" lon="-0.03904">
        <ele>398.51</ele>
        <time>2018-08-25T07:35:06Z</time>
      </trkpt>
      <trkpt lat="43.06521" lon="-0.03927">
        <ele>398.52</ele>
        <time>2018-08-25T07:35:09Z</time>
      </trkpt>
      <trkpt lat="43.06509" lon="-0.03948">
        <ele>398.52</ele>
        <time>2018-08-25T07:35:12Z</time>
      </trkpt>
      <trkpt lat="43.06492" lon="-0.03955">
        <ele>398.52</ele>
        <time>2018-08-25T07:35:15Z</time>
      </trkpt>
      <trkpt lat="43.06474" lon="-0.03957">
        <ele>398.52</ele>
        <time>2018-08-25T07:35:18Z</time>
      </trkpt>
      <trkpt lat="43.06454" lon="-0.03964">
        <ele>395.71</ele>
        <time>2018-08-25T07:35:22Z</time>
      </trkpt>
      <trkpt lat="43.06458" lon="-0.03994">
        <ele>395.52</ele>
        <time>2018-08-25T07:35:27Z</time>
      </trkpt>
      <trkpt lat="43.06443" lon="-0.04009">
        <ele>394.55</ele>
        <time>2018-08-25T07:35:33Z</time>
      </trkpt>
      <trkpt lat="43.06424" lon="-0.04009">
        <ele>394.52</ele>
        <time>2018-08-25T07:35:36Z</time>
      </trkpt>
      <trkpt lat="43.06404" lon="-0.04009">
        <ele>394.52</ele>
        <time>2018-08-25T07:35:39Z</time>
      </trkpt>
      <trkpt lat="43.06383" lon="-0.04009">
        <ele>394.52</ele>
        <time>2018-08-25T07:35:42Z</time>
      </trkpt>
      <trkpt lat="43.06363" lon="-0.0401">
        <ele>394.52</ele>
        <time>2018-08-25T07:35:45Z</time>
      </trkpt>
      <trkpt lat="43.06343" lon="-0.0401">
        <ele>394.31</ele>
        <time>2018-08-25T07:35:48Z</time>
      </trkpt>
      <trkpt lat="43.06323" lon="-0.04011">
        <ele>394.24</ele>
        <time>2018-08-25T07:35:51Z</time>
      </trkpt>
      <trkpt lat="43.06303" lon="-0.04012">
        <ele>394.3</ele>
        <time>2018-08-25T07:35:54Z</time>
      </trkpt>
      <trkpt lat="43.06284" lon="-0.04013">
        <ele>394.52</ele>
        <time>2018-08-25T07:35:57Z</time>
      </trkpt>
      <trkpt lat="43.06264" lon="-0.04015">
        <ele>394.52</ele>
        <time>2018-08-25T07:36:00Z</time>
      </trkpt>
      <trkpt lat="43.06243" lon="-0.04017">
        <ele>395.49</ele>
        <time>2018-08-25T07:36:03Z</time>
      </trkpt>
      <trkpt lat="43.06224" lon="-0.04019">
        <ele>395.52</ele>
        <time>2018-08-25T07:36:06Z</time>
      </trkpt>
      <trkpt lat="43.06204" lon="-0.04022">
        <ele>395.52</ele>
        <time>2018-08-25T07:36:09Z</time>
      </trkpt>
      <trkpt lat="43.06184" lon="-0.04026">
        <ele>395.58</ele>
        <time>2018-08-25T07:36:12Z</time>
      </trkpt>
      <trkpt lat="43.06165" lon="-0.04031">
        <ele>395.52</ele>
        <time>2018-08-25T07:36:15Z</time>
      </trkpt>
      <trkpt lat="43.06145" lon="-0.04037">
        <ele>394.61</ele>
        <time>2018-08-25T07:36:18Z</time>
      </trkpt>
      <trkpt lat="43.06126" lon="-0.04046">
        <ele>394.52</ele>
        <time>2018-08-25T07:36:21Z</time>
      </trkpt>
      <trkpt lat="43.06107" lon="-0.04054">
        <ele>394.52</ele>
        <time>2018-08-25T07:36:24Z</time>
      </trkpt>
      <trkpt lat="43.06089" lon="-0.04062">
        <ele>395.43</ele>
        <time>2018-08-25T07:36:27Z</time>
      </trkpt>
      <trkpt lat="43.0607" lon="-0.04071">
        <ele>395.52</ele>
        <time>2018-08-25T07:36:30Z</time>
      </trkpt>
      <trkpt lat="43.06051" lon="-0.04081">
        <ele>395.52</ele>
        <time>2018-08-25T07:36:33Z</time>
      </trkpt>
      <trkpt lat="43.06033" lon="-0.0409">
        <ele>394.82</ele>
        <time>2018-08-25T07:36:36Z</time>
      </trkpt>
      <trkpt lat="43.06015" lon="-0.04097">
        <ele>395.44</ele>
        <time>2018-08-25T07:36:39Z</time>
      </trkpt>
      <trkpt lat="43.05997" lon="-0.04105">
        <ele>394.55</ele>
        <time>2018-08-25T07:36:42Z</time>
      </trkpt>
      <trkpt lat="43.05977" lon="-0.04115">
        <ele>392.91</ele>
        <time>2018-08-25T07:36:45Z</time>
      </trkpt>
      <trkpt lat="43.05959" lon="-0.04125">
        <ele>392.53</ele>
        <time>2018-08-25T07:36:48Z</time>
      </trkpt>
      <trkpt lat="43.0594" lon="-0.04135">
        <ele>393.22</ele>
        <time>2018-08-25T07:36:51Z</time>
      </trkpt>
      <trkpt lat="43.05922" lon="-0.04145">
        <ele>392.54</ele>
        <time>2018-08-25T07:36:54Z</time>
      </trkpt>
      <trkpt lat="43.05904" lon="-0.04154">
        <ele>392.73</ele>
        <time>2018-08-25T07:36:57Z</time>
      </trkpt>
      <trkpt lat="43.05886" lon="-0.04166">
        <ele>393.44</ele>
        <time>2018-08-25T07:37:00Z</time>
      </trkpt>
      <trkpt lat="43.05869" lon="-0.04177">
        <ele>393.73</ele>
        <time>2018-08-25T07:37:03Z</time>
      </trkpt>
      <trkpt lat="43.0585" lon="-0.04188">
        <ele>394.43</ele>
        <time>2018-08-25T07:37:07Z</time>
      </trkpt>
      <trkpt lat="43.05834" lon="-0.04198">
        <ele>393.52</ele>
        <time>2018-08-25T07:37:15Z</time>
      </trkpt>
      <trkpt lat="43.05827" lon="-0.04223">
        <ele>392.52</ele>
        <time>2018-08-25T07:37:25Z</time>
      </trkpt>
      <trkpt lat="43.05812" lon="-0.04238">
        <ele>392.55</ele>
        <time>2018-08-25T07:37:32Z</time>
      </trkpt>
      <trkpt lat="43.05798" lon="-0.04257">
        <ele>392.52</ele>
        <time>2018-08-25T07:37:39Z</time>
      </trkpt>
      <trkpt lat="43.05779" lon="-0.04263">
        <ele>392.53</ele>
        <time>2018-08-25T07:37:47Z</time>
      </trkpt>
      <trkpt lat="43.05762" lon="-0.04273">
        <ele>392.52</ele>
        <time>2018-08-25T07:37:54Z</time>
      </trkpt>
      <trkpt lat="43.05749" lon="-0.0429">
        <ele>393.51</ele>
        <time>2018-08-25T07:38:01Z</time>
      </trkpt>
      <trkpt lat="43.05736" lon="-0.0431">
        <ele>393.52</ele>
        <time>2018-08-25T07:38:06Z</time>
      </trkpt>
      <trkpt lat="43.05724" lon="-0.0433">
        <ele>393.52</ele>
        <time>2018-08-25T07:38:15Z</time>
      </trkpt>
      <trkpt lat="43.05708" lon="-0.0435">
        <ele>393.52</ele>
        <time>2018-08-25T07:38:21Z</time>
      </trkpt>
      <trkpt lat="43.05691" lon="-0.04366">
        <ele>393.52</ele>
        <time>2018-08-25T07:38:28Z</time>
      </trkpt>
      <trkpt lat="43.05672" lon="-0.0437">
        <ele>393.51</ele>
        <time>2018-08-25T07:38:35Z</time>
      </trkpt>
      <trkpt lat="43.05655" lon="-0.04382">
        <ele>394.22</ele>
        <time>2018-08-25T07:38:44Z</time>
      </trkpt>
      <trkpt lat="43.05639" lon="-0.04397">
        <ele>391.83</ele>
        <time>2018-08-25T07:38:53Z</time>
      </trkpt>
      <trkpt lat="43.05623" lon="-0.04411">
        <ele>390.25</ele>
        <time>2018-08-25T07:39:02Z</time>
      </trkpt>
      <trkpt lat="43.05604" lon="-0.0442">
        <ele>389.53</ele>
        <time>2018-08-25T07:39:09Z</time>
      </trkpt>
      <trkpt lat="43.05593" lon="-0.0444">
        <ele>388.5</ele>
        <time>2018-08-25T07:39:19Z</time>
      </trkpt>
      <trkpt lat="43.05595" lon="-0.04466">
        <ele>389.73</ele>
        <time>2018-08-25T07:39:30Z</time>
      </trkpt>
      <trkpt lat="43.05582" lon="-0.04486">
        <ele>389.52</ele>
        <time>2018-08-25T07:39:37Z</time>
      </trkpt>
      <trkpt lat="43.05572" lon="-0.04509">
        <ele>389.5</ele>
        <time>2018-08-25T07:39:43Z</time>
      </trkpt>
      <trkpt lat="43.05562" lon="-0.04531">
        <ele>390.51</ele>
        <time>2018-08-25T07:39:48Z</time>
      </trkpt>
      <trkpt lat="43.05559" lon="-0.04556">
        <ele>391.23</ele>
        <time>2018-08-25T07:39:53Z</time>
      </trkpt>
      <trkpt lat="43.05554" lon="-0.04583">
        <ele>391.52</ele>
        <time>2018-08-25T07:39:59Z</time>
      </trkpt>
      <trkpt lat="43.05548" lon="-0.04607">
        <ele>391.52</ele>
        <time>2018-08-25T07:40:04Z</time>
      </trkpt>
      <trkpt lat="43.05538" lon="-0.0463">
        <ele>390.82</ele>
        <time>2018-08-25T07:40:24Z</time>
      </trkpt>
      <trkpt lat="43.05528" lon="-0.04652">
        <ele>391.29</ele>
        <time>2018-08-25T07:40:32Z</time>
      </trkpt>
      <trkpt lat="43.05516" lon="-0.04671">
        <ele>390.52</ele>
        <time>2018-08-25T07:40:38Z</time>
      </trkpt>
      <trkpt lat="43.05506" lon="-0.04691">
        <ele>390.52</ele>
        <time>2018-08-25T07:40:43Z</time>
      </trkpt>
      <trkpt lat="43.05494" lon="-0.04712">
        <ele>390.52</ele>
        <time>2018-08-25T07:40:48Z</time>
      </trkpt>
      <trkpt lat="43.05484" lon="-0.04736">
        <ele>390.43</ele>
        <time>2018-08-25T07:40:53Z</time>
      </trkpt>
      <trkpt lat="43.05478" lon="-0.04761">
        <ele>390.52</ele>
        <time>2018-08-25T07:40:59Z</time>
      </trkpt>
      <trkpt lat="43.05465" lon="-0.04782">
        <ele>391.43</ele>
        <time>2018-08-25T07:41:04Z</time>
      </trkpt>
      <trkpt lat="43.05449" lon="-0.04801">
        <ele>391.52</ele>
        <time>2018-08-25T07:41:10Z</time>
      </trkpt>
      <trkpt lat="43.0543" lon="-0.04809">
        <ele>392.52</ele>
        <time>2018-08-25T07:41:17Z</time>
      </trkpt>
      <trkpt lat="43.05413" lon="-0.04823">
        <ele>392.52</ele>
        <time>2018-08-25T07:41:21Z</time>
      </trkpt>
      <trkpt lat="43.05392" lon="-0.04833">
        <ele>393.43</ele>
        <time>2018-08-25T07:41:26Z</time>
      </trkpt>
      <trkpt lat="43.05374" lon="-0.04847">
        <ele>393.55</ele>
        <time>2018-08-25T07:41:31Z</time>
      </trkpt>
      <trkpt lat="43.05359" lon="-0.04867">
        <ele>393.52</ele>
        <time>2018-08-25T07:41:36Z</time>
      </trkpt>
      <trkpt lat="43.05343" lon="-0.04883">
        <ele>393.61</ele>
        <time>2018-08-25T07:41:42Z</time>
      </trkpt>
      <trkpt lat="43.05322" lon="-0.04887">
        <ele>395.21</ele>
        <time>2018-08-25T07:41:48Z</time>
      </trkpt>
      <trkpt lat="43.05309" lon="-0.04908">
        <ele>395.46</ele>
        <time>2018-08-25T07:42:01Z</time>
      </trkpt>
      <trkpt lat="43.05299" lon="-0.04931">
        <ele>396.43</ele>
        <time>2018-08-25T07:42:08Z</time>
      </trkpt>
      <trkpt lat="43.05297" lon="-0.04956">
        <ele>395.61</ele>
        <time>2018-08-25T07:42:14Z</time>
      </trkpt>
      <trkpt lat="43.05285" lon="-0.04975">
        <ele>394.61</ele>
        <time>2018-08-25T07:42:21Z</time>
      </trkpt>
      <trkpt lat="43.05267" lon="-0.04986">
        <ele>393.53</ele>
        <time>2018-08-25T07:42:26Z</time>
      </trkpt>
      <trkpt lat="43.0525" lon="-0.04997">
        <ele>393.52</ele>
        <time>2018-08-25T07:42:32Z</time>
      </trkpt>
      <trkpt lat="43.05232" lon="-0.05004">
        <ele>392.61</ele>
        <time>2018-08-25T07:42:37Z</time>
      </trkpt>
      <trkpt lat="43.05215" lon="-0.05011">
        <ele>392.46</ele>
        <time>2018-08-25T07:42:41Z</time>
      </trkpt>
      <trkpt lat="43.05203" lon="-0.05031">
        <ele>391.61</ele>
        <time>2018-08-25T07:42:45Z</time>
      </trkpt>
      <trkpt lat="43.05191" lon="-0.05056">
        <ele>390.61</ele>
        <time>2018-08-25T07:42:50Z</time>
      </trkpt>
      <trkpt lat="43.05178" lon="-0.05079">
        <ele>391.51</ele>
        <time>2018-08-25T07:42:55Z</time>
      </trkpt>
      <trkpt lat="43.05164" lon="-0.05095">
        <ele>391.52</ele>
        <time>2018-08-25T07:42:59Z</time>
      </trkpt>
      <trkpt lat="43.0515" lon="-0.05111">
        <ele>392.43</ele>
        <time>2018-08-25T07:43:03Z</time>
      </trkpt>
      <trkpt lat="43.05136" lon="-0.05128">
        <ele>392.52</ele>
        <time>2018-08-25T07:43:07Z</time>
      </trkpt>
      <trkpt lat="43.05122" lon="-0.05144">
        <ele>392.52</ele>
        <time>2018-08-25T07:43:11Z</time>
      </trkpt>
      <trkpt lat="43.05109" lon="-0.05162">
        <ele>392.52</ele>
        <time>2018-08-25T07:43:15Z</time>
      </trkpt>
      <trkpt lat="43.0509" lon="-0.05168">
        <ele>392.52</ele>
        <time>2018-08-25T07:43:19Z</time>
      </trkpt>
      <trkpt lat="43.05069" lon="-0.05178">
        <ele>392.52</ele>
        <time>2018-08-25T07:43:24Z</time>
      </trkpt>
      <trkpt lat="43.05051" lon="-0.05185">
        <ele>393.51</ele>
        <time>2018-08-25T07:43:28Z</time>
      </trkpt>
      <trkpt lat="43.05034" lon="-0.05194">
        <ele>394.22</ele>
        <time>2018-08-25T07:43:32Z</time>
      </trkpt>
      <trkpt lat="43.05015" lon="-0.05192">
        <ele>394.52</ele>
        <time>2018-08-25T07:43:38Z</time>
      </trkpt>
      <trkpt lat="43.04997" lon="-0.05184">
        <ele>394.52</ele>
        <time>2018-08-25T07:43:42Z</time>
      </trkpt>
      <trkpt lat="43.04977" lon="-0.05172">
        <ele>394.52</ele>
        <time>2018-08-25T07:43:48Z</time>
      </trkpt>
      <trkpt lat="43.04958" lon="-0.05175">
        <ele>394.52</ele>
        <time>2018-08-25T07:43:53Z</time>
      </trkpt>
      <trkpt lat="43.04945" lon="-0.05198">
        <ele>394.52</ele>
        <time>2018-08-25T07:44:00Z</time>
      </trkpt>
      <trkpt lat="43.04926" lon="-0.05204">
        <ele>394.52</ele>
        <time>2018-08-25T07:44:06Z</time>
      </trkpt>
      <trkpt lat="43.0491" lon="-0.05222">
        <ele>395.43</ele>
        <time>2018-08-25T07:44:11Z</time>
      </trkpt>
      <trkpt lat="43.04897" lon="-0.05244">
        <ele>395.52</ele>
        <time>2018-08-25T07:44:16Z</time>
      </trkpt>
      <trkpt lat="43.04883" lon="-0.05263">
        <ele>396.51</ele>
        <time>2018-08-25T07:44:21Z</time>
      </trkpt>
      <trkpt lat="43.04873" lon="-0.05287">
        <ele>396.52</ele>
        <time>2018-08-25T07:44:26Z</time>
      </trkpt>
      <trkpt lat="43.04863" lon="-0.0531">
        <ele>396.52</ele>
        <time>2018-08-25T07:44:32Z</time>
      </trkpt>
      <trkpt lat="43.04846" lon="-0.05323">
        <ele>395.52</ele>
        <time>2018-08-25T07:44:38Z</time>
      </trkpt>
      <trkpt lat="43.04826" lon="-0.05321">
        <ele>395.23</ele>
        <time>2018-08-25T07:44:43Z</time>
      </trkpt>
      <trkpt lat="43.04806" lon="-0.05324">
        <ele>393.61</ele>
        <time>2018-08-25T07:44:48Z</time>
      </trkpt>
      <trkpt lat="43.04789" lon="-0.0534">
        <ele>393.52</ele>
        <time>2018-08-25T07:44:54Z</time>
      </trkpt>
      <trkpt lat="43.04773" lon="-0.05354">
        <ele>393.52</ele>
        <time>2018-08-25T07:45:00Z</time>
      </trkpt>
      <trkpt lat="43.04753" lon="-0.05354">
        <ele>394.22</ele>
        <time>2018-08-25T07:45:06Z</time>
      </trkpt>
      <trkpt lat="43.0474" lon="-0.05371">
        <ele>394.51</ele>
        <time>2018-08-25T07:45:12Z</time>
      </trkpt>
      <trkpt lat="43.04721" lon="-0.05385">
        <ele>394.52</ele>
        <time>2018-08-25T07:45:17Z</time>
      </trkpt>
      <trkpt lat="43.04713" lon="-0.05407">
        <ele>394.52</ele>
        <time>2018-08-25T07:45:22Z</time>
      </trkpt>
      <trkpt lat="43.04707" lon="-0.05434">
        <ele>394.74</ele>
        <time>2018-08-25T07:45:29Z</time>
      </trkpt>
      <trkpt lat="43.04697" lon="-0.05456">
        <ele>394.52</ele>
        <time>2018-08-25T07:45:34Z</time>
      </trkpt>
      <trkpt lat="43.04681" lon="-0.05471">
        <ele>394.52</ele>
        <time>2018-08-25T07:45:39Z</time>
      </trkpt>
      <trkpt lat="43.04665" lon="-0.05488">
        <ele>393.53</ele>
        <time>2018-08-25T07:45:45Z</time>
      </trkpt>
      <trkpt lat="43.04646" lon="-0.05499">
        <ele>393.46</ele>
        <time>2018-08-25T07:45:49Z</time>
      </trkpt>
      <trkpt lat="43.04629" lon="-0.05516">
        <ele>393.23</ele>
        <time>2018-08-25T07:45:53Z</time>
      </trkpt>
      <trkpt lat="43.04611" lon="-0.05532">
        <ele>394.22</ele>
        <time>2018-08-25T07:45:57Z</time>
      </trkpt>
      <trkpt lat="43.04593" lon="-0.0555">
        <ele>394.5</ele>
        <time>2018-08-25T07:46:01Z</time>
      </trkpt>
      <trkpt lat="43.04578" lon="-0.05567">
        <ele>394.31</ele>
        <time>2018-08-25T07:46:05Z</time>
      </trkpt>
      <trkpt lat="43.04561" lon="-0.05584">
        <ele>395.28</ele>
        <time>2018-08-25T07:46:09Z</time>
      </trkpt>
      <trkpt lat="43.04555" lon="-0.05609">
        <ele>396.43</ele>
        <time>2018-08-25T07:46:13Z</time>
      </trkpt>
      <trkpt lat="43.04539" lon="-0.05625">
        <ele>395.61</ele>
        <time>2018-08-25T07:46:17Z</time>
      </trkpt>
      <trkpt lat="43.04522" lon="-0.0564">
        <ele>395.52</ele>
        <time>2018-08-25T07:46:21Z</time>
      </trkpt>
      <trkpt lat="43.04509" lon="-0.05658">
        <ele>395.52</ele>
        <time>2018-08-25T07:46:24Z</time>
      </trkpt>
      <trkpt lat="43.04492" lon="-0.05678">
        <ele>394.55</ele>
        <time>2018-08-25T07:46:28Z</time>
      </trkpt>
      <trkpt lat="43.04473" lon="-0.05692">
        <ele>394.52</ele>
        <time>2018-08-25T07:46:32Z</time>
      </trkpt>
      <trkpt lat="43.04453" lon="-0.05705">
        <ele>394.6</ele>
        <time>2018-08-25T07:46:36Z</time>
      </trkpt>
      <trkpt lat="43.04435" lon="-0.05722">
        <ele>394.52</ele>
        <time>2018-08-25T07:46:40Z</time>
      </trkpt>
      <trkpt lat="43.04419" lon="-0.05744">
        <ele>394.52</ele>
        <time>2018-08-25T07:46:44Z</time>
      </trkpt>
      <trkpt lat="43.04401" lon="-0.05763">
        <ele>393.82</ele>
        <time>2018-08-25T07:46:48Z</time>
      </trkpt>
      <trkpt lat="43.04379" lon="-0.05772">
        <ele>394.22</ele>
        <time>2018-08-25T07:46:52Z</time>
      </trkpt>
      <trkpt lat="43.04361" lon="-0.05787">
        <ele>395.43</ele>
        <time>2018-08-25T07:46:56Z</time>
      </trkpt>
      <trkpt lat="43.04344" lon="-0.05802">
        <ele>395.52</ele>
        <time>2018-08-25T07:47:00Z</time>
      </trkpt>
      <trkpt lat="43.04326" lon="-0.05815">
        <ele>396.49</ele>
        <time>2018-08-25T07:47:04Z</time>
      </trkpt>
      <trkpt lat="43.04322" lon="-0.05844">
        <ele>397.43</ele>
        <time>2018-08-25T07:47:08Z</time>
      </trkpt>
      <trkpt lat="43.04314" lon="-0.05871">
        <ele>397.52</ele>
        <time>2018-08-25T07:47:12Z</time>
      </trkpt>
      <trkpt lat="43.04308" lon="-0.05898">
        <ele>398.43</ele>
        <time>2018-08-25T07:47:16Z</time>
      </trkpt>
      <trkpt lat="43.04305" lon="-0.05927">
        <ele>398.58</ele>
        <time>2018-08-25T07:47:20Z</time>
      </trkpt>
      <trkpt lat="43.04299" lon="-0.05955">
        <ele>398.54</ele>
        <time>2018-08-25T07:47:24Z</time>
      </trkpt>
      <trkpt lat="43.04294" lon="-0.0598">
        <ele>398.25</ele>
        <time>2018-08-25T07:47:28Z</time>
      </trkpt>
      <trkpt lat="43.04296" lon="-0.06008">
        <ele>398.46</ele>
        <time>2018-08-25T07:47:32Z</time>
      </trkpt>
      <trkpt lat="43.04294" lon="-0.06035">
        <ele>397.53</ele>
        <time>2018-08-25T07:47:36Z</time>
      </trkpt>
      <trkpt lat="43.04284" lon="-0.0606">
        <ele>396.61</ele>
        <time>2018-08-25T07:47:40Z</time>
      </trkpt>
      <trkpt lat="43.04271" lon="-0.06083">
        <ele>397.51</ele>
        <time>2018-08-25T07:47:44Z</time>
      </trkpt>
      <trkpt lat="43.04253" lon="-0.06101">
        <ele>397.52</ele>
        <time>2018-08-25T07:47:48Z</time>
      </trkpt>
      <trkpt lat="43.04232" lon="-0.06113">
        <ele>397.44</ele>
        <time>2018-08-25T07:47:52Z</time>
      </trkpt>
      <trkpt lat="43.04213" lon="-0.06127">
        <ele>397.52</ele>
        <time>2018-08-25T07:47:56Z</time>
      </trkpt>
      <trkpt lat="43.04194" lon="-0.06139">
        <ele>397.52</ele>
        <time>2018-08-25T07:48:00Z</time>
      </trkpt>
      <trkpt lat="43.04173" lon="-0.06136">
        <ele>398.49</ele>
        <time>2018-08-25T07:48:04Z</time>
      </trkpt>
      <trkpt lat="43.04152" lon="-0.06127">
        <ele>400.21</ele>
        <time>2018-08-25T07:48:08Z</time>
      </trkpt>
      <trkpt lat="43.04134" lon="-0.06114">
        <ele>401.22</ele>
        <time>2018-08-25T07:48:12Z</time>
      </trkpt>
      <trkpt lat="43.04115" lon="-0.06104">
        <ele>401.52</ele>
        <time>2018-08-25T07:48:16Z</time>
      </trkpt>
      <trkpt lat="43.04095" lon="-0.06103">
        <ele>400.82</ele>
        <time>2018-08-25T07:48:20Z</time>
      </trkpt>
      <trkpt lat="43.04076" lon="-0.06109">
        <ele>400.52</ele>
        <time>2018-08-25T07:48:24Z</time>
      </trkpt>
      <trkpt lat="43.04058" lon="-0.06122">
        <ele>400.52</ele>
        <time>2018-08-25T07:48:29Z</time>
      </trkpt>
      <trkpt lat="43.0404" lon="-0.0613">
        <ele>400.52</ele>
        <time>2018-08-25T07:48:37Z</time>
      </trkpt>
      <trkpt lat="43.04023" lon="-0.06142">
        <ele>399.52</ele>
        <time>2018-08-25T07:48:49Z</time>
      </trkpt>
      <trkpt lat="43.04005" lon="-0.0615">
        <ele>400.52</ele>
        <time>2018-08-25T07:48:57Z</time>
      </trkpt>
      <trkpt lat="43.03986" lon="-0.0616">
        <ele>401.51</ele>
        <time>2018-08-25T07:49:04Z</time>
      </trkpt>
      <trkpt lat="43.03968" lon="-0.06172">
        <ele>401.52</ele>
        <time>2018-08-25T07:49:10Z</time>
      </trkpt>
      <trkpt lat="43.03949" lon="-0.06176">
        <ele>401.61</ele>
        <time>2018-08-25T07:49:18Z</time>
      </trkpt>
      <trkpt lat="43.0393" lon="-0.06173">
        <ele>401.52</ele>
        <time>2018-08-25T07:49:25Z</time>
      </trkpt>
      <trkpt lat="43.03913" lon="-0.06182">
        <ele>402.51</ele>
        <time>2018-08-25T07:49:31Z</time>
      </trkpt>
      <trkpt lat="43.03892" lon="-0.06188">
        <ele>402.54</ele>
        <time>2018-08-25T07:49:37Z</time>
      </trkpt>
      <trkpt lat="43.03871" lon="-0.0619">
        <ele>401.82</ele>
        <time>2018-08-25T07:49:44Z</time>
      </trkpt>
      <trkpt lat="43.03851" lon="-0.06196">
        <ele>401.52</ele>
        <time>2018-08-25T07:49:49Z</time>
      </trkpt>
      <trkpt lat="43.03835" lon="-0.06206">
        <ele>402.22</ele>
        <time>2018-08-25T07:49:55Z</time>
      </trkpt>
      <trkpt lat="43.03821" lon="-0.06188">
        <ele>401.53</ele>
        <time>2018-08-25T07:50:06Z</time>
      </trkpt>
      <trkpt lat="43.03804" lon="-0.06174">
        <ele>401.52</ele>
        <time>2018-08-25T07:50:13Z</time>
      </trkpt>
      <trkpt lat="43.03787" lon="-0.06183">
        <ele>403.13</ele>
        <time>2018-08-25T07:50:21Z</time>
      </trkpt>
      <trkpt lat="43.0377" lon="-0.06197">
        <ele>403.52</ele>
        <time>2018-08-25T07:50:29Z</time>
      </trkpt>
      <trkpt lat="43.03753" lon="-0.06211">
        <ele>402.52</ele>
        <time>2018-08-25T07:50:36Z</time>
      </trkpt>
      <trkpt lat="43.03735" lon="-0.06219">
        <ele>404.52</ele>
        <time>2018-08-25T07:50:44Z</time>
      </trkpt>
      <trkpt lat="43.03715" lon="-0.06222">
        <ele>404.52</ele>
        <time>2018-08-25T07:50:51Z</time>
      </trkpt>
      <trkpt lat="43.03695" lon="-0.06221">
        <ele>403.52</ele>
        <time>2018-08-25T07:50:57Z</time>
      </trkpt>
      <trkpt lat="43.0368" lon="-0.06205">
        <ele>404.24</ele>
        <time>2018-08-25T07:51:06Z</time>
      </trkpt>
      <trkpt lat="43.0366" lon="-0.06208">
        <ele>404.22</ele>
        <time>2018-08-25T07:51:13Z</time>
      </trkpt>
      <trkpt lat="43.0364" lon="-0.06202">
        <ele>404.31</ele>
        <time>2018-08-25T07:51:20Z</time>
      </trkpt>
      <trkpt lat="43.03621" lon="-0.062">
        <ele>402.74</ele>
        <time>2018-08-25T07:51:26Z</time>
      </trkpt>
      <trkpt lat="43.03605" lon="-0.06215">
        <ele>404.51</ele>
        <time>2018-08-25T07:51:35Z</time>
      </trkpt>
      <trkpt lat="43.03585" lon="-0.06213">
        <ele>404.52</ele>
        <time>2018-08-25T07:51:43Z</time>
      </trkpt>
      <trkpt lat="43.03567" lon="-0.06219">
        <ele>403.52</ele>
        <time>2018-08-25T07:51:50Z</time>
      </trkpt>
      <trkpt lat="43.0355" lon="-0.06208">
        <ele>402.82</ele>
        <time>2018-08-25T07:51:55Z</time>
      </trkpt>
      <trkpt lat="43.03531" lon="-0.06211">
        <ele>404.52</ele>
        <time>2018-08-25T07:52:03Z</time>
      </trkpt>
      <trkpt lat="43.03514" lon="-0.06198">
        <ele>404.22</ele>
        <time>2018-08-25T07:52:14Z</time>
      </trkpt>
      <trkpt lat="43.03498" lon="-0.06184">
        <ele>403.82</ele>
        <time>2018-08-25T07:52:21Z</time>
      </trkpt>
      <trkpt lat="43.03479" lon="-0.06178">
        <ele>403.45</ele>
        <time>2018-08-25T07:52:28Z</time>
      </trkpt>
      <trkpt lat="43.0346" lon="-0.06184">
        <ele>403.52</ele>
        <time>2018-08-25T07:52:34Z</time>
      </trkpt>
      <trkpt lat="43.03442" lon="-0.06187">
        <ele>403.52</ele>
        <time>2018-08-25T07:52:39Z</time>
      </trkpt>
      <trkpt lat="43.03437" lon="-0.06162">
        <ele>404.52</ele>
        <time>2018-08-25T07:52:52Z</time>
      </trkpt>
      <trkpt lat="43.03418" lon="-0.06158">
        <ele>405.52</ele>
        <time>2018-08-25T07:53:02Z</time>
      </trkpt>
      <trkpt lat="43.03398" lon="-0.0616">
        <ele>405.52</ele>
        <time>2018-08-25T07:53:07Z</time>
      </trkpt>
      <trkpt lat="43.03377" lon="-0.06165">
        <ele>404.55</ele>
        <time>2018-08-25T07:53:11Z</time>
      </trkpt>
      <trkpt lat="43.03355" lon="-0.06171">
        <ele>404.52</ele>
        <time>2018-08-25T07:53:15Z</time>
      </trkpt>
      <trkpt lat="43.03337" lon="-0.06176">
        <ele>405.43</ele>
        <time>2018-08-25T07:53:18Z</time>
      </trkpt>
      <trkpt lat="43.03318" lon="-0.06182">
        <ele>405.52</ele>
        <time>2018-08-25T07:53:21Z</time>
      </trkpt>
      <trkpt lat="43.033" lon="-0.06189">
        <ele>405.52</ele>
        <time>2018-08-25T07:53:24Z</time>
      </trkpt>
      <trkpt lat="43.03278" lon="-0.06196">
        <ele>405.52</ele>
        <time>2018-08-25T07:53:28Z</time>
      </trkpt>
      <trkpt lat="43.03259" lon="-0.06201">
        <ele>405.52</ele>
        <time>2018-08-25T07:53:31Z</time>
      </trkpt>
      <trkpt lat="43.03241" lon="-0.06207">
        <ele>405.52</ele>
        <time>2018-08-25T07:53:34Z</time>
      </trkpt>
      <trkpt lat="43.03223" lon="-0.06214">
        <ele>404.55</ele>
        <time>2018-08-25T07:53:37Z</time>
      </trkpt>
      <trkpt lat="43.03204" lon="-0.0622">
        <ele>404.52</ele>
        <time>2018-08-25T07:53:40Z</time>
      </trkpt>
      <trkpt lat="43.03186" lon="-0.06227">
        <ele>404.46</ele>
        <time>2018-08-25T07:53:43Z</time>
      </trkpt>
      <trkpt lat="43.03167" lon="-0.06232">
        <ele>404.52</ele>
        <time>2018-08-25T07:53:46Z</time>
      </trkpt>
      <trkpt lat="43.03149" lon="-0.06239">
        <ele>404.31</ele>
        <time>2018-08-25T07:53:49Z</time>
      </trkpt>
      <trkpt lat="43.0313" lon="-0.06246">
        <ele>404.52</ele>
        <time>2018-08-25T07:53:52Z</time>
      </trkpt>
      <trkpt lat="43.03112" lon="-0.06252">
        <ele>403.55</ele>
        <time>2018-08-25T07:53:55Z</time>
      </trkpt>
      <trkpt lat="43.03093" lon="-0.06258">
        <ele>404.43</ele>
        <time>2018-08-25T07:53:58Z</time>
      </trkpt>
      <trkpt lat="43.03075" lon="-0.06264">
        <ele>404.52</ele>
        <time>2018-08-25T07:54:01Z</time>
      </trkpt>
      <trkpt lat="43.03053" lon="-0.06271">
        <ele>404.52</ele>
        <time>2018-08-25T07:54:05Z</time>
      </trkpt>
      <trkpt lat="43.03033" lon="-0.06277">
        <ele>405.51</ele>
        <time>2018-08-25T07:54:09Z</time>
      </trkpt>
      <trkpt lat="43.03029" lon="-0.06304">
        <ele>406.52</ele>
        <time>2018-08-25T07:54:18Z</time>
      </trkpt>
      <trkpt lat="43.03017" lon="-0.06324">
        <ele>406.52</ele>
        <time>2018-08-25T07:54:25Z</time>
      </trkpt>
      <trkpt lat="43.03001" lon="-0.0634">
        <ele>407.52</ele>
        <time>2018-08-25T07:54:34Z</time>
      </trkpt>
      <trkpt lat="43.02982" lon="-0.06341">
        <ele>407.5</ele>
        <time>2018-08-25T07:54:41Z</time>
      </trkpt>
      <trkpt lat="43.02964" lon="-0.06347">
        <ele>406.61</ele>
        <time>2018-08-25T07:54:49Z</time>
      </trkpt>
      <trkpt lat="43.02946" lon="-0.06352">
        <ele>406.53</ele>
        <time>2018-08-25T07:54:57Z</time>
      </trkpt>
      <trkpt lat="43.02925" lon="-0.06354">
        <ele>406.52</ele>
        <time>2018-08-25T07:55:04Z</time>
      </trkpt>
      <trkpt lat="43.02905" lon="-0.06348">
        <ele>406.43</ele>
        <time>2018-08-25T07:55:13Z</time>
      </trkpt>
      <trkpt lat="43.02886" lon="-0.06357">
        <ele>406.52</ele>
        <time>2018-08-25T07:55:21Z</time>
      </trkpt>
      <trkpt lat="43.02867" lon="-0.0636">
        <ele>407.52</ele>
        <time>2018-08-25T07:55:28Z</time>
      </trkpt>
      <trkpt lat="43.02871" lon="-0.06387">
        <ele>408.52</ele>
        <time>2018-08-25T07:55:36Z</time>
      </trkpt>
      <trkpt lat="43.02872" lon="-0.06414">
        <ele>408.53</ele>
        <time>2018-08-25T07:55:43Z</time>
      </trkpt>
      <trkpt lat="43.02864" lon="-0.06438">
        <ele>409.51</ele>
        <time>2018-08-25T07:55:50Z</time>
      </trkpt>
      <trkpt lat="43.02854" lon="-0.06461">
        <ele>410.52</ele>
        <time>2018-08-25T07:55:57Z</time>
      </trkpt>
      <trkpt lat="43.02838" lon="-0.0648">
        <ele>410.52</ele>
        <time>2018-08-25T07:56:03Z</time>
      </trkpt>
      <trkpt lat="43.02829" lon="-0.06503">
        <ele>410.73</ele>
        <time>2018-08-25T07:56:09Z</time>
      </trkpt>
      <trkpt lat="43.02812" lon="-0.06518">
        <ele>409.82</ele>
        <time>2018-08-25T07:56:16Z</time>
      </trkpt>
      <trkpt lat="43.02795" lon="-0.0653">
        <ele>409.53</ele>
        <time>2018-08-25T07:56:23Z</time>
      </trkpt>
      <trkpt lat="43.02783" lon="-0.06554">
        <ele>409.52</ele>
        <time>2018-08-25T07:56:30Z</time>
      </trkpt>
      <trkpt lat="43.02768" lon="-0.06575">
        <ele>410.51</ele>
        <time>2018-08-25T07:56:35Z</time>
      </trkpt>
      <trkpt lat="43.02774" lon="-0.06604">
        <ele>410.61</ele>
        <time>2018-08-25T07:56:41Z</time>
      </trkpt>
      <trkpt lat="43.02781" lon="-0.06627">
        <ele>410.46</ele>
        <time>2018-08-25T07:56:45Z</time>
      </trkpt>
      <trkpt lat="43.02789" lon="-0.06655">
        <ele>411.49</ele>
        <time>2018-08-25T07:56:50Z</time>
      </trkpt>
      <trkpt lat="43.02776" lon="-0.06677">
        <ele>409.82</ele>
        <time>2018-08-25T07:56:56Z</time>
      </trkpt>
      <trkpt lat="43.02762" lon="-0.06696">
        <ele>410.52</ele>
        <time>2018-08-25T07:57:00Z</time>
      </trkpt>
      <trkpt lat="43.02751" lon="-0.06716">
        <ele>408.83</ele>
        <time>2018-08-25T07:57:04Z</time>
      </trkpt>
      <trkpt lat="43.02739" lon="-0.06738">
        <ele>407.61</ele>
        <time>2018-08-25T07:57:08Z</time>
      </trkpt>
      <trkpt lat="43.02729" lon="-0.06758">
        <ele>407.52</ele>
        <time>2018-08-25T07:57:12Z</time>
      </trkpt>
      <trkpt lat="43.0272" lon="-0.06779">
        <ele>407.52</ele>
        <time>2018-08-25T07:57:16Z</time>
      </trkpt>
      <trkpt lat="43.02708" lon="-0.06804">
        <ele>406.61</ele>
        <time>2018-08-25T07:57:21Z</time>
      </trkpt>
      <trkpt lat="43.02699" lon="-0.06825">
        <ele>406.52</ele>
        <time>2018-08-25T07:57:25Z</time>
      </trkpt>
      <trkpt lat="43.02692" lon="-0.06851">
        <ele>405.61</ele>
        <time>2018-08-25T07:57:29Z</time>
      </trkpt>
      <trkpt lat="43.0269" lon="-0.06876">
        <ele>406.51</ele>
        <time>2018-08-25T07:57:33Z</time>
      </trkpt>
      <trkpt lat="43.02691" lon="-0.06901">
        <ele>405.55</ele>
        <time>2018-08-25T07:57:37Z</time>
      </trkpt>
      <trkpt lat="43.02691" lon="-0.06926">
        <ele>405.52</ele>
        <time>2018-08-25T07:57:41Z</time>
      </trkpt>
      <trkpt lat="43.02688" lon="-0.06951">
        <ele>405.52</ele>
        <time>2018-08-25T07:57:45Z</time>
      </trkpt>
      <trkpt lat="43.0269" lon="-0.06975">
        <ele>406.43</ele>
        <time>2018-08-25T07:57:49Z</time>
      </trkpt>
      <trkpt lat="43.02696" lon="-0.07005">
        <ele>406.52</ele>
        <time>2018-08-25T07:57:54Z</time>
      </trkpt>
      <trkpt lat="43.02694" lon="-0.0703">
        <ele>406.52</ele>
        <time>2018-08-25T07:57:58Z</time>
      </trkpt>
      <trkpt lat="43.0269" lon="-0.07059">
        <ele>406.52</ele>
        <time>2018-08-25T07:58:03Z</time>
      </trkpt>
      <trkpt lat="43.0269" lon="-0.07084">
        <ele>407.22</ele>
        <time>2018-08-25T07:58:07Z</time>
      </trkpt>
      <trkpt lat="43.02696" lon="-0.07111">
        <ele>407.46</ele>
        <time>2018-08-25T07:58:12Z</time>
      </trkpt>
      <trkpt lat="43.0271" lon="-0.07134">
        <ele>407.52</ele>
        <time>2018-08-25T07:58:17Z</time>
      </trkpt>
      <trkpt lat="43.0272" lon="-0.07159">
        <ele>408.52</ele>
        <time>2018-08-25T07:58:22Z</time>
      </trkpt>
      <trkpt lat="43.02725" lon="-0.07184">
        <ele>408.31</ele>
        <time>2018-08-25T07:58:26Z</time>
      </trkpt>
      <trkpt lat="43.02731" lon="-0.07209">
        <ele>409.49</ele>
        <time>2018-08-25T07:58:30Z</time>
      </trkpt>
      <trkpt lat="43.02738" lon="-0.07238">
        <ele>407.85</ele>
        <time>2018-08-25T07:58:35Z</time>
      </trkpt>
      <trkpt lat="43.02725" lon="-0.07261">
        <ele>408.43</ele>
        <time>2018-08-25T07:58:40Z</time>
      </trkpt>
      <trkpt lat="43.02709" lon="-0.07273">
        <ele>408.52</ele>
        <time>2018-08-25T07:58:44Z</time>
      </trkpt>
      <trkpt lat="43.02691" lon="-0.07279">
        <ele>408.52</ele>
        <time>2018-08-25T07:58:48Z</time>
      </trkpt>
      <trkpt lat="43.02672" lon="-0.07288">
        <ele>409.51</ele>
        <time>2018-08-25T07:58:52Z</time>
      </trkpt>
      <trkpt lat="43.02654" lon="-0.07293">
        <ele>410.49</ele>
        <time>2018-08-25T07:58:56Z</time>
      </trkpt>
      <trkpt lat="43.02636" lon="-0.07299">
        <ele>411.43</ele>
        <time>2018-08-25T07:59:00Z</time>
      </trkpt>
      <trkpt lat="43.02618" lon="-0.07305">
        <ele>412.22</ele>
        <time>2018-08-25T07:59:04Z</time>
      </trkpt>
      <trkpt lat="43.02599" lon="-0.07314">
        <ele>412.52</ele>
        <time>2018-08-25T07:59:08Z</time>
      </trkpt>
      <trkpt lat="43.02581" lon="-0.07327">
        <ele>411.53</ele>
        <time>2018-08-25T07:59:12Z</time>
      </trkpt>
      <trkpt lat="43.02565" lon="-0.07348">
        <ele>411.5</ele>
        <time>2018-08-25T07:59:17Z</time>
      </trkpt>
      <trkpt lat="43.02554" lon="-0.07367">
        <ele>411.73</ele>
        <time>2018-08-25T07:59:21Z</time>
      </trkpt>
      <trkpt lat="43.02547" lon="-0.07392">
        <ele>411.52</ele>
        <time>2018-08-25T07:59:26Z</time>
      </trkpt>
      <trkpt lat="43.02561" lon="-0.07412">
        <ele>411.52</ele>
        <time>2018-08-25T07:59:32Z</time>
      </trkpt>
      <trkpt lat="43.02547" lon="-0.07389">
        <ele>411.61</ele>
        <time>2018-08-25T07:59:48Z</time>
      </trkpt>
      <trkpt lat="43.0253" lon="-0.07369">
        <ele>410.61</ele>
        <time>2018-08-25T07:59:52Z</time>
      </trkpt>
      <trkpt lat="43.02517" lon="-0.07351">
        <ele>411.22</ele>
        <time>2018-08-25T07:59:56Z</time>
      </trkpt>
      <trkpt lat="43.02508" lon="-0.07326">
        <ele>410.53</ele>
        <time>2018-08-25T08:00:01Z</time>
      </trkpt>
      <trkpt lat="43.02502" lon="-0.07301">
        <ele>409.53</ele>
        <time>2018-08-25T08:00:05Z</time>
      </trkpt>
      <trkpt lat="43.02501" lon="-0.07274">
        <ele>409.52</ele>
        <time>2018-08-25T08:00:09Z</time>
      </trkpt>
      <trkpt lat="43.02501" lon="-0.07246">
        <ele>409.52</ele>
        <time>2018-08-25T08:00:13Z</time>
      </trkpt>
      <trkpt lat="43.02499" lon="-0.07217">
        <ele>409.52</ele>
        <time>2018-08-25T08:00:17Z</time>
      </trkpt>
      <trkpt lat="43.02497" lon="-0.07187">
        <ele>408.55</ele>
        <time>2018-08-25T08:00:21Z</time>
      </trkpt>
      <trkpt lat="43.02489" lon="-0.07158">
        <ele>408.52</ele>
        <time>2018-08-25T08:00:25Z</time>
      </trkpt>
      <trkpt lat="43.02478" lon="-0.07131">
        <ele>407.82</ele>
        <time>2018-08-25T08:00:29Z</time>
      </trkpt>
      <trkpt lat="43.02473" lon="-0.07103">
        <ele>407.8</ele>
        <time>2018-08-25T08:00:33Z</time>
      </trkpt>
      <trkpt lat="43.02456" lon="-0.0709">
        <ele>408.52</ele>
        <time>2018-08-25T08:00:37Z</time>
      </trkpt>
      <trkpt lat="43.02436" lon="-0.07078">
        <ele>408.46</ele>
        <time>2018-08-25T08:00:41Z</time>
      </trkpt>
      <trkpt lat="43.02428" lon="-0.0705">
        <ele>408.52</ele>
        <time>2018-08-25T08:00:45Z</time>
      </trkpt>
      <trkpt lat="43.02422" lon="-0.0702">
        <ele>409.51</ele>
        <time>2018-08-25T08:00:49Z</time>
      </trkpt>
      <trkpt lat="43.02414" lon="-0.06992">
        <ele>410.51</ele>
        <time>2018-08-25T08:00:53Z</time>
      </trkpt>
      <trkpt lat="43.02409" lon="-0.06963">
        <ele>411.22</ele>
        <time>2018-08-25T08:00:57Z</time>
      </trkpt>
      <trkpt lat="43.02406" lon="-0.06936">
        <ele>411.52</ele>
        <time>2018-08-25T08:01:01Z</time>
      </trkpt>
      <trkpt lat="43.02402" lon="-0.06909">
        <ele>411.52</ele>
        <time>2018-08-25T08:01:05Z</time>
      </trkpt>
      <trkpt lat="43.02392" lon="-0.06885">
        <ele>411.58</ele>
        <time>2018-08-25T08:01:09Z</time>
      </trkpt>
      <trkpt lat="43.02374" lon="-0.06868">
        <ele>411.52</ele>
        <time>2018-08-25T08:01:13Z</time>
      </trkpt>
      <trkpt lat="43.0236" lon="-0.06849">
        <ele>411.5</ele>
        <time>2018-08-25T08:01:17Z</time>
      </trkpt>
      <trkpt lat="43.02349" lon="-0.06826">
        <ele>411.52</ele>
        <time>2018-08-25T08:01:21Z</time>
      </trkpt>
      <trkpt lat="43.02349" lon="-0.06798">
        <ele>412.51</ele>
        <time>2018-08-25T08:01:25Z</time>
      </trkpt>
      <trkpt lat="43.02353" lon="-0.0677">
        <ele>413.49</ele>
        <time>2018-08-25T08:01:29Z</time>
      </trkpt>
      <trkpt lat="43.02355" lon="-0.06744">
        <ele>414.51</ele>
        <time>2018-08-25T08:01:33Z</time>
      </trkpt>
      <trkpt lat="43.0236" lon="-0.06717">
        <ele>415.49</ele>
        <time>2018-08-25T08:01:37Z</time>
      </trkpt>
      <trkpt lat="43.02367" lon="-0.06689">
        <ele>416.28</ele>
        <time>2018-08-25T08:01:41Z</time>
      </trkpt>
      <trkpt lat="43.02369" lon="-0.06663">
        <ele>417.22</ele>
        <time>2018-08-25T08:01:45Z</time>
      </trkpt>
      <trkpt lat="43.02348" lon="-0.06654">
        <ele>417.81</ele>
        <time>2018-08-25T08:01:50Z</time>
      </trkpt>
      <trkpt lat="43.0233" lon="-0.06657">
        <ele>416.62</ele>
        <time>2018-08-25T08:01:53Z</time>
      </trkpt>
      <trkpt lat="43.02313" lon="-0.06665">
        <ele>416.52</ele>
        <time>2018-08-25T08:01:56Z</time>
      </trkpt>
      <trkpt lat="43.02298" lon="-0.06682">
        <ele>416.52</ele>
        <time>2018-08-25T08:01:59Z</time>
      </trkpt>
      <trkpt lat="43.0228" lon="-0.06691">
        <ele>416.52</ele>
        <time>2018-08-25T08:02:02Z</time>
      </trkpt>
      <trkpt lat="43.02261" lon="-0.06689">
        <ele>416.58</ele>
        <time>2018-08-25T08:02:05Z</time>
      </trkpt>
      <trkpt lat="43.02241" lon="-0.06693">
        <ele>415.82</ele>
        <time>2018-08-25T08:02:08Z</time>
      </trkpt>
      <trkpt lat="43.02221" lon="-0.06695">
        <ele>415.8</ele>
        <time>2018-08-25T08:02:11Z</time>
      </trkpt>
      <trkpt lat="43.02203" lon="-0.06697">
        <ele>415.53</ele>
        <time>2018-08-25T08:02:14Z</time>
      </trkpt>
      <trkpt lat="43.02184" lon="-0.06699">
        <ele>416.5</ele>
        <time>2018-08-25T08:02:17Z</time>
      </trkpt>
      <trkpt lat="43.02165" lon="-0.06702">
        <ele>417.49</ele>
        <time>2018-08-25T08:02:20Z</time>
      </trkpt>
      <trkpt lat="43.02146" lon="-0.06705">
        <ele>418.22</ele>
        <time>2018-08-25T08:02:23Z</time>
      </trkpt>
      <trkpt lat="43.02128" lon="-0.06707">
        <ele>419.21</ele>
        <time>2018-08-25T08:02:26Z</time>
      </trkpt>
      <trkpt lat="43.02106" lon="-0.06708">
        <ele>419.52</ele>
        <time>2018-08-25T08:02:30Z</time>
      </trkpt>
      <trkpt lat="43.02085" lon="-0.06707">
        <ele>420.49</ele>
        <time>2018-08-25T08:02:34Z</time>
      </trkpt>
      <trkpt lat="43.02064" lon="-0.06715">
        <ele>421.49</ele>
        <time>2018-08-25T08:02:38Z</time>
      </trkpt>
      <trkpt lat="43.02045" lon="-0.06721">
        <ele>422.51</ele>
        <time>2018-08-25T08:02:42Z</time>
      </trkpt>
      <trkpt lat="43.02024" lon="-0.06723">
        <ele>423.22</ele>
        <time>2018-08-25T08:02:46Z</time>
      </trkpt>
      <trkpt lat="43.02003" lon="-0.06722">
        <ele>423.52</ele>
        <time>2018-08-25T08:02:50Z</time>
      </trkpt>
      <trkpt lat="43.01982" lon="-0.06717">
        <ele>424.45</ele>
        <time>2018-08-25T08:02:54Z</time>
      </trkpt>
      <trkpt lat="43.01971" lon="-0.06741">
        <ele>425.43</ele>
        <time>2018-08-25T08:02:59Z</time>
      </trkpt>
      <trkpt lat="43.01967" lon="-0.0677">
        <ele>425.52</ele>
        <time>2018-08-25T08:03:03Z</time>
      </trkpt>
      <trkpt lat="43.01959" lon="-0.068">
        <ele>426.51</ele>
        <time>2018-08-25T08:03:07Z</time>
      </trkpt>
      <trkpt lat="43.01945" lon="-0.06819">
        <ele>425.82</ele>
        <time>2018-08-25T08:03:10Z</time>
      </trkpt>
      <trkpt lat="43.0193" lon="-0.06833">
        <ele>426.23</ele>
        <time>2018-08-25T08:03:13Z</time>
      </trkpt>
      <trkpt lat="43.01911" lon="-0.06848">
        <ele>426.46</ele>
        <time>2018-08-25T08:03:17Z</time>
      </trkpt>
      <trkpt lat="43.01891" lon="-0.06863">
        <ele>426.52</ele>
        <time>2018-08-25T08:03:21Z</time>
      </trkpt>
      <trkpt lat="43.01872" lon="-0.06878">
        <ele>427.45</ele>
        <time>2018-08-25T08:03:25Z</time>
      </trkpt>
      <trkpt lat="43.01859" lon="-0.06902">
        <ele>428.22</ele>
        <time>2018-08-25T08:03:29Z</time>
      </trkpt>
      <trkpt lat="43.01849" lon="-0.0693">
        <ele>427.82</ele>
        <time>2018-08-25T08:03:33Z</time>
      </trkpt>
      <trkpt lat="43.01833" lon="-0.06953">
        <ele>428.5</ele>
        <time>2018-08-25T08:03:37Z</time>
      </trkpt>
      <trkpt lat="43.01825" lon="-0.06979">
        <ele>428.52</ele>
        <time>2018-08-25T08:03:41Z</time>
      </trkpt>
      <trkpt lat="43.01842" lon="-0.06995">
        <ele>429.51</ele>
        <time>2018-08-25T08:03:46Z</time>
      </trkpt>
      <trkpt lat="43.01859" lon="-0.07015">
        <ele>430.43</ele>
        <time>2018-08-25T08:03:52Z</time>
      </trkpt>
      <trkpt lat="43.01871" lon="-0.07034">
        <ele>432.19</ele>
        <time>2018-08-25T08:03:57Z</time>
      </trkpt>
      <trkpt lat="43.01872" lon="-0.07059">
        <ele>433.22</ele>
        <time>2018-08-25T08:04:02Z</time>
      </trkpt>
      <trkpt lat="43.01872" lon="-0.07084">
        <ele>434.49</ele>
        <time>2018-08-25T08:04:07Z</time>
      </trkpt>
      <trkpt lat="43.01874" lon="-0.0711">
        <ele>436.43</ele>
        <time>2018-08-25T08:04:12Z</time>
      </trkpt>
      <trkpt lat="43.01877" lon="-0.07135">
        <ele>437.49</ele>
        <time>2018-08-25T08:04:17Z</time>
      </trkpt>
      <trkpt lat="43.01882" lon="-0.07159">
        <ele>439.21</ele>
        <time>2018-08-25T08:04:22Z</time>
      </trkpt>
      <trkpt lat="43.01881" lon="-0.07185">
        <ele>440.22</ele>
        <time>2018-08-25T08:04:27Z</time>
      </trkpt>
      <trkpt lat="43.01866" lon="-0.07203">
        <ele>441.51</ele>
        <time>2018-08-25T08:04:32Z</time>
      </trkpt>
      <trkpt lat="43.01847" lon="-0.0721">
        <ele>444.19</ele>
        <time>2018-08-25T08:04:37Z</time>
      </trkpt>
      <trkpt lat="43.01836" lon="-0.07233">
        <ele>445.43</ele>
        <time>2018-08-25T08:04:42Z</time>
      </trkpt>
      <trkpt lat="43.0183" lon="-0.07259">
        <ele>446.43</ele>
        <time>2018-08-25T08:04:47Z</time>
      </trkpt>
      <trkpt lat="43.0182" lon="-0.07281">
        <ele>447.22</ele>
        <time>2018-08-25T08:04:52Z</time>
      </trkpt>
      <trkpt lat="43.0181" lon="-0.07301">
        <ele>448.43</ele>
        <time>2018-08-25T08:04:57Z</time>
      </trkpt>
      <trkpt lat="43.01799" lon="-0.07323">
        <ele>449.49</ele>
        <time>2018-08-25T08:05:03Z</time>
      </trkpt>
      <trkpt lat="43.01787" lon="-0.07344">
        <ele>450.22</ele>
        <time>2018-08-25T08:05:09Z</time>
      </trkpt>
      <trkpt lat="43.01775" lon="-0.07367">
        <ele>451.49</ele>
        <time>2018-08-25T08:05:15Z</time>
      </trkpt>
      <trkpt lat="43.01762" lon="-0.07386">
        <ele>452.49</ele>
        <time>2018-08-25T08:05:21Z</time>
      </trkpt>
      <trkpt lat="43.01747" lon="-0.07402">
        <ele>454.43</ele>
        <time>2018-08-25T08:05:27Z</time>
      </trkpt>
      <trkpt lat="43.0173" lon="-0.07415">
        <ele>456.43</ele>
        <time>2018-08-25T08:05:33Z</time>
      </trkpt>
      <trkpt lat="43.01713" lon="-0.07424">
        <ele>459.19</ele>
        <time>2018-08-25T08:05:39Z</time>
      </trkpt>
      <trkpt lat="43.01696" lon="-0.07434">
        <ele>460.51</ele>
        <time>2018-08-25T08:05:45Z</time>
      </trkpt>
      <trkpt lat="43.01714" lon="-0.07438">
        <ele>464.49</ele>
        <time>2018-08-25T08:06:02Z</time>
      </trkpt>
      <trkpt lat="43.01733" lon="-0.07439">
        <ele>467.43</ele>
        <time>2018-08-25T08:06:10Z</time>
      </trkpt>
      <trkpt lat="43.01753" lon="-0.07437">
        <ele>469.2</ele>
        <time>2018-08-25T08:06:18Z</time>
      </trkpt>
      <trkpt lat="43.01772" lon="-0.07436">
        <ele>471.52</ele>
        <time>2018-08-25T08:06:26Z</time>
      </trkpt>
      <trkpt lat="43.01791" lon="-0.07432">
        <ele>473.51</ele>
        <time>2018-08-25T08:06:34Z</time>
      </trkpt>
      <trkpt lat="43.0181" lon="-0.07425">
        <ele>476.49</ele>
        <time>2018-08-25T08:06:41Z</time>
      </trkpt>
      <trkpt lat="43.01829" lon="-0.07417">
        <ele>478.51</ele>
        <time>2018-08-25T08:06:49Z</time>
      </trkpt>
      <trkpt lat="43.01847" lon="-0.07409">
        <ele>480.43</ele>
        <time>2018-08-25T08:06:57Z</time>
      </trkpt>
      <trkpt lat="43.01867" lon="-0.07406">
        <ele>481.51</ele>
        <time>2018-08-25T08:07:04Z</time>
      </trkpt>
      <trkpt lat="43.01886" lon="-0.07411">
        <ele>484.19</ele>
        <time>2018-08-25T08:07:12Z</time>
      </trkpt>
      <trkpt lat="43.01902" lon="-0.07426">
        <ele>487.19</ele>
        <time>2018-08-25T08:07:18Z</time>
      </trkpt>
      <trkpt lat="43.01915" lon="-0.07446">
        <ele>492.12</ele>
        <time>2018-08-25T08:07:25Z</time>
      </trkpt>
      <trkpt lat="43.01926" lon="-0.07467">
        <ele>496.4</ele>
        <time>2018-08-25T08:07:33Z</time>
      </trkpt>
      <trkpt lat="43.01938" lon="-0.07486">
        <ele>500.12</ele>
        <time>2018-08-25T08:07:41Z</time>
      </trkpt>
      <trkpt lat="43.01956" lon="-0.075">
        <ele>504.42</ele>
        <time>2018-08-25T08:07:50Z</time>
      </trkpt>
      <trkpt lat="43.0197" lon="-0.07517">
        <ele>506.22</ele>
        <time>2018-08-25T08:07:58Z</time>
      </trkpt>
      <trkpt lat="43.01986" lon="-0.07532">
        <ele>508.51</ele>
        <time>2018-08-25T08:08:06Z</time>
      </trkpt>
      <trkpt lat="43.01967" lon="-0.07528">
        <ele>511.43</ele>
        <time>2018-08-25T08:08:26Z</time>
      </trkpt>
      <trkpt lat="43.01951" lon="-0.07516">
        <ele>512.22</ele>
        <time>2018-08-25T08:08:35Z</time>
      </trkpt>
      <trkpt lat="43.01934" lon="-0.07502">
        <ele>513.22</ele>
        <time>2018-08-25T08:08:43Z</time>
      </trkpt>
      <trkpt lat="43.01918" lon="-0.07491">
        <ele>513.52</ele>
        <time>2018-08-25T08:08:53Z</time>
      </trkpt>
      <trkpt lat="43.01903" lon="-0.07473">
        <ele>515.6</ele>
        <time>2018-08-25T08:09:16Z</time>
      </trkpt>
      <trkpt lat="43.01885" lon="-0.07463">
        <ele>518.82</ele>
        <time>2018-08-25T08:09:48Z</time>
      </trkpt>
      <trkpt lat="43.01865" lon="-0.07465">
        <ele>520.52</ele>
        <time>2018-08-25T08:09:57Z</time>
      </trkpt>
      <trkpt lat="43.01846" lon="-0.07475">
        <ele>520.43</ele>
        <time>2018-08-25T08:10:04Z</time>
      </trkpt>
      <trkpt lat="43.01828" lon="-0.07477">
        <ele>521.52</ele>
        <time>2018-08-25T08:10:39Z</time>
      </trkpt>
      <trkpt lat="43.01811" lon="-0.07489">
        <ele>521.5</ele>
        <time>2018-08-25T08:11:08Z</time>
      </trkpt>
      <trkpt lat="43.01795" lon="-0.07501">
        <ele>522.52</ele>
        <time>2018-08-25T08:11:18Z</time>
      </trkpt>
      <trkpt lat="43.01777" lon="-0.07503">
        <ele>523.43</ele>
        <time>2018-08-25T08:11:40Z</time>
      </trkpt>
      <trkpt lat="43.01758" lon="-0.07511">
        <ele>523.51</ele>
        <time>2018-08-25T08:11:47Z</time>
      </trkpt>
      <trkpt lat="43.0174" lon="-0.07523">
        <ele>522.82</ele>
        <time>2018-08-25T08:11:53Z</time>
      </trkpt>
      <trkpt lat="43.01723" lon="-0.0754">
        <ele>521.61</ele>
        <time>2018-08-25T08:11:59Z</time>
      </trkpt>
      <trkpt lat="43.01707" lon="-0.07553">
        <ele>522.52</ele>
        <time>2018-08-25T08:12:05Z</time>
      </trkpt>
      <trkpt lat="43.0169" lon="-0.07566">
        <ele>523.43</ele>
        <time>2018-08-25T08:12:12Z</time>
      </trkpt>
      <trkpt lat="43.01684" lon="-0.07591">
        <ele>523.52</ele>
        <time>2018-08-25T08:12:19Z</time>
      </trkpt>
      <trkpt lat="43.0167" lon="-0.07606">
        <ele>523.52</ele>
        <time>2018-08-25T08:12:25Z</time>
      </trkpt>
      <trkpt lat="43.01657" lon="-0.07626">
        <ele>523.52</ele>
        <time>2018-08-25T08:12:30Z</time>
      </trkpt>
      <trkpt lat="43.01645" lon="-0.07645">
        <ele>524.52</ele>
        <time>2018-08-25T08:12:37Z</time>
      </trkpt>
      <trkpt lat="43.01663" lon="-0.07647">
        <ele>527.43</ele>
        <time>2018-08-25T08:12:47Z</time>
      </trkpt>
      <trkpt lat="43.01661" lon="-0.07673">
        <ele>530.49</ele>
        <time>2018-08-25T08:13:07Z</time>
      </trkpt>
      <trkpt lat="43.01657" lon="-0.07698">
        <ele>534.21</ele>
        <time>2018-08-25T08:13:20Z</time>
      </trkpt>
      <trkpt lat="43.01661" lon="-0.07724">
        <ele>538.49</ele>
        <time>2018-08-25T08:13:30Z</time>
      </trkpt>
      <trkpt lat="43.01658" lon="-0.07748">
        <ele>545.19</ele>
        <time>2018-08-25T08:13:40Z</time>
      </trkpt>
      <trkpt lat="43.01646" lon="-0.07769">
        <ele>549.19</ele>
        <time>2018-08-25T08:13:48Z</time>
      </trkpt>
      <trkpt lat="43.01634" lon="-0.07788">
        <ele>553.49</ele>
        <time>2018-08-25T08:13:57Z</time>
      </trkpt>
      <trkpt lat="43.01617" lon="-0.07801">
        <ele>554.51</ele>
        <time>2018-08-25T08:14:06Z</time>
      </trkpt>
      <trkpt lat="43.01605" lon="-0.07822">
        <ele>555.52</ele>
        <time>2018-08-25T08:14:14Z</time>
      </trkpt>
      <trkpt lat="43.01604" lon="-0.07847">
        <ele>554.61</ele>
        <time>2018-08-25T08:14:21Z</time>
      </trkpt>
      <trkpt lat="43.01607" lon="-0.07873">
        <ele>555.52</ele>
        <time>2018-08-25T08:14:29Z</time>
      </trkpt>
      <trkpt lat="43.01609" lon="-0.079">
        <ele>556.43</ele>
        <time>2018-08-25T08:14:37Z</time>
      </trkpt>
      <trkpt lat="43.01607" lon="-0.07925">
        <ele>557.52</ele>
        <time>2018-08-25T08:14:45Z</time>
      </trkpt>
      <trkpt lat="43.01615" lon="-0.07948">
        <ele>559.2</ele>
        <time>2018-08-25T08:14:52Z</time>
      </trkpt>
      <trkpt lat="43.01626" lon="-0.07969">
        <ele>560.49</ele>
        <time>2018-08-25T08:14:59Z</time>
      </trkpt>
      <trkpt lat="43.01634" lon="-0.07994">
        <ele>562.43</ele>
        <time>2018-08-25T08:15:07Z</time>
      </trkpt>
      <trkpt lat="43.01644" lon="-0.08019">
        <ele>564.51</ele>
        <time>2018-08-25T08:15:15Z</time>
      </trkpt>
      <trkpt lat="43.01657" lon="-0.08041">
        <ele>565.52</ele>
        <time>2018-08-25T08:15:22Z</time>
      </trkpt>
      <trkpt lat="43.01667" lon="-0.08062">
        <ele>567.52</ele>
        <time>2018-08-25T08:15:28Z</time>
      </trkpt>
      <trkpt lat="43.01681" lon="-0.08081">
        <ele>569.51</ele>
        <time>2018-08-25T08:15:35Z</time>
      </trkpt>
      <trkpt lat="43.01697" lon="-0.08096">
        <ele>574.13</ele>
        <time>2018-08-25T08:15:43Z</time>
      </trkpt>
      <trkpt lat="43.01716" lon="-0.08098">
        <ele>575.22</ele>
        <time>2018-08-25T08:15:51Z</time>
      </trkpt>
      <trkpt lat="43.01723" lon="-0.08074">
        <ele>575.61</ele>
        <time>2018-08-25T08:15:58Z</time>
      </trkpt>
      <trkpt lat="43.0173" lon="-0.08052">
        <ele>576.51</ele>
        <time>2018-08-25T08:16:05Z</time>
      </trkpt>
      <trkpt lat="43.01745" lon="-0.08036">
        <ele>579.19</ele>
        <time>2018-08-25T08:16:12Z</time>
      </trkpt>
      <trkpt lat="43.01755" lon="-0.08015">
        <ele>579.52</ele>
        <time>2018-08-25T08:16:19Z</time>
      </trkpt>
      <trkpt lat="43.01765" lon="-0.07992">
        <ele>581.49</ele>
        <time>2018-08-25T08:16:27Z</time>
      </trkpt>
      <trkpt lat="43.01748" lon="-0.08003">
        <ele>583.52</ele>
        <time>2018-08-25T08:16:41Z</time>
      </trkpt>
      <trkpt lat="43.01731" lon="-0.08014">
        <ele>583.52</ele>
        <time>2018-08-25T08:16:50Z</time>
      </trkpt>
      <trkpt lat="43.01736" lon="-0.0799">
        <ele>586.51</ele>
        <time>2018-08-25T08:17:04Z</time>
      </trkpt>
      <trkpt lat="43.01722" lon="-0.07972">
        <ele>589.21</ele>
        <time>2018-08-25T08:17:14Z</time>
      </trkpt>
      <trkpt lat="43.01731" lon="-0.07951">
        <ele>591.51</ele>
        <time>2018-08-25T08:17:31Z</time>
      </trkpt>
      <trkpt lat="43.01749" lon="-0.07938">
        <ele>589.61</ele>
        <time>2018-08-25T08:17:39Z</time>
      </trkpt>
      <trkpt lat="43.01759" lon="-0.07917">
        <ele>590.22</ele>
        <time>2018-08-25T08:17:45Z</time>
      </trkpt>
      <trkpt lat="43.01768" lon="-0.07895">
        <ele>590.52</ele>
        <time>2018-08-25T08:17:54Z</time>
      </trkpt>
      <trkpt lat="43.0178" lon="-0.07873">
        <ele>588.59</ele>
        <time>2018-08-25T08:18:04Z</time>
      </trkpt>
      <trkpt lat="43.01799" lon="-0.07861">
        <ele>581.92</ele>
        <time>2018-08-25T08:18:27Z</time>
      </trkpt>
      <trkpt lat="43.01809" lon="-0.07838">
        <ele>580.62</ele>
        <time>2018-08-25T08:18:31Z</time>
      </trkpt>
      <trkpt lat="43.01815" lon="-0.07811">
        <ele>579.53</ele>
        <time>2018-08-25T08:18:37Z</time>
      </trkpt>
      <trkpt lat="43.01834" lon="-0.07818">
        <ele>576.82</ele>
        <time>2018-08-25T08:19:53Z</time>
      </trkpt>
      <trkpt lat="43.01841" lon="-0.07844">
        <ele>575.61</ele>
        <time>2018-08-25T08:19:59Z</time>
      </trkpt>
      <trkpt lat="43.01832" lon="-0.07869">
        <ele>573.91</ele>
        <time>2018-08-25T08:20:05Z</time>
      </trkpt>
      <trkpt lat="43.01827" lon="-0.07894">
        <ele>573.52</ele>
        <time>2018-08-25T08:20:10Z</time>
      </trkpt>
      <trkpt lat="43.01825" lon="-0.07922">
        <ele>572.53</ele>
        <time>2018-08-25T08:20:16Z</time>
      </trkpt>
      <trkpt lat="43.01829" lon="-0.07948">
        <ele>570.82</ele>
        <time>2018-08-25T08:20:22Z</time>
      </trkpt>
      <trkpt lat="43.0184" lon="-0.0797">
        <ele>568.61</ele>
        <time>2018-08-25T08:20:28Z</time>
      </trkpt>
      <trkpt lat="43.01821" lon="-0.07979">
        <ele>565.62</ele>
        <time>2018-08-25T08:20:35Z</time>
      </trkpt>
      <trkpt lat="43.01822" lon="-0.08006">
        <ele>563.49</ele>
        <time>2018-08-25T08:20:43Z</time>
      </trkpt>
      <trkpt lat="43.01835" lon="-0.08026">
        <ele>561.82</ele>
        <time>2018-08-25T08:20:49Z</time>
      </trkpt>
      <trkpt lat="43.01847" lon="-0.08049">
        <ele>558.62</ele>
        <time>2018-08-25T08:20:56Z</time>
      </trkpt>
      <trkpt lat="43.01845" lon="-0.08075">
        <ele>550.64</ele>
        <time>2018-08-25T08:21:14Z</time>
      </trkpt>
      <trkpt lat="43.01827" lon="-0.0808">
        <ele>546.64</ele>
        <time>2018-08-25T08:21:20Z</time>
      </trkpt>
      <trkpt lat="43.01814" lon="-0.081">
        <ele>541.65</ele>
        <time>2018-08-25T08:21:29Z</time>
      </trkpt>
      <trkpt lat="43.01807" lon="-0.08124">
        <ele>536.92</ele>
        <time>2018-08-25T08:21:37Z</time>
      </trkpt>
      <trkpt lat="43.01793" lon="-0.08141">
        <ele>533.62</ele>
        <time>2018-08-25T08:21:44Z</time>
      </trkpt>
      <trkpt lat="43.0178" lon="-0.08164">
        <ele>530.55</ele>
        <time>2018-08-25T08:21:50Z</time>
      </trkpt>
      <trkpt lat="43.01778" lon="-0.08189">
        <ele>527.85</ele>
        <time>2018-08-25T08:21:56Z</time>
      </trkpt>
      <trkpt lat="43.01777" lon="-0.08217">
        <ele>526.61</ele>
        <time>2018-08-25T08:22:01Z</time>
      </trkpt>
      <trkpt lat="43.01774" lon="-0.08244">
        <ele>523.85</ele>
        <time>2018-08-25T08:22:07Z</time>
      </trkpt>
      <trkpt lat="43.01762" lon="-0.08265">
        <ele>520.62</ele>
        <time>2018-08-25T08:22:13Z</time>
      </trkpt>
      <trkpt lat="43.01755" lon="-0.08289">
        <ele>504.85</ele>
        <time>2018-08-25T08:22:38Z</time>
      </trkpt>
      <trkpt lat="43.0174" lon="-0.08304">
        <ele>503.55</ele>
        <time>2018-08-25T08:22:42Z</time>
      </trkpt>
      <trkpt lat="43.01725" lon="-0.08318">
        <ele>501.64</ele>
        <time>2018-08-25T08:22:46Z</time>
      </trkpt>
      <trkpt lat="43.01705" lon="-0.08323">
        <ele>500.55</ele>
        <time>2018-08-25T08:22:51Z</time>
      </trkpt>
      <trkpt lat="43.01685" lon="-0.08322">
        <ele>499.61</ele>
        <time>2018-08-25T08:22:57Z</time>
      </trkpt>
      <trkpt lat="43.01663" lon="-0.0832">
        <ele>497.85</ele>
        <time>2018-08-25T08:23:01Z</time>
      </trkpt>
      <trkpt lat="43.01642" lon="-0.08321">
        <ele>495.85</ele>
        <time>2018-08-25T08:23:05Z</time>
      </trkpt>
      <trkpt lat="43.01624" lon="-0.08337">
        <ele>494.82</ele>
        <time>2018-08-25T08:23:10Z</time>
      </trkpt>
      <trkpt lat="43.01608" lon="-0.08354">
        <ele>492.85</ele>
        <time>2018-08-25T08:23:16Z</time>
      </trkpt>
      <trkpt lat="43.01586" lon="-0.08365">
        <ele>490.64</ele>
        <time>2018-08-25T08:23:21Z</time>
      </trkpt>
      <trkpt lat="43.01567" lon="-0.0838">
        <ele>489.53</ele>
        <time>2018-08-25T08:23:26Z</time>
      </trkpt>
      <trkpt lat="43.01547" lon="-0.08395">
        <ele>488.55</ele>
        <time>2018-08-25T08:23:30Z</time>
      </trkpt>
      <trkpt lat="43.01529" lon="-0.08402">
        <ele>476.61</ele>
        <time>2018-08-25T08:23:59Z</time>
      </trkpt>
      <trkpt lat="43.01511" lon="-0.08401">
        <ele>476.81</ele>
        <time>2018-08-25T08:24:05Z</time>
      </trkpt>
      <trkpt lat="43.01492" lon="-0.08392">
        <ele>475.53</ele>
        <time>2018-08-25T08:24:13Z</time>
      </trkpt>
      <trkpt lat="43.01476" lon="-0.08381">
        <ele>473.76</ele>
        <time>2018-08-25T08:24:21Z</time>
      </trkpt>
      <trkpt lat="43.01458" lon="-0.0837">
        <ele>472.82</ele>
        <time>2018-08-25T08:24:30Z</time>
      </trkpt>
      <trkpt lat="43.01443" lon="-0.08356">
        <ele>472.52</ele>
        <time>2018-08-25T08:24:38Z</time>
      </trkpt>
      <trkpt lat="43.01427" lon="-0.08341">
        <ele>472.52</ele>
        <time>2018-08-25T08:24:47Z</time>
      </trkpt>
      <trkpt lat="43.01414" lon="-0.08324">
        <ele>472.52</ele>
        <time>2018-08-25T08:24:55Z</time>
      </trkpt>
      <trkpt lat="43.01398" lon="-0.08307">
        <ele>473.52</ele>
        <time>2018-08-25T08:25:04Z</time>
      </trkpt>
      <trkpt lat="43.01382" lon="-0.08292">
        <ele>473.52</ele>
        <time>2018-08-25T08:25:12Z</time>
      </trkpt>
      <trkpt lat="43.01368" lon="-0.08275">
        <ele>476.4</ele>
        <time>2018-08-25T08:25:22Z</time>
      </trkpt>
      <trkpt lat="43.01355" lon="-0.08256">
        <ele>480.4</ele>
        <time>2018-08-25T08:25:33Z</time>
      </trkpt>
      <trkpt lat="43.01344" lon="-0.08234">
        <ele>484.42</ele>
        <time>2018-08-25T08:25:42Z</time>
      </trkpt>
      <trkpt lat="43.01333" lon="-0.08214">
        <ele>487.49</ele>
        <time>2018-08-25T08:25:51Z</time>
      </trkpt>
      <trkpt lat="43.01322" lon="-0.08195">
        <ele>488.52</ele>
        <time>2018-08-25T08:25:59Z</time>
      </trkpt>
      <trkpt lat="43.01311" lon="-0.08174">
        <ele>490.82</ele>
        <time>2018-08-25T08:26:09Z</time>
      </trkpt>
      <trkpt lat="43.01308" lon="-0.08148">
        <ele>494.4</ele>
        <time>2018-08-25T08:26:19Z</time>
      </trkpt>
      <trkpt lat="43.01306" lon="-0.08123">
        <ele>499.51</ele>
        <time>2018-08-25T08:26:29Z</time>
      </trkpt>
      <trkpt lat="43.01306" lon="-0.08096">
        <ele>504.13</ele>
        <time>2018-08-25T08:26:39Z</time>
      </trkpt>
      <trkpt lat="43.01311" lon="-0.08072">
        <ele>505.52</ele>
        <time>2018-08-25T08:26:47Z</time>
      </trkpt>
      <trkpt lat="43.01316" lon="-0.08048">
        <ele>508.49</ele>
        <time>2018-08-25T08:26:56Z</time>
      </trkpt>
      <trkpt lat="43.01313" lon="-0.08024">
        <ele>510.52</ele>
        <time>2018-08-25T08:27:06Z</time>
      </trkpt>
      <trkpt lat="43.01319" lon="-0.07994">
        <ele>512.53</ele>
        <time>2018-08-25T08:27:13Z</time>
      </trkpt>
      <trkpt lat="43.01324" lon="-0.07963">
        <ele>508.95</ele>
        <time>2018-08-25T08:27:17Z</time>
      </trkpt>
      <trkpt lat="43.01314" lon="-0.0794">
        <ele>509.29</ele>
        <time>2018-08-25T08:27:21Z</time>
      </trkpt>
      <trkpt lat="43.01319" lon="-0.07907">
        <ele>510.84</ele>
        <time>2018-08-25T08:27:27Z</time>
      </trkpt>
      <trkpt lat="43.01336" lon="-0.0789">
        <ele>511.9</ele>
        <time>2018-08-25T08:27:32Z</time>
      </trkpt>
      <trkpt lat="43.01356" lon="-0.07881">
        <ele>509.64</ele>
        <time>2018-08-25T08:27:36Z</time>
      </trkpt>
      <trkpt lat="43.01343" lon="-0.07858">
        <ele>504.04</ele>
        <time>2018-08-25T08:27:43Z</time>
      </trkpt>
      <trkpt lat="43.01325" lon="-0.07847">
        <ele>499.95</ele>
        <time>2018-08-25T08:27:47Z</time>
      </trkpt>
      <trkpt lat="43.01308" lon="-0.07838">
        <ele>498.62</ele>
        <time>2018-08-25T08:27:50Z</time>
      </trkpt>
      <trkpt lat="43.01288" lon="-0.07828">
        <ele>495.94</ele>
        <time>2018-08-25T08:27:53Z</time>
      </trkpt>
      <trkpt lat="43.01264" lon="-0.07818">
        <ele>493.92</ele>
        <time>2018-08-25T08:27:56Z</time>
      </trkpt>
      <trkpt lat="43.01243" lon="-0.07799">
        <ele>490.95</ele>
        <time>2018-08-25T08:27:59Z</time>
      </trkpt>
      <trkpt lat="43.01227" lon="-0.07775">
        <ele>489.83</ele>
        <time>2018-08-25T08:28:02Z</time>
      </trkpt>
      <trkpt lat="43.01207" lon="-0.07761">
        <ele>490.23</ele>
        <time>2018-08-25T08:28:05Z</time>
      </trkpt>
      <trkpt lat="43.01191" lon="-0.07751">
        <ele>492.4</ele>
        <time>2018-08-25T08:28:08Z</time>
      </trkpt>
      <trkpt lat="43.01169" lon="-0.07745">
        <ele>493.72</ele>
        <time>2018-08-25T08:28:12Z</time>
      </trkpt>
      <trkpt lat="43.01148" lon="-0.07739">
        <ele>494.43</ele>
        <time>2018-08-25T08:28:16Z</time>
      </trkpt>
      <trkpt lat="43.01125" lon="-0.0774">
        <ele>495.51</ele>
        <time>2018-08-25T08:28:20Z</time>
      </trkpt>
      <trkpt lat="43.01104" lon="-0.07749">
        <ele>496.22</ele>
        <time>2018-08-25T08:28:24Z</time>
      </trkpt>
      <trkpt lat="43.01084" lon="-0.07759">
        <ele>496.5</ele>
        <time>2018-08-25T08:28:28Z</time>
      </trkpt>
      <trkpt lat="43.01064" lon="-0.07764">
        <ele>495.61</ele>
        <time>2018-08-25T08:28:32Z</time>
      </trkpt>
      <trkpt lat="43.0104" lon="-0.07759">
        <ele>493.83</ele>
        <time>2018-08-25T08:28:36Z</time>
      </trkpt>
      <trkpt lat="43.01015" lon="-0.0776">
        <ele>493.53</ele>
        <time>2018-08-25T08:28:39Z</time>
      </trkpt>
      <trkpt lat="43.00997" lon="-0.07766">
        <ele>491.91</ele>
        <time>2018-08-25T08:28:41Z</time>
      </trkpt>
      <trkpt lat="43.0098" lon="-0.07773">
        <ele>490.65</ele>
        <time>2018-08-25T08:28:43Z</time>
      </trkpt>
      <trkpt lat="43.00962" lon="-0.07776">
        <ele>490.53</ele>
        <time>2018-08-25T08:28:45Z</time>
      </trkpt>
      <trkpt lat="43.00936" lon="-0.0777">
        <ele>488.91</ele>
        <time>2018-08-25T08:28:48Z</time>
      </trkpt>
      <trkpt lat="43.0091" lon="-0.07765">
        <ele>485.95</ele>
        <time>2018-08-25T08:28:51Z</time>
      </trkpt>
      <trkpt lat="43.00886" lon="-0.0778">
        <ele>483.92</ele>
        <time>2018-08-25T08:28:54Z</time>
      </trkpt>
      <trkpt lat="43.00866" lon="-0.07796">
        <ele>482.62</ele>
        <time>2018-08-25T08:28:57Z</time>
      </trkpt>
      <trkpt lat="43.00847" lon="-0.07811">
        <ele>480.85</ele>
        <time>2018-08-25T08:29:00Z</time>
      </trkpt>
      <trkpt lat="43.0083" lon="-0.07829">
        <ele>479.62</ele>
        <time>2018-08-25T08:29:03Z</time>
      </trkpt>
      <trkpt lat="43.00815" lon="-0.07849">
        <ele>478.61</ele>
        <time>2018-08-25T08:29:06Z</time>
      </trkpt>
      <trkpt lat="43.00799" lon="-0.07867">
        <ele>478.52</ele>
        <time>2018-08-25T08:29:09Z</time>
      </trkpt>
      <trkpt lat="43.00782" lon="-0.07885">
        <ele>476.64</ele>
        <time>2018-08-25T08:29:12Z</time>
      </trkpt>
      <trkpt lat="43.00773" lon="-0.0791">
        <ele>475.83</ele>
        <time>2018-08-25T08:29:15Z</time>
      </trkpt>
      <trkpt lat="43.00775" lon="-0.07938">
        <ele>475.74</ele>
        <time>2018-08-25T08:29:18Z</time>
      </trkpt>
      <trkpt lat="43.00771" lon="-0.07964">
        <ele>473.71</ele>
        <time>2018-08-25T08:29:21Z</time>
      </trkpt>
      <trkpt lat="43.00777" lon="-0.07991">
        <ele>472.62</ele>
        <time>2018-08-25T08:29:24Z</time>
      </trkpt>
      <trkpt lat="43.00787" lon="-0.08018">
        <ele>469.94</ele>
        <time>2018-08-25T08:29:27Z</time>
      </trkpt>
      <trkpt lat="43.00787" lon="-0.08045">
        <ele>468.56</ele>
        <time>2018-08-25T08:29:30Z</time>
      </trkpt>
      <trkpt lat="43.00771" lon="-0.08065">
        <ele>467.82</ele>
        <time>2018-08-25T08:29:33Z</time>
      </trkpt>
      <trkpt lat="43.00755" lon="-0.08086">
        <ele>464.88</ele>
        <time>2018-08-25T08:29:36Z</time>
      </trkpt>
      <trkpt lat="43.00743" lon="-0.08107">
        <ele>463.83</ele>
        <time>2018-08-25T08:29:39Z</time>
      </trkpt>
      <trkpt lat="43.00724" lon="-0.08106">
        <ele>462.62</ele>
        <time>2018-08-25T08:29:42Z</time>
      </trkpt>
      <trkpt lat="43.00706" lon="-0.08092">
        <ele>461.82</ele>
        <time>2018-08-25T08:29:45Z</time>
      </trkpt>
      <trkpt lat="43.00687" lon="-0.08094">
        <ele>461.53</ele>
        <time>2018-08-25T08:29:48Z</time>
      </trkpt>
      <trkpt lat="43.00669" lon="-0.08112">
        <ele>460.82</ele>
        <time>2018-08-25T08:29:51Z</time>
      </trkpt>
      <trkpt lat="43.00645" lon="-0.0811">
        <ele>459.62</ele>
        <time>2018-08-25T08:29:54Z</time>
      </trkpt>
      <trkpt lat="43.00623" lon="-0.08101">
        <ele>456.94</ele>
        <time>2018-08-25T08:29:57Z</time>
      </trkpt>
      <trkpt lat="43.00597" lon="-0.08104">
        <ele>454.92</ele>
        <time>2018-08-25T08:30:00Z</time>
      </trkpt>
      <trkpt lat="43.00578" lon="-0.08102">
        <ele>453.83</ele>
        <time>2018-08-25T08:30:03Z</time>
      </trkpt>
      <trkpt lat="43.00558" lon="-0.08097">
        <ele>449.04</ele>
        <time>2018-08-25T08:30:07Z</time>
      </trkpt>
      <trkpt lat="43.00541" lon="-0.08113">
        <ele>440.61</ele>
        <time>2018-08-25T08:30:25Z</time>
      </trkpt>
      <trkpt lat="43.00539" lon="-0.08142">
        <ele>436.92</ele>
        <time>2018-08-25T08:30:31Z</time>
      </trkpt>
      <trkpt lat="43.00541" lon="-0.08167">
        <ele>434.83</ele>
        <time>2018-08-25T08:30:35Z</time>
      </trkpt>
      <trkpt lat="43.0052" lon="-0.08161">
        <ele>436.13</ele>
        <time>2018-08-25T08:30:46Z</time>
      </trkpt>
      <trkpt lat="43.00506" lon="-0.08143">
        <ele>437.43</ele>
        <time>2018-08-25T08:30:51Z</time>
      </trkpt>
      <trkpt lat="43.00487" lon="-0.08132">
        <ele>436.46</ele>
        <time>2018-08-25T08:30:56Z</time>
      </trkpt>
      <trkpt lat="43.00465" lon="-0.08126">
        <ele>436.23</ele>
        <time>2018-08-25T08:31:00Z</time>
      </trkpt>
      <trkpt lat="43.00446" lon="-0.0813">
        <ele>434.84</ele>
        <time>2018-08-25T08:31:03Z</time>
      </trkpt>
      <trkpt lat="43.00426" lon="-0.08127">
        <ele>433.77</ele>
        <time>2018-08-25T08:31:06Z</time>
      </trkpt>
      <trkpt lat="43.00408" lon="-0.08121">
        <ele>434.23</ele>
        <time>2018-08-25T08:31:09Z</time>
      </trkpt>
      <trkpt lat="43.00389" lon="-0.08117">
        <ele>435.49</ele>
        <time>2018-08-25T08:31:12Z</time>
      </trkpt>
      <trkpt lat="43.00366" lon="-0.08115">
        <ele>436.22</ele>
        <time>2018-08-25T08:31:16Z</time>
      </trkpt>
      <trkpt lat="43.00345" lon="-0.08114">
        <ele>436.51</ele>
        <time>2018-08-25T08:31:19Z</time>
      </trkpt>
      <trkpt lat="43.00323" lon="-0.08116">
        <ele>436.52</ele>
        <time>2018-08-25T08:31:22Z</time>
      </trkpt>
      <trkpt lat="43.00301" lon="-0.08115">
        <ele>436.52</ele>
        <time>2018-08-25T08:31:25Z</time>
      </trkpt>
      <trkpt lat="43.00281" lon="-0.08114">
        <ele>435.82</ele>
        <time>2018-08-25T08:31:28Z</time>
      </trkpt>
      <trkpt lat="43.0026" lon="-0.08112">
        <ele>434.77</ele>
        <time>2018-08-25T08:31:31Z</time>
      </trkpt>
      <trkpt lat="43.00241" lon="-0.08109">
        <ele>434.53</ele>
        <time>2018-08-25T08:31:34Z</time>
      </trkpt>
      <trkpt lat="43.00219" lon="-0.08105">
        <ele>434.46</ele>
        <time>2018-08-25T08:31:38Z</time>
      </trkpt>
      <trkpt lat="43.00201" lon="-0.08104">
        <ele>434.52</ele>
        <time>2018-08-25T08:31:41Z</time>
      </trkpt>
      <trkpt lat="43.00183" lon="-0.08101">
        <ele>436.19</ele>
        <time>2018-08-25T08:31:44Z</time>
      </trkpt>
      <trkpt lat="43.0016" lon="-0.08096">
        <ele>436.79</ele>
        <time>2018-08-25T08:31:48Z</time>
      </trkpt>
      <trkpt lat="43.00138" lon="-0.08094">
        <ele>435.55</ele>
        <time>2018-08-25T08:31:52Z</time>
      </trkpt>
      <trkpt lat="43.0012" lon="-0.08096">
        <ele>435.52</ele>
        <time>2018-08-25T08:32:00Z</time>
      </trkpt>
      <trkpt lat="43.001" lon="-0.08101">
        <ele>434.61</ele>
        <time>2018-08-25T08:32:06Z</time>
      </trkpt>
      <trkpt lat="43.00078" lon="-0.08094">
        <ele>434.81</ele>
        <time>2018-08-25T08:32:10Z</time>
      </trkpt>
      <trkpt lat="43.00054" lon="-0.0809">
        <ele>434.52</ele>
        <time>2018-08-25T08:32:14Z</time>
      </trkpt>
      <trkpt lat="43.00034" lon="-0.08092">
        <ele>433.61</ele>
        <time>2018-08-25T08:32:18Z</time>
      </trkpt>
      <trkpt lat="43.00013" lon="-0.08093">
        <ele>432.53</ele>
        <time>2018-08-25T08:32:22Z</time>
      </trkpt>
      <trkpt lat="42.99992" lon="-0.08095">
        <ele>430.85</ele>
        <time>2018-08-25T08:32:26Z</time>
      </trkpt>
      <trkpt lat="42.99971" lon="-0.08092">
        <ele>430.52</ele>
        <time>2018-08-25T08:32:30Z</time>
      </trkpt>
      <trkpt lat="42.99953" lon="-0.08097">
        <ele>431.43</ele>
        <time>2018-08-25T08:32:34Z</time>
      </trkpt>
      <trkpt lat="42.99934" lon="-0.08096">
        <ele>431.5</ele>
        <time>2018-08-25T08:32:38Z</time>
      </trkpt>
      <trkpt lat="42.99915" lon="-0.08097">
        <ele>431.52</ele>
        <time>2018-08-25T08:32:42Z</time>
      </trkpt>
      <trkpt lat="42.99894" lon="-0.08098">
        <ele>431.5</ele>
        <time>2018-08-25T08:32:47Z</time>
      </trkpt>
      <trkpt lat="42.99876" lon="-0.08096">
        <ele>430.61</ele>
        <time>2018-08-25T08:32:51Z</time>
      </trkpt>
      <trkpt lat="42.99856" lon="-0.08092">
        <ele>430.52</ele>
        <time>2018-08-25T08:32:55Z</time>
      </trkpt>
      <trkpt lat="42.99837" lon="-0.08093">
        <ele>430.52</ele>
        <time>2018-08-25T08:32:59Z</time>
      </trkpt>
      <trkpt lat="42.99815" lon="-0.08086">
        <ele>431.49</ele>
        <time>2018-08-25T08:33:03Z</time>
      </trkpt>
      <trkpt lat="42.99796" lon="-0.08084">
        <ele>432.22</ele>
        <time>2018-08-25T08:33:06Z</time>
      </trkpt>
      <trkpt lat="42.99783" lon="-0.08105">
        <ele>432.52</ele>
        <time>2018-08-25T08:33:10Z</time>
      </trkpt>
      <trkpt lat="42.99761" lon="-0.08111">
        <ele>432.46</ele>
        <time>2018-08-25T08:33:16Z</time>
      </trkpt>
      <trkpt lat="42.99743" lon="-0.08119">
        <ele>432.52</ele>
        <time>2018-08-25T08:33:20Z</time>
      </trkpt>
      <trkpt lat="42.99724" lon="-0.08122">
        <ele>431.82</ele>
        <time>2018-08-25T08:33:25Z</time>
      </trkpt>
      <trkpt lat="42.99704" lon="-0.08118">
        <ele>433.49</ele>
        <time>2018-08-25T08:33:30Z</time>
      </trkpt>
      <trkpt lat="42.99683" lon="-0.08125">
        <ele>434.43</ele>
        <time>2018-08-25T08:33:35Z</time>
      </trkpt>
      <trkpt lat="42.99665" lon="-0.08122">
        <ele>434.52</ele>
        <time>2018-08-25T08:33:39Z</time>
      </trkpt>
      <trkpt lat="42.99643" lon="-0.0812">
        <ele>434.46</ele>
        <time>2018-08-25T08:33:44Z</time>
      </trkpt>
      <trkpt lat="42.99625" lon="-0.08121">
        <ele>434.52</ele>
        <time>2018-08-25T08:33:48Z</time>
      </trkpt>
      <trkpt lat="42.99605" lon="-0.08118">
        <ele>433.55</ele>
        <time>2018-08-25T08:33:52Z</time>
      </trkpt>
      <trkpt lat="42.99585" lon="-0.08113">
        <ele>433.52</ele>
        <time>2018-08-25T08:33:56Z</time>
      </trkpt>
      <trkpt lat="42.99565" lon="-0.08108">
        <ele>433.52</ele>
        <time>2018-08-25T08:34:00Z</time>
      </trkpt>
      <trkpt lat="42.99546" lon="-0.08102">
        <ele>433.44</ele>
        <time>2018-08-25T08:34:04Z</time>
      </trkpt>
      <trkpt lat="42.99528" lon="-0.08098">
        <ele>432.55</ele>
        <time>2018-08-25T08:34:08Z</time>
      </trkpt>
      <trkpt lat="42.99508" lon="-0.08094">
        <ele>432.52</ele>
        <time>2018-08-25T08:34:12Z</time>
      </trkpt>
      <trkpt lat="42.9949" lon="-0.08088">
        <ele>431.55</ele>
        <time>2018-08-25T08:34:16Z</time>
      </trkpt>
      <trkpt lat="42.99471" lon="-0.08082">
        <ele>433.21</ele>
        <time>2018-08-25T08:34:20Z</time>
      </trkpt>
      <trkpt lat="42.99451" lon="-0.08085">
        <ele>434.43</ele>
        <time>2018-08-25T08:34:24Z</time>
      </trkpt>
      <trkpt lat="42.99431" lon="-0.08091">
        <ele>434.52</ele>
        <time>2018-08-25T08:34:28Z</time>
      </trkpt>
      <trkpt lat="42.99412" lon="-0.081">
        <ele>434.52</ele>
        <time>2018-08-25T08:34:32Z</time>
      </trkpt>
      <trkpt lat="42.99391" lon="-0.08107">
        <ele>433.53</ele>
        <time>2018-08-25T08:34:36Z</time>
      </trkpt>
      <trkpt lat="42.99372" lon="-0.08108">
        <ele>432.8</ele>
        <time>2018-08-25T08:34:40Z</time>
      </trkpt>
      <trkpt lat="42.99352" lon="-0.08108">
        <ele>433.51</ele>
        <time>2018-08-25T08:34:45Z</time>
      </trkpt>
      <trkpt lat="42.99337" lon="-0.08092">
        <ele>434.49</ele>
        <time>2018-08-25T08:34:49Z</time>
      </trkpt>
      <trkpt lat="42.99322" lon="-0.08073">
        <ele>434.52</ele>
        <time>2018-08-25T08:34:53Z</time>
      </trkpt>
      <trkpt lat="42.9931" lon="-0.08053">
        <ele>434.33</ele>
        <time>2018-08-25T08:34:57Z</time>
      </trkpt>
      <trkpt lat="42.99297" lon="-0.08035">
        <ele>433.82</ele>
        <time>2018-08-25T08:35:01Z</time>
      </trkpt>
      <trkpt lat="42.9928" lon="-0.08017">
        <ele>433.52</ele>
        <time>2018-08-25T08:35:06Z</time>
      </trkpt>
      <trkpt lat="42.99264" lon="-0.08003">
        <ele>433.52</ele>
        <time>2018-08-25T08:35:10Z</time>
      </trkpt>
      <trkpt lat="42.99248" lon="-0.07987">
        <ele>433.44</ele>
        <time>2018-08-25T08:35:14Z</time>
      </trkpt>
      <trkpt lat="42.99228" lon="-0.07972">
        <ele>433.52</ele>
        <time>2018-08-25T08:35:18Z</time>
      </trkpt>
      <trkpt lat="42.99212" lon="-0.07959">
        <ele>434.22</ele>
        <time>2018-08-25T08:35:22Z</time>
      </trkpt>
      <trkpt lat="42.99196" lon="-0.07947">
        <ele>435.52</ele>
        <time>2018-08-25T08:35:27Z</time>
      </trkpt>
      <trkpt lat="42.99178" lon="-0.07938">
        <ele>435.52</ele>
        <time>2018-08-25T08:35:31Z</time>
      </trkpt>
      <trkpt lat="42.99168" lon="-0.07913">
        <ele>436.52</ele>
        <time>2018-08-25T08:35:40Z</time>
      </trkpt>
      <trkpt lat="42.99152" lon="-0.07901">
        <ele>436.54</ele>
        <time>2018-08-25T08:35:44Z</time>
      </trkpt>
      <trkpt lat="42.99131" lon="-0.07889">
        <ele>435.53</ele>
        <time>2018-08-25T08:35:48Z</time>
      </trkpt>
      <trkpt lat="42.99114" lon="-0.07871">
        <ele>434.61</ele>
        <time>2018-08-25T08:35:52Z</time>
      </trkpt>
      <trkpt lat="42.99098" lon="-0.07853">
        <ele>434.52</ele>
        <time>2018-08-25T08:35:56Z</time>
      </trkpt>
      <trkpt lat="42.99087" lon="-0.07831">
        <ele>434.52</ele>
        <time>2018-08-25T08:36:00Z</time>
      </trkpt>
      <trkpt lat="42.9908" lon="-0.07803">
        <ele>433.82</ele>
        <time>2018-08-25T08:36:04Z</time>
      </trkpt>
      <trkpt lat="42.99078" lon="-0.07774">
        <ele>433.52</ele>
        <time>2018-08-25T08:36:08Z</time>
      </trkpt>
      <trkpt lat="42.99075" lon="-0.07748">
        <ele>432.82</ele>
        <time>2018-08-25T08:36:12Z</time>
      </trkpt>
      <trkpt lat="42.99064" lon="-0.07727">
        <ele>432.52</ele>
        <time>2018-08-25T08:36:18Z</time>
      </trkpt>
      <trkpt lat="42.99046" lon="-0.07718">
        <ele>432.6</ele>
        <time>2018-08-25T08:36:23Z</time>
      </trkpt>
      <trkpt lat="42.9903" lon="-0.07736">
        <ele>433.52</ele>
        <time>2018-08-25T08:36:29Z</time>
      </trkpt>
      <trkpt lat="42.99018" lon="-0.0776">
        <ele>434.22</ele>
        <time>2018-08-25T08:36:33Z</time>
      </trkpt>
      <trkpt lat="42.99006" lon="-0.07785">
        <ele>434.52</ele>
        <time>2018-08-25T08:36:37Z</time>
      </trkpt>
      <trkpt lat="42.98992" lon="-0.0781">
        <ele>434.52</ele>
        <time>2018-08-25T08:36:41Z</time>
      </trkpt>
      <trkpt lat="42.98978" lon="-0.07834">
        <ele>434.52</ele>
        <time>2018-08-25T08:36:45Z</time>
      </trkpt>
      <trkpt lat="42.98967" lon="-0.07859">
        <ele>436.21</ele>
        <time>2018-08-25T08:36:49Z</time>
      </trkpt>
      <trkpt lat="42.98946" lon="-0.07868">
        <ele>438.11</ele>
        <time>2018-08-25T08:36:54Z</time>
      </trkpt>
      <trkpt lat="42.98926" lon="-0.07851">
        <ele>440.21</ele>
        <time>2018-08-25T08:36:58Z</time>
      </trkpt>
      <trkpt lat="42.98911" lon="-0.07836">
        <ele>441.49</ele>
        <time>2018-08-25T08:37:01Z</time>
      </trkpt>
      <trkpt lat="42.98891" lon="-0.0782">
        <ele>442.51</ele>
        <time>2018-08-25T08:37:05Z</time>
      </trkpt>
      <trkpt lat="42.98873" lon="-0.07803">
        <ele>441.82</ele>
        <time>2018-08-25T08:37:09Z</time>
      </trkpt>
      <trkpt lat="42.98851" lon="-0.0779">
        <ele>442.5</ele>
        <time>2018-08-25T08:37:13Z</time>
      </trkpt>
      <trkpt lat="42.98836" lon="-0.07776">
        <ele>441.61</ele>
        <time>2018-08-25T08:37:16Z</time>
      </trkpt>
      <trkpt lat="42.98817" lon="-0.07756">
        <ele>441.52</ele>
        <time>2018-08-25T08:37:20Z</time>
      </trkpt>
      <trkpt lat="42.98804" lon="-0.07738">
        <ele>443.2</ele>
        <time>2018-08-25T08:37:23Z</time>
      </trkpt>
      <trkpt lat="42.98787" lon="-0.07716">
        <ele>444.49</ele>
        <time>2018-08-25T08:37:27Z</time>
      </trkpt>
      <trkpt lat="42.98775" lon="-0.07697">
        <ele>444.52</ele>
        <time>2018-08-25T08:37:30Z</time>
      </trkpt>
      <trkpt lat="42.98757" lon="-0.07676">
        <ele>445.43</ele>
        <time>2018-08-25T08:37:34Z</time>
      </trkpt>
      <trkpt lat="42.98736" lon="-0.07661">
        <ele>445.52</ele>
        <time>2018-08-25T08:37:38Z</time>
      </trkpt>
      <trkpt lat="42.98718" lon="-0.07641">
        <ele>445.52</ele>
        <time>2018-08-25T08:37:42Z</time>
      </trkpt>
      <trkpt lat="42.987" lon="-0.0762">
        <ele>445.52</ele>
        <time>2018-08-25T08:37:46Z</time>
      </trkpt>
      <trkpt lat="42.98684" lon="-0.07606">
        <ele>445.25</ele>
        <time>2018-08-25T08:37:49Z</time>
      </trkpt>
      <trkpt lat="42.98667" lon="-0.07598">
        <ele>445.51</ele>
        <time>2018-08-25T08:37:52Z</time>
      </trkpt>
      <trkpt lat="42.98648" lon="-0.07597">
        <ele>445.52</ele>
        <time>2018-08-25T08:37:55Z</time>
      </trkpt>
      <trkpt lat="42.98629" lon="-0.07595">
        <ele>445.52</ele>
        <time>2018-08-25T08:37:58Z</time>
      </trkpt>
      <trkpt lat="42.98612" lon="-0.07584">
        <ele>446.49</ele>
        <time>2018-08-25T08:38:01Z</time>
      </trkpt>
      <trkpt lat="42.98594" lon="-0.07567">
        <ele>446.52</ele>
        <time>2018-08-25T08:38:05Z</time>
      </trkpt>
      <trkpt lat="42.9858" lon="-0.07551">
        <ele>445.55</ele>
        <time>2018-08-25T08:38:08Z</time>
      </trkpt>
      <trkpt lat="42.98561" lon="-0.07533">
        <ele>445.52</ele>
        <time>2018-08-25T08:38:12Z</time>
      </trkpt>
      <trkpt lat="42.98541" lon="-0.07517">
        <ele>444.61</ele>
        <time>2018-08-25T08:38:16Z</time>
      </trkpt>
      <trkpt lat="42.98521" lon="-0.07525">
        <ele>444.52</ele>
        <time>2018-08-25T08:38:20Z</time>
      </trkpt>
      <trkpt lat="42.98502" lon="-0.07542">
        <ele>445.51</ele>
        <time>2018-08-25T08:38:24Z</time>
      </trkpt>
      <trkpt lat="42.98488" lon="-0.07558">
        <ele>445.58</ele>
        <time>2018-08-25T08:38:27Z</time>
      </trkpt>
      <trkpt lat="42.98469" lon="-0.07575">
        <ele>445.31</ele>
        <time>2018-08-25T08:38:31Z</time>
      </trkpt>
      <trkpt lat="42.98447" lon="-0.07581">
        <ele>445.52</ele>
        <time>2018-08-25T08:38:35Z</time>
      </trkpt>
      <trkpt lat="42.98425" lon="-0.07572">
        <ele>444.55</ele>
        <time>2018-08-25T08:38:39Z</time>
      </trkpt>
      <trkpt lat="42.98407" lon="-0.07552">
        <ele>443.55</ele>
        <time>2018-08-25T08:38:43Z</time>
      </trkpt>
      <trkpt lat="42.98392" lon="-0.0753">
        <ele>443.6</ele>
        <time>2018-08-25T08:38:47Z</time>
      </trkpt>
      <trkpt lat="42.98377" lon="-0.07516">
        <ele>443.52</ele>
        <time>2018-08-25T08:38:50Z</time>
      </trkpt>
      <trkpt lat="42.9836" lon="-0.07502">
        <ele>445.13</ele>
        <time>2018-08-25T08:38:53Z</time>
      </trkpt>
      <trkpt lat="42.98344" lon="-0.0749">
        <ele>446.42</ele>
        <time>2018-08-25T08:38:56Z</time>
      </trkpt>
      <trkpt lat="42.98326" lon="-0.07481">
        <ele>447.49</ele>
        <time>2018-08-25T08:38:59Z</time>
      </trkpt>
      <trkpt lat="42.98304" lon="-0.07471">
        <ele>448.22</ele>
        <time>2018-08-25T08:39:03Z</time>
      </trkpt>
      <trkpt lat="42.98285" lon="-0.07464">
        <ele>447.81</ele>
        <time>2018-08-25T08:39:06Z</time>
      </trkpt>
      <trkpt lat="42.98268" lon="-0.07454">
        <ele>446.56</ele>
        <time>2018-08-25T08:39:09Z</time>
      </trkpt>
      <trkpt lat="42.98252" lon="-0.07431">
        <ele>444.62</ele>
        <time>2018-08-25T08:39:13Z</time>
      </trkpt>
      <trkpt lat="42.98238" lon="-0.07406">
        <ele>445.5</ele>
        <time>2018-08-25T08:39:17Z</time>
      </trkpt>
      <trkpt lat="42.98225" lon="-0.07382">
        <ele>446.22</ele>
        <time>2018-08-25T08:39:21Z</time>
      </trkpt>
      <trkpt lat="42.9821" lon="-0.07358">
        <ele>447.43</ele>
        <time>2018-08-25T08:39:25Z</time>
      </trkpt>
      <trkpt lat="42.98193" lon="-0.07336">
        <ele>448.51</ele>
        <time>2018-08-25T08:39:29Z</time>
      </trkpt>
      <trkpt lat="42.98178" lon="-0.07323">
        <ele>448.52</ele>
        <time>2018-08-25T08:39:32Z</time>
      </trkpt>
      <trkpt lat="42.98158" lon="-0.07307">
        <ele>447.55</ele>
        <time>2018-08-25T08:39:36Z</time>
      </trkpt>
      <trkpt lat="42.98135" lon="-0.0731">
        <ele>447.52</ele>
        <time>2018-08-25T08:39:40Z</time>
      </trkpt>
      <trkpt lat="42.98119" lon="-0.07333">
        <ele>445.85</ele>
        <time>2018-08-25T08:39:44Z</time>
      </trkpt>
      <trkpt lat="42.981" lon="-0.07341">
        <ele>447.22</ele>
        <time>2018-08-25T08:39:48Z</time>
      </trkpt>
      <trkpt lat="42.98079" lon="-0.07343">
        <ele>447.52</ele>
        <time>2018-08-25T08:39:53Z</time>
      </trkpt>
      <trkpt lat="42.9806" lon="-0.07346">
        <ele>446.52</ele>
        <time>2018-08-25T08:39:58Z</time>
      </trkpt>
      <trkpt lat="42.98041" lon="-0.07345">
        <ele>447.52</ele>
        <time>2018-08-25T08:40:28Z</time>
      </trkpt>
      <trkpt lat="42.98021" lon="-0.07341">
        <ele>446.76</ele>
        <time>2018-08-25T08:40:32Z</time>
      </trkpt>
      <trkpt lat="42.98003" lon="-0.07342">
        <ele>447.45</ele>
        <time>2018-08-25T08:40:36Z</time>
      </trkpt>
      <trkpt lat="42.97984" lon="-0.07345">
        <ele>447.52</ele>
        <time>2018-08-25T08:40:40Z</time>
      </trkpt>
      <trkpt lat="42.97964" lon="-0.07345">
        <ele>446.53</ele>
        <time>2018-08-25T08:40:44Z</time>
      </trkpt>
      <trkpt lat="42.97945" lon="-0.07343">
        <ele>445.55</ele>
        <time>2018-08-25T08:40:48Z</time>
      </trkpt>
      <trkpt lat="42.97927" lon="-0.0734">
        <ele>445.31</ele>
        <time>2018-08-25T08:40:52Z</time>
      </trkpt>
      <trkpt lat="42.97909" lon="-0.07334">
        <ele>445.52</ele>
        <time>2018-08-25T08:40:56Z</time>
      </trkpt>
      <trkpt lat="42.9789" lon="-0.07331">
        <ele>446.22</ele>
        <time>2018-08-25T08:41:00Z</time>
      </trkpt>
      <trkpt lat="42.97872" lon="-0.07328">
        <ele>446.25</ele>
        <time>2018-08-25T08:41:04Z</time>
      </trkpt>
      <trkpt lat="42.97853" lon="-0.0733">
        <ele>447.51</ele>
        <time>2018-08-25T08:41:09Z</time>
      </trkpt>
      <trkpt lat="42.97841" lon="-0.0735">
        <ele>448.51</ele>
        <time>2018-08-25T08:41:13Z</time>
      </trkpt>
      <trkpt lat="42.97821" lon="-0.07362">
        <ele>448.23</ele>
        <time>2018-08-25T08:41:17Z</time>
      </trkpt>
      <trkpt lat="42.978" lon="-0.0737">
        <ele>449.49</ele>
        <time>2018-08-25T08:41:21Z</time>
      </trkpt>
      <trkpt lat="42.97779" lon="-0.07382">
        <ele>450.43</ele>
        <time>2018-08-25T08:41:25Z</time>
      </trkpt>
      <trkpt lat="42.97758" lon="-0.07396">
        <ele>452.19</ele>
        <time>2018-08-25T08:41:29Z</time>
      </trkpt>
      <trkpt lat="42.97737" lon="-0.07412">
        <ele>453.22</ele>
        <time>2018-08-25T08:41:33Z</time>
      </trkpt>
      <trkpt lat="42.97721" lon="-0.07426">
        <ele>453.51</ele>
        <time>2018-08-25T08:41:36Z</time>
      </trkpt>
      <trkpt lat="42.97707" lon="-0.07446">
        <ele>452.61</ele>
        <time>2018-08-25T08:41:39Z</time>
      </trkpt>
      <trkpt lat="42.97695" lon="-0.07468">
        <ele>451.82</ele>
        <time>2018-08-25T08:41:42Z</time>
      </trkpt>
      <trkpt lat="42.97685" lon="-0.0749">
        <ele>450.83</ele>
        <time>2018-08-25T08:41:45Z</time>
      </trkpt>
      <trkpt lat="42.97672" lon="-0.07506">
        <ele>450.53</ele>
        <time>2018-08-25T08:41:48Z</time>
      </trkpt>
      <trkpt lat="42.97657" lon="-0.07522">
        <ele>449.55</ele>
        <time>2018-08-25T08:41:51Z</time>
      </trkpt>
      <trkpt lat="42.97644" lon="-0.07547">
        <ele>449.52</ele>
        <time>2018-08-25T08:41:55Z</time>
      </trkpt>
      <trkpt lat="42.97631" lon="-0.07571">
        <ele>451.2</ele>
        <time>2018-08-25T08:41:59Z</time>
      </trkpt>
      <trkpt lat="42.97611" lon="-0.07584">
        <ele>452.22</ele>
        <time>2018-08-25T08:42:03Z</time>
      </trkpt>
      <trkpt lat="42.97589" lon="-0.07574">
        <ele>454.19</ele>
        <time>2018-08-25T08:42:07Z</time>
      </trkpt>
      <trkpt lat="42.97565" lon="-0.07568">
        <ele>454.52</ele>
        <time>2018-08-25T08:42:11Z</time>
      </trkpt>
      <trkpt lat="42.97545" lon="-0.07562">
        <ele>454.52</ele>
        <time>2018-08-25T08:42:14Z</time>
      </trkpt>
      <trkpt lat="42.97526" lon="-0.07555">
        <ele>453.82</ele>
        <time>2018-08-25T08:42:17Z</time>
      </trkpt>
      <trkpt lat="42.97508" lon="-0.07549">
        <ele>453.53</ele>
        <time>2018-08-25T08:42:20Z</time>
      </trkpt>
      <trkpt lat="42.9749" lon="-0.07544">
        <ele>453.52</ele>
        <time>2018-08-25T08:42:23Z</time>
      </trkpt>
      <trkpt lat="42.97472" lon="-0.07537">
        <ele>453.52</ele>
        <time>2018-08-25T08:42:26Z</time>
      </trkpt>
      <trkpt lat="42.9745" lon="-0.07531">
        <ele>454.51</ele>
        <time>2018-08-25T08:42:30Z</time>
      </trkpt>
      <trkpt lat="42.97431" lon="-0.07526">
        <ele>455.49</ele>
        <time>2018-08-25T08:42:33Z</time>
      </trkpt>
      <trkpt lat="42.97413" lon="-0.07521">
        <ele>455.52</ele>
        <time>2018-08-25T08:42:36Z</time>
      </trkpt>
      <trkpt lat="42.97394" lon="-0.07516">
        <ele>454.55</ele>
        <time>2018-08-25T08:42:39Z</time>
      </trkpt>
      <trkpt lat="42.97375" lon="-0.07512">
        <ele>455.43</ele>
        <time>2018-08-25T08:42:42Z</time>
      </trkpt>
      <trkpt lat="42.97357" lon="-0.07507">
        <ele>454.82</ele>
        <time>2018-08-25T08:42:45Z</time>
      </trkpt>
      <trkpt lat="42.97338" lon="-0.07501">
        <ele>454.59</ele>
        <time>2018-08-25T08:42:48Z</time>
      </trkpt>
      <trkpt lat="42.9732" lon="-0.07494">
        <ele>455.5</ele>
        <time>2018-08-25T08:42:51Z</time>
      </trkpt>
      <trkpt lat="42.973" lon="-0.0749">
        <ele>454.61</ele>
        <time>2018-08-25T08:42:54Z</time>
      </trkpt>
      <trkpt lat="42.97281" lon="-0.07486">
        <ele>454.52</ele>
        <time>2018-08-25T08:42:57Z</time>
      </trkpt>
      <trkpt lat="42.97261" lon="-0.07482">
        <ele>452.85</ele>
        <time>2018-08-25T08:43:00Z</time>
      </trkpt>
      <trkpt lat="42.97243" lon="-0.07477">
        <ele>452.53</ele>
        <time>2018-08-25T08:43:03Z</time>
      </trkpt>
      <trkpt lat="42.97224" lon="-0.07471">
        <ele>452.52</ele>
        <time>2018-08-25T08:43:06Z</time>
      </trkpt>
      <trkpt lat="42.97205" lon="-0.07467">
        <ele>451.61</ele>
        <time>2018-08-25T08:43:09Z</time>
      </trkpt>
      <trkpt lat="42.97187" lon="-0.07461">
        <ele>451.8</ele>
        <time>2018-08-25T08:43:12Z</time>
      </trkpt>
      <trkpt lat="42.97168" lon="-0.07455">
        <ele>452.5</ele>
        <time>2018-08-25T08:43:15Z</time>
      </trkpt>
      <trkpt lat="42.97149" lon="-0.07449">
        <ele>453.43</ele>
        <time>2018-08-25T08:43:18Z</time>
      </trkpt>
      <trkpt lat="42.9713" lon="-0.07443">
        <ele>454.43</ele>
        <time>2018-08-25T08:43:21Z</time>
      </trkpt>
      <trkpt lat="42.97108" lon="-0.07437">
        <ele>454.52</ele>
        <time>2018-08-25T08:43:25Z</time>
      </trkpt>
      <trkpt lat="42.97085" lon="-0.07433">
        <ele>455.49</ele>
        <time>2018-08-25T08:43:29Z</time>
      </trkpt>
      <trkpt lat="42.97065" lon="-0.07429">
        <ele>456.22</ele>
        <time>2018-08-25T08:43:33Z</time>
      </trkpt>
      <trkpt lat="42.97044" lon="-0.07423">
        <ele>456.46</ele>
        <time>2018-08-25T08:43:37Z</time>
      </trkpt>
      <trkpt lat="42.97022" lon="-0.07419">
        <ele>456.46</ele>
        <time>2018-08-25T08:43:41Z</time>
      </trkpt>
      <trkpt lat="42.97002" lon="-0.07416">
        <ele>457.43</ele>
        <time>2018-08-25T08:43:45Z</time>
      </trkpt>
      <trkpt lat="42.96979" lon="-0.07411">
        <ele>457.52</ele>
        <time>2018-08-25T08:43:49Z</time>
      </trkpt>
      <trkpt lat="42.96961" lon="-0.07406">
        <ele>457.25</ele>
        <time>2018-08-25T08:43:52Z</time>
      </trkpt>
      <trkpt lat="42.96942" lon="-0.07402">
        <ele>457.51</ele>
        <time>2018-08-25T08:43:55Z</time>
      </trkpt>
      <trkpt lat="42.96922" lon="-0.07397">
        <ele>458.22</ele>
        <time>2018-08-25T08:43:58Z</time>
      </trkpt>
      <trkpt lat="42.96903" lon="-0.07391">
        <ele>457.81</ele>
        <time>2018-08-25T08:44:01Z</time>
      </trkpt>
      <trkpt lat="42.96885" lon="-0.07386">
        <ele>457.53</ele>
        <time>2018-08-25T08:44:04Z</time>
      </trkpt>
      <trkpt lat="42.96867" lon="-0.07379">
        <ele>458.5</ele>
        <time>2018-08-25T08:44:07Z</time>
      </trkpt>
      <trkpt lat="42.96849" lon="-0.07372">
        <ele>460.19</ele>
        <time>2018-08-25T08:44:10Z</time>
      </trkpt>
      <trkpt lat="42.96831" lon="-0.07367">
        <ele>461.49</ele>
        <time>2018-08-25T08:44:13Z</time>
      </trkpt>
      <trkpt lat="42.96813" lon="-0.07358">
        <ele>464.1</ele>
        <time>2018-08-25T08:44:16Z</time>
      </trkpt>
      <trkpt lat="42.96794" lon="-0.07353">
        <ele>465.48</ele>
        <time>2018-08-25T08:44:19Z</time>
      </trkpt>
      <trkpt lat="42.96776" lon="-0.07348">
        <ele>465.52</ele>
        <time>2018-08-25T08:44:22Z</time>
      </trkpt>
      <trkpt lat="42.96753" lon="-0.0734">
        <ele>467.21</ele>
        <time>2018-08-25T08:44:26Z</time>
      </trkpt>
      <trkpt lat="42.9673" lon="-0.07333">
        <ele>469.4</ele>
        <time>2018-08-25T08:44:30Z</time>
      </trkpt>
      <trkpt lat="42.96712" lon="-0.07329">
        <ele>469.52</ele>
        <time>2018-08-25T08:44:33Z</time>
      </trkpt>
      <trkpt lat="42.96689" lon="-0.0732">
        <ele>471.42</ele>
        <time>2018-08-25T08:44:37Z</time>
      </trkpt>
      <trkpt lat="42.96667" lon="-0.0731">
        <ele>473.21</ele>
        <time>2018-08-25T08:44:41Z</time>
      </trkpt>
      <trkpt lat="42.96646" lon="-0.07298">
        <ele>474.49</ele>
        <time>2018-08-25T08:44:45Z</time>
      </trkpt>
      <trkpt lat="42.96629" lon="-0.07288">
        <ele>474.52</ele>
        <time>2018-08-25T08:44:48Z</time>
      </trkpt>
      <trkpt lat="42.96612" lon="-0.07275">
        <ele>475.22</ele>
        <time>2018-08-25T08:44:51Z</time>
      </trkpt>
      <trkpt lat="42.96595" lon="-0.07263">
        <ele>475.51</ele>
        <time>2018-08-25T08:44:54Z</time>
      </trkpt>
      <trkpt lat="42.96578" lon="-0.07251">
        <ele>474.55</ele>
        <time>2018-08-25T08:44:57Z</time>
      </trkpt>
      <trkpt lat="42.96561" lon="-0.07241">
        <ele>473.61</ele>
        <time>2018-08-25T08:45:00Z</time>
      </trkpt>
      <trkpt lat="42.96545" lon="-0.07224">
        <ele>473.52</ele>
        <time>2018-08-25T08:45:03Z</time>
      </trkpt>
      <trkpt lat="42.96532" lon="-0.07202">
        <ele>474.43</ele>
        <time>2018-08-25T08:45:06Z</time>
      </trkpt>
      <trkpt lat="42.9652" lon="-0.0718">
        <ele>474.52</ele>
        <time>2018-08-25T08:45:09Z</time>
      </trkpt>
      <trkpt lat="42.96507" lon="-0.07161">
        <ele>475.43</ele>
        <time>2018-08-25T08:45:12Z</time>
      </trkpt>
      <trkpt lat="42.96492" lon="-0.0714">
        <ele>474.82</ele>
        <time>2018-08-25T08:45:16Z</time>
      </trkpt>
      <trkpt lat="42.96478" lon="-0.07123">
        <ele>474.51</ele>
        <time>2018-08-25T08:45:20Z</time>
      </trkpt>
      <trkpt lat="42.96463" lon="-0.07104">
        <ele>474.46</ele>
        <time>2018-08-25T08:45:24Z</time>
      </trkpt>
      <trkpt lat="42.96453" lon="-0.07082">
        <ele>474.52</ele>
        <time>2018-08-25T08:45:27Z</time>
      </trkpt>
      <trkpt lat="42.96443" lon="-0.0706">
        <ele>475.43</ele>
        <time>2018-08-25T08:45:30Z</time>
      </trkpt>
      <trkpt lat="42.96432" lon="-0.07039">
        <ele>476.22</ele>
        <time>2018-08-25T08:45:33Z</time>
      </trkpt>
      <trkpt lat="42.96421" lon="-0.07015">
        <ele>476.51</ele>
        <time>2018-08-25T08:45:36Z</time>
      </trkpt>
      <trkpt lat="42.9641" lon="-0.06994">
        <ele>477.43</ele>
        <time>2018-08-25T08:45:39Z</time>
      </trkpt>
      <trkpt lat="42.96398" lon="-0.06973">
        <ele>477.52</ele>
        <time>2018-08-25T08:45:42Z</time>
      </trkpt>
      <trkpt lat="42.96386" lon="-0.06951">
        <ele>477.58</ele>
        <time>2018-08-25T08:45:45Z</time>
      </trkpt>
      <trkpt lat="42.96376" lon="-0.06929">
        <ele>478.43</ele>
        <time>2018-08-25T08:45:48Z</time>
      </trkpt>
      <trkpt lat="42.96364" lon="-0.06907">
        <ele>477.61</ele>
        <time>2018-08-25T08:45:51Z</time>
      </trkpt>
      <trkpt lat="42.96352" lon="-0.06885">
        <ele>477.52</ele>
        <time>2018-08-25T08:45:54Z</time>
      </trkpt>
      <trkpt lat="42.96341" lon="-0.06861">
        <ele>477.52</ele>
        <time>2018-08-25T08:45:57Z</time>
      </trkpt>
      <trkpt lat="42.96328" lon="-0.06842">
        <ele>477.58</ele>
        <time>2018-08-25T08:46:00Z</time>
      </trkpt>
      <trkpt lat="42.96313" lon="-0.0682">
        <ele>475.64</ele>
        <time>2018-08-25T08:46:04Z</time>
      </trkpt>
      <trkpt lat="42.96301" lon="-0.06796">
        <ele>475.52</ele>
        <time>2018-08-25T08:46:08Z</time>
      </trkpt>
      <trkpt lat="42.96288" lon="-0.06776">
        <ele>473.64</ele>
        <time>2018-08-25T08:46:12Z</time>
      </trkpt>
      <trkpt lat="42.96276" lon="-0.06753">
        <ele>473.23</ele>
        <time>2018-08-25T08:46:16Z</time>
      </trkpt>
      <trkpt lat="42.96257" lon="-0.06745">
        <ele>473.52</ele>
        <time>2018-08-25T08:46:22Z</time>
      </trkpt>
      <trkpt lat="42.96259" lon="-0.06771">
        <ele>473.53</ele>
        <time>2018-08-25T08:46:29Z</time>
      </trkpt>
      <trkpt lat="42.96268" lon="-0.06793">
        <ele>472.52</ele>
        <time>2018-08-25T08:46:34Z</time>
      </trkpt>
      <trkpt lat="42.96287" lon="-0.06788">
        <ele>471.61</ele>
        <time>2018-08-25T08:46:44Z</time>
      </trkpt>
      <trkpt lat="42.96305" lon="-0.06782">
        <ele>469.61</ele>
        <time>2018-08-25T08:47:52Z</time>
      </trkpt>
      <trkpt lat="42.96318" lon="-0.068">
        <ele>469.55</ele>
        <time>2018-08-25T08:48:00Z</time>
      </trkpt>
      <trkpt lat="42.9632" lon="-0.06828">
        <ele>473.16</ele>
        <time>2018-08-25T08:48:05Z</time>
      </trkpt>
      <trkpt lat="42.96328" lon="-0.06854">
        <ele>469.93</ele>
        <time>2018-08-25T08:48:09Z</time>
      </trkpt>
      <trkpt lat="42.9634" lon="-0.06882">
        <ele>468.53</ele>
        <time>2018-08-25T08:48:13Z</time>
      </trkpt>
      <trkpt lat="42.9635" lon="-0.06903">
        <ele>467.55</ele>
        <time>2018-08-25T08:48:16Z</time>
      </trkpt>
      <trkpt lat="42.96361" lon="-0.06925">
        <ele>466.61</ele>
        <time>2018-08-25T08:48:19Z</time>
      </trkpt>
      <trkpt lat="42.96372" lon="-0.06945">
        <ele>466.52</ele>
        <time>2018-08-25T08:48:22Z</time>
      </trkpt>
      <trkpt lat="42.96383" lon="-0.06967">
        <ele>465.55</ele>
        <time>2018-08-25T08:48:25Z</time>
      </trkpt>
      <trkpt lat="42.96394" lon="-0.06987">
        <ele>465.52</ele>
        <time>2018-08-25T08:48:28Z</time>
      </trkpt>
      <trkpt lat="42.96405" lon="-0.07007">
        <ele>465.52</ele>
        <time>2018-08-25T08:48:31Z</time>
      </trkpt>
      <trkpt lat="42.96416" lon="-0.07028">
        <ele>465.52</ele>
        <time>2018-08-25T08:48:34Z</time>
      </trkpt>
      <trkpt lat="42.96426" lon="-0.07048">
        <ele>465.52</ele>
        <time>2018-08-25T08:48:37Z</time>
      </trkpt>
      <trkpt lat="42.96437" lon="-0.07068">
        <ele>465.25</ele>
        <time>2018-08-25T08:48:40Z</time>
      </trkpt>
      <trkpt lat="42.96448" lon="-0.0709">
        <ele>464.81</ele>
        <time>2018-08-25T08:48:43Z</time>
      </trkpt>
      <trkpt lat="42.96459" lon="-0.07111">
        <ele>464.74</ele>
        <time>2018-08-25T08:48:46Z</time>
      </trkpt>
      <trkpt lat="42.96472" lon="-0.07134">
        <ele>465.5</ele>
        <time>2018-08-25T08:48:50Z</time>
      </trkpt>
      <trkpt lat="42.96486" lon="-0.07158">
        <ele>465.52</ele>
        <time>2018-08-25T08:48:54Z</time>
      </trkpt>
      <trkpt lat="42.96499" lon="-0.07183">
        <ele>464.82</ele>
        <time>2018-08-25T08:48:58Z</time>
      </trkpt>
      <trkpt lat="42.96515" lon="-0.07208">
        <ele>464.52</ele>
        <time>2018-08-25T08:49:02Z</time>
      </trkpt>
      <trkpt lat="42.96528" lon="-0.07226">
        <ele>464.52</ele>
        <time>2018-08-25T08:49:05Z</time>
      </trkpt>
      <trkpt lat="42.96546" lon="-0.07245">
        <ele>464.5</ele>
        <time>2018-08-25T08:49:09Z</time>
      </trkpt>
      <trkpt lat="42.96568" lon="-0.07256">
        <ele>464.52</ele>
        <time>2018-08-25T08:49:13Z</time>
      </trkpt>
      <trkpt lat="42.96584" lon="-0.07267">
        <ele>464.52</ele>
        <time>2018-08-25T08:49:16Z</time>
      </trkpt>
      <trkpt lat="42.96601" lon="-0.07279">
        <ele>464.8</ele>
        <time>2018-08-25T08:49:19Z</time>
      </trkpt>
      <trkpt lat="42.96616" lon="-0.07291">
        <ele>465.5</ele>
        <time>2018-08-25T08:49:22Z</time>
      </trkpt>
      <trkpt lat="42.96634" lon="-0.07302">
        <ele>465.52</ele>
        <time>2018-08-25T08:49:25Z</time>
      </trkpt>
      <trkpt lat="42.96652" lon="-0.07311">
        <ele>465.52</ele>
        <time>2018-08-25T08:49:28Z</time>
      </trkpt>
      <trkpt lat="42.96672" lon="-0.07319">
        <ele>467.2</ele>
        <time>2018-08-25T08:49:31Z</time>
      </trkpt>
      <trkpt lat="42.96692" lon="-0.07325">
        <ele>468.42</ele>
        <time>2018-08-25T08:49:34Z</time>
      </trkpt>
      <trkpt lat="42.96711" lon="-0.07329">
        <ele>468.52</ele>
        <time>2018-08-25T08:49:37Z</time>
      </trkpt>
      <trkpt lat="42.96731" lon="-0.07335">
        <ele>468.52</ele>
        <time>2018-08-25T08:49:40Z</time>
      </trkpt>
      <trkpt lat="42.96752" lon="-0.07339">
        <ele>469.22</ele>
        <time>2018-08-25T08:49:43Z</time>
      </trkpt>
      <trkpt lat="42.96771" lon="-0.07344">
        <ele>468.6</ele>
        <time>2018-08-25T08:49:46Z</time>
      </trkpt>
      <trkpt lat="42.96792" lon="-0.07349">
        <ele>467.82</ele>
        <time>2018-08-25T08:49:49Z</time>
      </trkpt>
      <trkpt lat="42.96812" lon="-0.07355">
        <ele>467.53</ele>
        <time>2018-08-25T08:49:52Z</time>
      </trkpt>
      <trkpt lat="42.96833" lon="-0.07363">
        <ele>465.85</ele>
        <time>2018-08-25T08:49:55Z</time>
      </trkpt>
      <trkpt lat="42.96853" lon="-0.07369">
        <ele>464.62</ele>
        <time>2018-08-25T08:49:58Z</time>
      </trkpt>
      <trkpt lat="42.96874" lon="-0.07376">
        <ele>463.82</ele>
        <time>2018-08-25T08:50:01Z</time>
      </trkpt>
      <trkpt lat="42.96895" lon="-0.0738">
        <ele>463.53</ele>
        <time>2018-08-25T08:50:04Z</time>
      </trkpt>
      <trkpt lat="42.96915" lon="-0.07386">
        <ele>463.52</ele>
        <time>2018-08-25T08:50:07Z</time>
      </trkpt>
      <trkpt lat="42.96935" lon="-0.07394">
        <ele>462.55</ele>
        <time>2018-08-25T08:50:10Z</time>
      </trkpt>
      <trkpt lat="42.96958" lon="-0.07399">
        <ele>461.55</ele>
        <time>2018-08-25T08:50:13Z</time>
      </trkpt>
      <trkpt lat="42.9698" lon="-0.07403">
        <ele>462.5</ele>
        <time>2018-08-25T08:50:16Z</time>
      </trkpt>
      <trkpt lat="42.97002" lon="-0.07407">
        <ele>462.52</ele>
        <time>2018-08-25T08:50:19Z</time>
      </trkpt>
      <trkpt lat="42.97024" lon="-0.07412">
        <ele>462.52</ele>
        <time>2018-08-25T08:50:22Z</time>
      </trkpt>
      <trkpt lat="42.97046" lon="-0.07418">
        <ele>460.85</ele>
        <time>2018-08-25T08:50:25Z</time>
      </trkpt>
      <trkpt lat="42.97069" lon="-0.07425">
        <ele>459.62</ele>
        <time>2018-08-25T08:50:28Z</time>
      </trkpt>
      <trkpt lat="42.97093" lon="-0.07433">
        <ele>457.85</ele>
        <time>2018-08-25T08:50:31Z</time>
      </trkpt>
      <trkpt lat="42.97116" lon="-0.07438">
        <ele>456.56</ele>
        <time>2018-08-25T08:50:34Z</time>
      </trkpt>
      <trkpt lat="42.97138" lon="-0.07443">
        <ele>456.52</ele>
        <time>2018-08-25T08:50:37Z</time>
      </trkpt>
      <trkpt lat="42.9716" lon="-0.07448">
        <ele>456.52</ele>
        <time>2018-08-25T08:50:40Z</time>
      </trkpt>
      <trkpt lat="42.97183" lon="-0.07452">
        <ele>456.52</ele>
        <time>2018-08-25T08:50:43Z</time>
      </trkpt>
      <trkpt lat="42.97204" lon="-0.0746">
        <ele>455.82</ele>
        <time>2018-08-25T08:50:46Z</time>
      </trkpt>
      <trkpt lat="42.97225" lon="-0.0747">
        <ele>454.83</ele>
        <time>2018-08-25T08:50:49Z</time>
      </trkpt>
      <trkpt lat="42.97247" lon="-0.07477">
        <ele>453.56</ele>
        <time>2018-08-25T08:50:52Z</time>
      </trkpt>
      <trkpt lat="42.97268" lon="-0.07484">
        <ele>452.55</ele>
        <time>2018-08-25T08:50:55Z</time>
      </trkpt>
      <trkpt lat="42.97289" lon="-0.0749">
        <ele>451.61</ele>
        <time>2018-08-25T08:50:58Z</time>
      </trkpt>
      <trkpt lat="42.97311" lon="-0.07497">
        <ele>450.82</ele>
        <time>2018-08-25T08:51:01Z</time>
      </trkpt>
      <trkpt lat="42.97332" lon="-0.07503">
        <ele>450.53</ele>
        <time>2018-08-25T08:51:04Z</time>
      </trkpt>
      <trkpt lat="42.97351" lon="-0.07509">
        <ele>452.41</ele>
        <time>2018-08-25T08:51:07Z</time>
      </trkpt>
      <trkpt lat="42.97371" lon="-0.07513">
        <ele>452.52</ele>
        <time>2018-08-25T08:51:10Z</time>
      </trkpt>
      <trkpt lat="42.97389" lon="-0.07518">
        <ele>452.52</ele>
        <time>2018-08-25T08:51:13Z</time>
      </trkpt>
      <trkpt lat="42.97408" lon="-0.0752">
        <ele>453.43</ele>
        <time>2018-08-25T08:51:16Z</time>
      </trkpt>
      <trkpt lat="42.97428" lon="-0.07523">
        <ele>453.52</ele>
        <time>2018-08-25T08:51:19Z</time>
      </trkpt>
      <trkpt lat="42.97448" lon="-0.07529">
        <ele>454.22</ele>
        <time>2018-08-25T08:51:22Z</time>
      </trkpt>
      <trkpt lat="42.97468" lon="-0.07534">
        <ele>454.51</ele>
        <time>2018-08-25T08:51:25Z</time>
      </trkpt>
      <trkpt lat="42.97488" lon="-0.07539">
        <ele>454.52</ele>
        <time>2018-08-25T08:51:28Z</time>
      </trkpt>
      <trkpt lat="42.97508" lon="-0.07547">
        <ele>454.52</ele>
        <time>2018-08-25T08:51:31Z</time>
      </trkpt>
      <trkpt lat="42.97529" lon="-0.07554">
        <ele>453.61</ele>
        <time>2018-08-25T08:51:34Z</time>
      </trkpt>
      <trkpt lat="42.97549" lon="-0.0756">
        <ele>453.52</ele>
        <time>2018-08-25T08:51:37Z</time>
      </trkpt>
      <trkpt lat="42.97569" lon="-0.07567">
        <ele>452.82</ele>
        <time>2018-08-25T08:51:40Z</time>
      </trkpt>
      <trkpt lat="42.97588" lon="-0.07575">
        <ele>453.23</ele>
        <time>2018-08-25T08:51:43Z</time>
      </trkpt>
      <trkpt lat="42.97608" lon="-0.07579">
        <ele>453.51</ele>
        <time>2018-08-25T08:51:46Z</time>
      </trkpt>
      <trkpt lat="42.97626" lon="-0.07572">
        <ele>452.82</ele>
        <time>2018-08-25T08:51:49Z</time>
      </trkpt>
      <trkpt lat="42.9764" lon="-0.07551">
        <ele>451.53</ele>
        <time>2018-08-25T08:51:53Z</time>
      </trkpt>
      <trkpt lat="42.97655" lon="-0.07526">
        <ele>449.62</ele>
        <time>2018-08-25T08:51:57Z</time>
      </trkpt>
      <trkpt lat="42.97671" lon="-0.07506">
        <ele>448.82</ele>
        <time>2018-08-25T08:52:00Z</time>
      </trkpt>
      <trkpt lat="42.97687" lon="-0.07488">
        <ele>448.59</ele>
        <time>2018-08-25T08:52:03Z</time>
      </trkpt>
      <trkpt lat="42.97699" lon="-0.07463">
        <ele>447.55</ele>
        <time>2018-08-25T08:52:06Z</time>
      </trkpt>
      <trkpt lat="42.97712" lon="-0.0744">
        <ele>447.52</ele>
        <time>2018-08-25T08:52:09Z</time>
      </trkpt>
      <trkpt lat="42.97726" lon="-0.07425">
        <ele>446.82</ele>
        <time>2018-08-25T08:52:12Z</time>
      </trkpt>
      <trkpt lat="42.97744" lon="-0.07411">
        <ele>445.56</ele>
        <time>2018-08-25T08:52:15Z</time>
      </trkpt>
      <trkpt lat="42.97762" lon="-0.07397">
        <ele>445.52</ele>
        <time>2018-08-25T08:52:18Z</time>
      </trkpt>
      <trkpt lat="42.97781" lon="-0.07384">
        <ele>446.22</ele>
        <time>2018-08-25T08:52:21Z</time>
      </trkpt>
      <trkpt lat="42.97801" lon="-0.07372">
        <ele>446.51</ele>
        <time>2018-08-25T08:52:24Z</time>
      </trkpt>
      <trkpt lat="42.9782" lon="-0.07359">
        <ele>447.49</ele>
        <time>2018-08-25T08:52:27Z</time>
      </trkpt>
      <trkpt lat="42.97839" lon="-0.07348">
        <ele>447.52</ele>
        <time>2018-08-25T08:52:30Z</time>
      </trkpt>
      <trkpt lat="42.97858" lon="-0.0733">
        <ele>447.58</ele>
        <time>2018-08-25T08:52:34Z</time>
      </trkpt>
      <trkpt lat="42.97879" lon="-0.07329">
        <ele>447.31</ele>
        <time>2018-08-25T08:52:37Z</time>
      </trkpt>
      <trkpt lat="42.979" lon="-0.07331">
        <ele>448.49</ele>
        <time>2018-08-25T08:52:40Z</time>
      </trkpt>
      <trkpt lat="42.97919" lon="-0.07336">
        <ele>447.82</ele>
        <time>2018-08-25T08:52:43Z</time>
      </trkpt>
      <trkpt lat="42.9794" lon="-0.07341">
        <ele>446.62</ele>
        <time>2018-08-25T08:52:46Z</time>
      </trkpt>
      <trkpt lat="42.97961" lon="-0.07345">
        <ele>446.52</ele>
        <time>2018-08-25T08:52:49Z</time>
      </trkpt>
      <trkpt lat="42.97981" lon="-0.07346">
        <ele>446.52</ele>
        <time>2018-08-25T08:52:52Z</time>
      </trkpt>
      <trkpt lat="42.98002" lon="-0.07345">
        <ele>445.61</ele>
        <time>2018-08-25T08:52:55Z</time>
      </trkpt>
      <trkpt lat="42.98021" lon="-0.07345">
        <ele>446.22</ele>
        <time>2018-08-25T08:52:58Z</time>
      </trkpt>
      <trkpt lat="42.9804" lon="-0.07346">
        <ele>447.21</ele>
        <time>2018-08-25T08:53:01Z</time>
      </trkpt>
      <trkpt lat="42.98058" lon="-0.07348">
        <ele>445.59</ele>
        <time>2018-08-25T08:53:19Z</time>
      </trkpt>
      <trkpt lat="42.98077" lon="-0.07344">
        <ele>445.52</ele>
        <time>2018-08-25T08:53:25Z</time>
      </trkpt>
      <trkpt lat="42.98095" lon="-0.07338">
        <ele>447.2</ele>
        <time>2018-08-25T08:53:28Z</time>
      </trkpt>
      <trkpt lat="42.98117" lon="-0.0733">
        <ele>446.8</ele>
        <time>2018-08-25T08:53:32Z</time>
      </trkpt>
      <trkpt lat="42.98134" lon="-0.07315">
        <ele>445.59</ele>
        <time>2018-08-25T08:53:37Z</time>
      </trkpt>
      <trkpt lat="42.98156" lon="-0.07312">
        <ele>444.61</ele>
        <time>2018-08-25T08:53:42Z</time>
      </trkpt>
      <trkpt lat="42.98174" lon="-0.07326">
        <ele>444.52</ele>
        <time>2018-08-25T08:53:45Z</time>
      </trkpt>
      <trkpt lat="42.9819" lon="-0.07344">
        <ele>443.61</ele>
        <time>2018-08-25T08:53:48Z</time>
      </trkpt>
      <trkpt lat="42.98203" lon="-0.07363">
        <ele>442.61</ele>
        <time>2018-08-25T08:53:51Z</time>
      </trkpt>
      <trkpt lat="42.98217" lon="-0.07382">
        <ele>441.82</ele>
        <time>2018-08-25T08:53:54Z</time>
      </trkpt>
      <trkpt lat="42.9823" lon="-0.07404">
        <ele>440.62</ele>
        <time>2018-08-25T08:53:57Z</time>
      </trkpt>
      <trkpt lat="42.98243" lon="-0.07424">
        <ele>440.52</ele>
        <time>2018-08-25T08:54:00Z</time>
      </trkpt>
      <trkpt lat="42.9826" lon="-0.07446">
        <ele>441.2</ele>
        <time>2018-08-25T08:54:04Z</time>
      </trkpt>
      <trkpt lat="42.98274" lon="-0.07464">
        <ele>441.51</ele>
        <time>2018-08-25T08:54:07Z</time>
      </trkpt>
      <trkpt lat="42.98292" lon="-0.07472">
        <ele>442.43</ele>
        <time>2018-08-25T08:54:10Z</time>
      </trkpt>
      <trkpt lat="42.98308" lon="-0.07486">
        <ele>442.52</ele>
        <time>2018-08-25T08:54:13Z</time>
      </trkpt>
      <trkpt lat="42.98327" lon="-0.07494">
        <ele>443.22</ele>
        <time>2018-08-25T08:54:16Z</time>
      </trkpt>
      <trkpt lat="42.98346" lon="-0.07496">
        <ele>443.51</ele>
        <time>2018-08-25T08:54:19Z</time>
      </trkpt>
      <trkpt lat="42.98365" lon="-0.07508">
        <ele>443.58</ele>
        <time>2018-08-25T08:54:22Z</time>
      </trkpt>
      <trkpt lat="42.98383" lon="-0.0752">
        <ele>442.82</ele>
        <time>2018-08-25T08:54:25Z</time>
      </trkpt>
      <trkpt lat="42.98396" lon="-0.07542">
        <ele>440.92</ele>
        <time>2018-08-25T08:54:28Z</time>
      </trkpt>
      <trkpt lat="42.98411" lon="-0.07562">
        <ele>440.53</ele>
        <time>2018-08-25T08:54:31Z</time>
      </trkpt>
      <trkpt lat="42.98427" lon="-0.07576">
        <ele>439.82</ele>
        <time>2018-08-25T08:54:34Z</time>
      </trkpt>
      <trkpt lat="42.98446" lon="-0.07583">
        <ele>439.53</ele>
        <time>2018-08-25T08:54:37Z</time>
      </trkpt>
      <trkpt lat="42.98464" lon="-0.07579">
        <ele>439.8</ele>
        <time>2018-08-25T08:54:40Z</time>
      </trkpt>
      <trkpt lat="42.98482" lon="-0.07566">
        <ele>439.53</ele>
        <time>2018-08-25T08:54:43Z</time>
      </trkpt>
      <trkpt lat="42.98498" lon="-0.0755">
        <ele>439.46</ele>
        <time>2018-08-25T08:54:46Z</time>
      </trkpt>
      <trkpt lat="42.98514" lon="-0.07534">
        <ele>438.55</ele>
        <time>2018-08-25T08:54:49Z</time>
      </trkpt>
      <trkpt lat="42.98533" lon="-0.07522">
        <ele>437.61</ele>
        <time>2018-08-25T08:54:52Z</time>
      </trkpt>
      <trkpt lat="42.98551" lon="-0.07528">
        <ele>439.41</ele>
        <time>2018-08-25T08:54:55Z</time>
      </trkpt>
      <trkpt lat="42.98568" lon="-0.07547">
        <ele>439.52</ele>
        <time>2018-08-25T08:54:58Z</time>
      </trkpt>
      <trkpt lat="42.98584" lon="-0.07565">
        <ele>438.61</ele>
        <time>2018-08-25T08:55:01Z</time>
      </trkpt>
      <trkpt lat="42.98601" lon="-0.07583">
        <ele>438.52</ele>
        <time>2018-08-25T08:55:04Z</time>
      </trkpt>
      <trkpt lat="42.98618" lon="-0.07596">
        <ele>438.52</ele>
        <time>2018-08-25T08:55:07Z</time>
      </trkpt>
      <trkpt lat="42.98638" lon="-0.07601">
        <ele>438.8</ele>
        <time>2018-08-25T08:55:10Z</time>
      </trkpt>
      <trkpt lat="42.98658" lon="-0.076">
        <ele>439.44</ele>
        <time>2018-08-25T08:55:13Z</time>
      </trkpt>
      <trkpt lat="42.98678" lon="-0.07607">
        <ele>439.52</ele>
        <time>2018-08-25T08:55:16Z</time>
      </trkpt>
      <trkpt lat="42.98696" lon="-0.07623">
        <ele>438.61</ele>
        <time>2018-08-25T08:55:19Z</time>
      </trkpt>
      <trkpt lat="42.98711" lon="-0.07643">
        <ele>437.61</ele>
        <time>2018-08-25T08:55:22Z</time>
      </trkpt>
      <trkpt lat="42.98725" lon="-0.07661">
        <ele>437.52</ele>
        <time>2018-08-25T08:55:25Z</time>
      </trkpt>
      <trkpt lat="42.98743" lon="-0.07676">
        <ele>436.82</ele>
        <time>2018-08-25T08:55:28Z</time>
      </trkpt>
      <trkpt lat="42.9876" lon="-0.07689">
        <ele>437.5</ele>
        <time>2018-08-25T08:55:31Z</time>
      </trkpt>
      <trkpt lat="42.98775" lon="-0.07709">
        <ele>437.46</ele>
        <time>2018-08-25T08:55:34Z</time>
      </trkpt>
      <trkpt lat="42.9879" lon="-0.0773">
        <ele>436.55</ele>
        <time>2018-08-25T08:55:37Z</time>
      </trkpt>
      <trkpt lat="42.98804" lon="-0.0775">
        <ele>435.61</ele>
        <time>2018-08-25T08:55:40Z</time>
      </trkpt>
      <trkpt lat="42.9882" lon="-0.07768">
        <ele>435.52</ele>
        <time>2018-08-25T08:55:43Z</time>
      </trkpt>
      <trkpt lat="42.98837" lon="-0.07785">
        <ele>434.61</ele>
        <time>2018-08-25T08:55:46Z</time>
      </trkpt>
      <trkpt lat="42.98855" lon="-0.07796">
        <ele>436.2</ele>
        <time>2018-08-25T08:55:49Z</time>
      </trkpt>
      <trkpt lat="42.98872" lon="-0.07808">
        <ele>437.21</ele>
        <time>2018-08-25T08:55:52Z</time>
      </trkpt>
      <trkpt lat="42.98889" lon="-0.07826">
        <ele>436.81</ele>
        <time>2018-08-25T08:55:55Z</time>
      </trkpt>
      <trkpt lat="42.98906" lon="-0.07841">
        <ele>436.53</ele>
        <time>2018-08-25T08:55:58Z</time>
      </trkpt>
      <trkpt lat="42.98924" lon="-0.07857">
        <ele>436.52</ele>
        <time>2018-08-25T08:56:01Z</time>
      </trkpt>
      <trkpt lat="42.9894" lon="-0.07874">
        <ele>435.55</ele>
        <time>2018-08-25T08:56:04Z</time>
      </trkpt>
      <trkpt lat="42.9895" lon="-0.07897">
        <ele>435.52</ele>
        <time>2018-08-25T08:56:07Z</time>
      </trkpt>
      <trkpt lat="42.98954" lon="-0.07924">
        <ele>434.82</ele>
        <time>2018-08-25T08:56:10Z</time>
      </trkpt>
      <trkpt lat="42.98959" lon="-0.07951">
        <ele>433.83</ele>
        <time>2018-08-25T08:56:13Z</time>
      </trkpt>
      <trkpt lat="42.98971" lon="-0.07971">
        <ele>433.53</ele>
        <time>2018-08-25T08:56:16Z</time>
      </trkpt>
      <trkpt lat="42.98983" lon="-0.07992">
        <ele>433.52</ele>
        <time>2018-08-25T08:56:19Z</time>
      </trkpt>
      <trkpt lat="42.98992" lon="-0.08017">
        <ele>434.22</ele>
        <time>2018-08-25T08:56:22Z</time>
      </trkpt>
      <trkpt lat="42.99002" lon="-0.0804">
        <ele>433.6</ele>
        <time>2018-08-25T08:56:25Z</time>
      </trkpt>
      <trkpt lat="42.99009" lon="-0.08067">
        <ele>433.73</ele>
        <time>2018-08-25T08:56:28Z</time>
      </trkpt>
      <trkpt lat="42.99016" lon="-0.08092">
        <ele>433.8</ele>
        <time>2018-08-25T08:56:31Z</time>
      </trkpt>
      <trkpt lat="42.99029" lon="-0.08112">
        <ele>434.5</ele>
        <time>2018-08-25T08:56:34Z</time>
      </trkpt>
      <trkpt lat="42.99044" lon="-0.0813">
        <ele>433.55</ele>
        <time>2018-08-25T08:56:37Z</time>
      </trkpt>
      <trkpt lat="42.99059" lon="-0.08148">
        <ele>432.61</ele>
        <time>2018-08-25T08:56:40Z</time>
      </trkpt>
      <trkpt lat="42.99076" lon="-0.08161">
        <ele>433.5</ele>
        <time>2018-08-25T08:56:43Z</time>
      </trkpt>
      <trkpt lat="42.991" lon="-0.08164">
        <ele>434.43</ele>
        <time>2018-08-25T08:56:47Z</time>
      </trkpt>
      <trkpt lat="42.99118" lon="-0.08169">
        <ele>434.52</ele>
        <time>2018-08-25T08:56:50Z</time>
      </trkpt>
      <trkpt lat="42.99131" lon="-0.08192">
        <ele>435.22</ele>
        <time>2018-08-25T08:56:57Z</time>
      </trkpt>
      <trkpt lat="42.99149" lon="-0.08211">
        <ele>436.22</ele>
        <time>2018-08-25T08:57:03Z</time>
      </trkpt>
      <trkpt lat="42.99172" lon="-0.08221">
        <ele>435.53</ele>
        <time>2018-08-25T08:57:07Z</time>
      </trkpt>
      <trkpt lat="42.99189" lon="-0.08234">
        <ele>436.43</ele>
        <time>2018-08-25T08:57:10Z</time>
      </trkpt>
      <trkpt lat="42.99207" lon="-0.08244">
        <ele>435.61</ele>
        <time>2018-08-25T08:57:13Z</time>
      </trkpt>
      <trkpt lat="42.99221" lon="-0.08261">
        <ele>436.43</ele>
        <time>2018-08-25T08:57:16Z</time>
      </trkpt>
      <trkpt lat="42.99238" lon="-0.08275">
        <ele>437.22</ele>
        <time>2018-08-25T08:57:20Z</time>
      </trkpt>
      <trkpt lat="42.99258" lon="-0.08266">
        <ele>436.53</ele>
        <time>2018-08-25T08:57:24Z</time>
      </trkpt>
      <trkpt lat="42.99257" lon="-0.08238">
        <ele>436.55</ele>
        <time>2018-08-25T08:57:30Z</time>
      </trkpt>
      <trkpt lat="42.99253" lon="-0.08211">
        <ele>437.43</ele>
        <time>2018-08-25T08:57:35Z</time>
      </trkpt>
      <trkpt lat="42.99241" lon="-0.08188">
        <ele>438.49</ele>
        <time>2018-08-25T08:57:41Z</time>
      </trkpt>
      <trkpt lat="42.99259" lon="-0.0818">
        <ele>438.52</ele>
        <time>2018-08-25T08:57:46Z</time>
      </trkpt>
      <trkpt lat="42.9928" lon="-0.08173">
        <ele>438.22</ele>
        <time>2018-08-25T08:57:53Z</time>
      </trkpt>
      <trkpt lat="42.993" lon="-0.08178">
        <ele>438.52</ele>
        <time>2018-08-25T08:57:59Z</time>
      </trkpt>
      <trkpt lat="42.99317" lon="-0.08168">
        <ele>438.44</ele>
        <time>2018-08-25T08:58:05Z</time>
      </trkpt>
      <trkpt lat="42.99326" lon="-0.08145">
        <ele>438.52</ele>
        <time>2018-08-25T08:58:11Z</time>
      </trkpt>
      <trkpt lat="42.99347" lon="-0.08149">
        <ele>437.53</ele>
        <time>2018-08-25T08:58:18Z</time>
      </trkpt>
      <trkpt lat="42.9934" lon="-0.08172">
        <ele>439.22</ele>
        <time>2018-08-25T08:58:27Z</time>
      </trkpt>
      <trkpt lat="42.99332" lon="-0.08197">
        <ele>438.81</ele>
        <time>2018-08-25T08:58:37Z</time>
      </trkpt>
      <trkpt lat="42.99333" lon="-0.08222">
        <ele>437.61</ele>
        <time>2018-08-25T08:58:41Z</time>
      </trkpt>
      <trkpt lat="42.99353" lon="-0.08227">
        <ele>436.52</ele>
        <time>2018-08-25T08:58:49Z</time>
      </trkpt>
      <trkpt lat="42.99369" lon="-0.08242">
        <ele>435.61</ele>
        <time>2018-08-25T08:58:53Z</time>
      </trkpt>
      <trkpt lat="42.99391" lon="-0.0825">
        <ele>433.64</ele>
        <time>2018-08-25T08:58:58Z</time>
      </trkpt>
      <trkpt lat="42.99413" lon="-0.08239">
        <ele>431.64</ele>
        <time>2018-08-25T08:59:02Z</time>
      </trkpt>
      <trkpt lat="42.99436" lon="-0.08233">
        <ele>431.52</ele>
        <time>2018-08-25T08:59:06Z</time>
      </trkpt>
      <trkpt lat="42.99454" lon="-0.08236">
        <ele>431.52</ele>
        <time>2018-08-25T08:59:09Z</time>
      </trkpt>
      <trkpt lat="42.99472" lon="-0.08252">
        <ele>432.29</ele>
        <time>2018-08-25T08:59:13Z</time>
      </trkpt>
      <trkpt lat="42.99494" lon="-0.08261">
        <ele>432.52</ele>
        <time>2018-08-25T08:59:17Z</time>
      </trkpt>
      <trkpt lat="42.99513" lon="-0.08275">
        <ele>431.55</ele>
        <time>2018-08-25T08:59:21Z</time>
      </trkpt>
      <trkpt lat="42.99531" lon="-0.0829">
        <ele>431.52</ele>
        <time>2018-08-25T08:59:25Z</time>
      </trkpt>
      <trkpt lat="42.99552" lon="-0.08299">
        <ele>431.52</ele>
        <time>2018-08-25T08:59:29Z</time>
      </trkpt>
      <trkpt lat="42.9957" lon="-0.0831">
        <ele>430.61</ele>
        <time>2018-08-25T08:59:33Z</time>
      </trkpt>
      <trkpt lat="42.9959" lon="-0.08322">
        <ele>430.52</ele>
        <time>2018-08-25T08:59:37Z</time>
      </trkpt>
      <trkpt lat="42.99608" lon="-0.08331">
        <ele>432.21</ele>
        <time>2018-08-25T08:59:41Z</time>
      </trkpt>
      <trkpt lat="42.99627" lon="-0.08334">
        <ele>432.79</ele>
        <time>2018-08-25T08:59:46Z</time>
      </trkpt>
      <trkpt lat="42.99639" lon="-0.08313">
        <ele>430.85</ele>
        <time>2018-08-25T08:59:52Z</time>
      </trkpt>
      <trkpt lat="42.99657" lon="-0.08309">
        <ele>428.64</ele>
        <time>2018-08-25T08:59:56Z</time>
      </trkpt>
      <trkpt lat="42.9966" lon="-0.08282">
        <ele>429.5</ele>
        <time>2018-08-25T09:00:03Z</time>
      </trkpt>
      <trkpt lat="42.99641" lon="-0.08267">
        <ele>428.61</ele>
        <time>2018-08-25T09:00:07Z</time>
      </trkpt>
      <trkpt lat="42.99629" lon="-0.0824">
        <ele>427.55</ele>
        <time>2018-08-25T09:00:11Z</time>
      </trkpt>
      <trkpt lat="42.9962" lon="-0.08215">
        <ele>428.22</ele>
        <time>2018-08-25T09:00:15Z</time>
      </trkpt>
      <trkpt lat="42.99621" lon="-0.08189">
        <ele>425.51</ele>
        <time>2018-08-25T09:01:07Z</time>
      </trkpt>
      <trkpt lat="42.9962" lon="-0.08159">
        <ele>425.52</ele>
        <time>2018-08-25T09:01:12Z</time>
      </trkpt>
      <trkpt lat="42.99631" lon="-0.08137">
        <ele>425.52</ele>
        <time>2018-08-25T09:01:17Z</time>
      </trkpt>
      <trkpt lat="42.9965" lon="-0.08134">
        <ele>425.52</ele>
        <time>2018-08-25T09:01:21Z</time>
      </trkpt>
      <trkpt lat="42.99669" lon="-0.08132">
        <ele>427.2</ele>
        <time>2018-08-25T09:01:25Z</time>
      </trkpt>
      <trkpt lat="42.9969" lon="-0.08128">
        <ele>428.49</ele>
        <time>2018-08-25T09:01:29Z</time>
      </trkpt>
      <trkpt lat="42.99709" lon="-0.08124">
        <ele>429.49</ele>
        <time>2018-08-25T09:01:33Z</time>
      </trkpt>
      <trkpt lat="42.99728" lon="-0.08119">
        <ele>431.42</ele>
        <time>2018-08-25T09:01:37Z</time>
      </trkpt>
      <trkpt lat="42.99747" lon="-0.08115">
        <ele>432.51</ele>
        <time>2018-08-25T09:01:41Z</time>
      </trkpt>
      <trkpt lat="42.99766" lon="-0.08107">
        <ele>433.22</ele>
        <time>2018-08-25T09:01:46Z</time>
      </trkpt>
      <trkpt lat="42.99784" lon="-0.08108">
        <ele>432.53</ele>
        <time>2018-08-25T09:01:50Z</time>
      </trkpt>
      <trkpt lat="42.99798" lon="-0.08086">
        <ele>432.31</ele>
        <time>2018-08-25T09:01:55Z</time>
      </trkpt>
      <trkpt lat="42.99821" lon="-0.08087">
        <ele>433.51</ele>
        <time>2018-08-25T09:01:59Z</time>
      </trkpt>
      <trkpt lat="42.99839" lon="-0.08092">
        <ele>432.61</ele>
        <time>2018-08-25T09:02:03Z</time>
      </trkpt>
      <trkpt lat="42.99861" lon="-0.0809">
        <ele>433.22</ele>
        <time>2018-08-25T09:02:07Z</time>
      </trkpt>
      <trkpt lat="42.99883" lon="-0.08093">
        <ele>432.55</ele>
        <time>2018-08-25T09:02:11Z</time>
      </trkpt>
      <trkpt lat="42.99904" lon="-0.08092">
        <ele>432.59</ele>
        <time>2018-08-25T09:02:15Z</time>
      </trkpt>
      <trkpt lat="42.99927" lon="-0.08091">
        <ele>432.52</ele>
        <time>2018-08-25T09:02:19Z</time>
      </trkpt>
      <trkpt lat="42.99949" lon="-0.08089">
        <ele>433.51</ele>
        <time>2018-08-25T09:02:23Z</time>
      </trkpt>
      <trkpt lat="42.99967" lon="-0.08088">
        <ele>433.52</ele>
        <time>2018-08-25T09:02:27Z</time>
      </trkpt>
      <trkpt lat="42.99989" lon="-0.08091">
        <ele>433.52</ele>
        <time>2018-08-25T09:02:31Z</time>
      </trkpt>
      <trkpt lat="43.0001" lon="-0.08091">
        <ele>432.52</ele>
        <time>2018-08-25T09:02:36Z</time>
      </trkpt>
      <trkpt lat="43.00028" lon="-0.08087">
        <ele>432.73</ele>
        <time>2018-08-25T09:02:59Z</time>
      </trkpt>
      <trkpt lat="43.00051" lon="-0.08082">
        <ele>432.52</ele>
        <time>2018-08-25T09:03:03Z</time>
      </trkpt>
      <trkpt lat="43.00069" lon="-0.08087">
        <ele>433.5</ele>
        <time>2018-08-25T09:03:07Z</time>
      </trkpt>
      <trkpt lat="43.00087" lon="-0.08092">
        <ele>432.55</ele>
        <time>2018-08-25T09:03:11Z</time>
      </trkpt>
      <trkpt lat="43.00107" lon="-0.08095">
        <ele>432.8</ele>
        <time>2018-08-25T09:03:16Z</time>
      </trkpt>
      <trkpt lat="43.00127" lon="-0.08094">
        <ele>432.53</ele>
        <time>2018-08-25T09:03:23Z</time>
      </trkpt>
      <trkpt lat="43.00146" lon="-0.08096">
        <ele>433.43</ele>
        <time>2018-08-25T09:03:28Z</time>
      </trkpt>
      <trkpt lat="43.00168" lon="-0.08099">
        <ele>434.24</ele>
        <time>2018-08-25T09:03:33Z</time>
      </trkpt>
      <trkpt lat="43.00186" lon="-0.08098">
        <ele>435.43</ele>
        <time>2018-08-25T09:03:37Z</time>
      </trkpt>
      <trkpt lat="43.00205" lon="-0.081">
        <ele>436.49</ele>
        <time>2018-08-25T09:03:41Z</time>
      </trkpt>
      <trkpt lat="43.00224" lon="-0.08103">
        <ele>436.31</ele>
        <time>2018-08-25T09:03:44Z</time>
      </trkpt>
      <trkpt lat="43.00243" lon="-0.08106">
        <ele>435.82</ele>
        <time>2018-08-25T09:03:47Z</time>
      </trkpt>
      <trkpt lat="43.00264" lon="-0.08107">
        <ele>434.56</ele>
        <time>2018-08-25T09:03:50Z</time>
      </trkpt>
      <trkpt lat="43.00286" lon="-0.08112">
        <ele>433.61</ele>
        <time>2018-08-25T09:03:53Z</time>
      </trkpt>
      <trkpt lat="43.00309" lon="-0.08115">
        <ele>433.52</ele>
        <time>2018-08-25T09:03:56Z</time>
      </trkpt>
      <trkpt lat="43.00333" lon="-0.08118">
        <ele>434.22</ele>
        <time>2018-08-25T09:03:59Z</time>
      </trkpt>
      <trkpt lat="43.00357" lon="-0.08121">
        <ele>431.99</ele>
        <time>2018-08-25T09:04:02Z</time>
      </trkpt>
      <trkpt lat="43.00382" lon="-0.08123">
        <ele>431.53</ele>
        <time>2018-08-25T09:04:05Z</time>
      </trkpt>
      <trkpt lat="43.00405" lon="-0.08125">
        <ele>430.82</ele>
        <time>2018-08-25T09:04:08Z</time>
      </trkpt>
      <trkpt lat="43.00427" lon="-0.08129">
        <ele>431.23</ele>
        <time>2018-08-25T09:04:11Z</time>
      </trkpt>
      <trkpt lat="43.00446" lon="-0.08129">
        <ele>431.51</ele>
        <time>2018-08-25T09:04:14Z</time>
      </trkpt>
      <trkpt lat="43.00469" lon="-0.08129">
        <ele>432.51</ele>
        <time>2018-08-25T09:04:18Z</time>
      </trkpt>
      <trkpt lat="43.0049" lon="-0.08134">
        <ele>432.52</ele>
        <time>2018-08-25T09:04:23Z</time>
      </trkpt>
      <trkpt lat="43.00508" lon="-0.08149">
        <ele>433.22</ele>
        <time>2018-08-25T09:04:29Z</time>
      </trkpt>
      <trkpt lat="43.00521" lon="-0.08173">
        <ele>431.61</ele>
        <time>2018-08-25T09:04:34Z</time>
      </trkpt>
      <trkpt lat="43.00538" lon="-0.08189">
        <ele>429.83</ele>
        <time>2018-08-25T09:04:40Z</time>
      </trkpt>
      <trkpt lat="43.00551" lon="-0.08207">
        <ele>430.51</ele>
        <time>2018-08-25T09:05:16Z</time>
      </trkpt>
      <trkpt lat="43.0057" lon="-0.08227">
        <ele>429.55</ele>
        <time>2018-08-25T09:05:21Z</time>
      </trkpt>
      <trkpt lat="43.00587" lon="-0.08236">
        <ele>428.34</ele>
        <time>2018-08-25T09:05:24Z</time>
      </trkpt>
      <trkpt lat="43.00608" lon="-0.08244">
        <ele>428.52</ele>
        <time>2018-08-25T09:05:28Z</time>
      </trkpt>
      <trkpt lat="43.00627" lon="-0.08251">
        <ele>427.55</ele>
        <time>2018-08-25T09:05:32Z</time>
      </trkpt>
      <trkpt lat="43.00647" lon="-0.08264">
        <ele>427.52</ele>
        <time>2018-08-25T09:05:36Z</time>
      </trkpt>
      <trkpt lat="43.00668" lon="-0.08274">
        <ele>427.31</ele>
        <time>2018-08-25T09:05:40Z</time>
      </trkpt>
      <trkpt lat="43.00689" lon="-0.08279">
        <ele>426.55</ele>
        <time>2018-08-25T09:05:44Z</time>
      </trkpt>
      <trkpt lat="43.00707" lon="-0.08284">
        <ele>425.82</ele>
        <time>2018-08-25T09:05:47Z</time>
      </trkpt>
      <trkpt lat="43.00729" lon="-0.08287">
        <ele>426.5</ele>
        <time>2018-08-25T09:05:51Z</time>
      </trkpt>
      <trkpt lat="43.00752" lon="-0.08295">
        <ele>426.52</ele>
        <time>2018-08-25T09:05:55Z</time>
      </trkpt>
      <trkpt lat="43.00773" lon="-0.08298">
        <ele>425.53</ele>
        <time>2018-08-25T09:05:59Z</time>
      </trkpt>
      <trkpt lat="43.00794" lon="-0.08303">
        <ele>426.52</ele>
        <time>2018-08-25T09:06:04Z</time>
      </trkpt>
      <trkpt lat="43.00815" lon="-0.08299">
        <ele>426.54</ele>
        <time>2018-08-25T09:06:08Z</time>
      </trkpt>
      <trkpt lat="43.00836" lon="-0.08305">
        <ele>427.51</ele>
        <time>2018-08-25T09:06:12Z</time>
      </trkpt>
      <trkpt lat="43.00855" lon="-0.08315">
        <ele>428.43</ele>
        <time>2018-08-25T09:06:16Z</time>
      </trkpt>
      <trkpt lat="43.00878" lon="-0.08324">
        <ele>427.53</ele>
        <time>2018-08-25T09:06:20Z</time>
      </trkpt>
      <trkpt lat="43.00899" lon="-0.08323">
        <ele>428.22</ele>
        <time>2018-08-25T09:06:23Z</time>
      </trkpt>
      <trkpt lat="43.00917" lon="-0.08325">
        <ele>428.51</ele>
        <time>2018-08-25T09:06:26Z</time>
      </trkpt>
      <trkpt lat="43.00941" lon="-0.08332">
        <ele>429.49</ele>
        <time>2018-08-25T09:06:30Z</time>
      </trkpt>
      <trkpt lat="43.00963" lon="-0.08333">
        <ele>428.55</ele>
        <time>2018-08-25T09:06:33Z</time>
      </trkpt>
      <trkpt lat="43.00986" lon="-0.08334">
        <ele>427.61</ele>
        <time>2018-08-25T09:06:36Z</time>
      </trkpt>
      <trkpt lat="43.01007" lon="-0.08338">
        <ele>426.82</ele>
        <time>2018-08-25T09:06:39Z</time>
      </trkpt>
      <trkpt lat="43.01023" lon="-0.0835">
        <ele>426.46</ele>
        <time>2018-08-25T09:06:43Z</time>
      </trkpt>
      <trkpt lat="43.01043" lon="-0.08348">
        <ele>426.52</ele>
        <time>2018-08-25T09:06:47Z</time>
      </trkpt>
      <trkpt lat="43.01063" lon="-0.0836">
        <ele>428.42</ele>
        <time>2018-08-25T09:06:52Z</time>
      </trkpt>
      <trkpt lat="43.0108" lon="-0.08371">
        <ele>428.52</ele>
        <time>2018-08-25T09:06:56Z</time>
      </trkpt>
      <trkpt lat="43.01098" lon="-0.08385">
        <ele>427.53</ele>
        <time>2018-08-25T09:07:00Z</time>
      </trkpt>
      <trkpt lat="43.01115" lon="-0.084">
        <ele>427.59</ele>
        <time>2018-08-25T09:07:03Z</time>
      </trkpt>
      <trkpt lat="43.01128" lon="-0.08419">
        <ele>427.52</ele>
        <time>2018-08-25T09:07:06Z</time>
      </trkpt>
      <trkpt lat="43.01146" lon="-0.08437">
        <ele>424.94</ele>
        <time>2018-08-25T09:07:09Z</time>
      </trkpt>
      <trkpt lat="43.01163" lon="-0.0845">
        <ele>423.62</ele>
        <time>2018-08-25T09:07:12Z</time>
      </trkpt>
      <trkpt lat="43.01181" lon="-0.08465">
        <ele>422.61</ele>
        <time>2018-08-25T09:07:15Z</time>
      </trkpt>
      <trkpt lat="43.012" lon="-0.08475">
        <ele>420.62</ele>
        <time>2018-08-25T09:07:19Z</time>
      </trkpt>
      <trkpt lat="43.01216" lon="-0.08491">
        <ele>419.59</ele>
        <time>2018-08-25T09:07:24Z</time>
      </trkpt>
      <trkpt lat="43.01234" lon="-0.08501">
        <ele>420.29</ele>
        <time>2018-08-25T09:07:29Z</time>
      </trkpt>
      <trkpt lat="43.01253" lon="-0.08516">
        <ele>419.76</ele>
        <time>2018-08-25T09:07:33Z</time>
      </trkpt>
      <trkpt lat="43.01268" lon="-0.08533">
        <ele>419.53</ele>
        <time>2018-08-25T09:07:36Z</time>
      </trkpt>
      <trkpt lat="43.01284" lon="-0.08551">
        <ele>419.52</ele>
        <time>2018-08-25T09:07:39Z</time>
      </trkpt>
      <trkpt lat="43.01292" lon="-0.08575">
        <ele>418.61</ele>
        <time>2018-08-25T09:07:43Z</time>
      </trkpt>
      <trkpt lat="43.01303" lon="-0.08603">
        <ele>418.8</ele>
        <time>2018-08-25T09:07:47Z</time>
      </trkpt>
      <trkpt lat="43.01319" lon="-0.08618">
        <ele>417.55</ele>
        <time>2018-08-25T09:07:51Z</time>
      </trkpt>
      <trkpt lat="43.01336" lon="-0.08635">
        <ele>416.55</ele>
        <time>2018-08-25T09:07:56Z</time>
      </trkpt>
      <trkpt lat="43.01359" lon="-0.0864">
        <ele>416.52</ele>
        <time>2018-08-25T09:08:01Z</time>
      </trkpt>
      <trkpt lat="43.01379" lon="-0.08645">
        <ele>415.61</ele>
        <time>2018-08-25T09:08:05Z</time>
      </trkpt>
      <trkpt lat="43.01397" lon="-0.08647">
        <ele>415.52</ele>
        <time>2018-08-25T09:08:09Z</time>
      </trkpt>
      <trkpt lat="43.01419" lon="-0.08647">
        <ele>416.43</ele>
        <time>2018-08-25T09:08:13Z</time>
      </trkpt>
      <trkpt lat="43.0144" lon="-0.08648">
        <ele>417.28</ele>
        <time>2018-08-25T09:08:17Z</time>
      </trkpt>
      <trkpt lat="43.01461" lon="-0.08652">
        <ele>417.52</ele>
        <time>2018-08-25T09:08:21Z</time>
      </trkpt>
      <trkpt lat="43.01483" lon="-0.08657">
        <ele>417.54</ele>
        <time>2018-08-25T09:08:25Z</time>
      </trkpt>
      <trkpt lat="43.01503" lon="-0.08659">
        <ele>417.25</ele>
        <time>2018-08-25T09:08:28Z</time>
      </trkpt>
      <trkpt lat="43.01522" lon="-0.08663">
        <ele>418.43</ele>
        <time>2018-08-25T09:08:32Z</time>
      </trkpt>
      <trkpt lat="43.01539" lon="-0.0867">
        <ele>418.52</ele>
        <time>2018-08-25T09:08:36Z</time>
      </trkpt>
      <trkpt lat="43.01558" lon="-0.08671">
        <ele>419.52</ele>
        <time>2018-08-25T09:08:41Z</time>
      </trkpt>
      <trkpt lat="43.01577" lon="-0.08659">
        <ele>420.43</ele>
        <time>2018-08-25T09:08:46Z</time>
      </trkpt>
      <trkpt lat="43.01591" lon="-0.08641">
        <ele>419.53</ele>
        <time>2018-08-25T09:08:51Z</time>
      </trkpt>
      <trkpt lat="43.01612" lon="-0.08627">
        <ele>418.61</ele>
        <time>2018-08-25T09:08:56Z</time>
      </trkpt>
      <trkpt lat="43.01633" lon="-0.08632">
        <ele>418.52</ele>
        <time>2018-08-25T09:09:00Z</time>
      </trkpt>
      <trkpt lat="43.0165" lon="-0.0862">
        <ele>417.32</ele>
        <time>2018-08-25T09:09:04Z</time>
      </trkpt>
      <trkpt lat="43.01669" lon="-0.08619">
        <ele>418.49</ele>
        <time>2018-08-25T09:09:09Z</time>
      </trkpt>
      <trkpt lat="43.0169" lon="-0.08616">
        <ele>418.6</ele>
        <time>2018-08-25T09:09:15Z</time>
      </trkpt>
      <trkpt lat="43.01701" lon="-0.0859">
        <ele>419.51</ele>
        <time>2018-08-25T09:09:19Z</time>
      </trkpt>
      <trkpt lat="43.01719" lon="-0.08581">
        <ele>420.22</ele>
        <time>2018-08-25T09:09:24Z</time>
      </trkpt>
      <trkpt lat="43.01737" lon="-0.08568">
        <ele>420.52</ele>
        <time>2018-08-25T09:09:28Z</time>
      </trkpt>
      <trkpt lat="43.01757" lon="-0.08561">
        <ele>419.53</ele>
        <time>2018-08-25T09:09:32Z</time>
      </trkpt>
      <trkpt lat="43.01777" lon="-0.08568">
        <ele>420.41</ele>
        <time>2018-08-25T09:09:38Z</time>
      </trkpt>
      <trkpt lat="43.01796" lon="-0.0855">
        <ele>421.22</ele>
        <time>2018-08-25T09:09:43Z</time>
      </trkpt>
      <trkpt lat="43.01818" lon="-0.08542">
        <ele>421.52</ele>
        <time>2018-08-25T09:09:47Z</time>
      </trkpt>
      <trkpt lat="43.01836" lon="-0.08529">
        <ele>421.52</ele>
        <time>2018-08-25T09:09:50Z</time>
      </trkpt>
      <trkpt lat="43.01854" lon="-0.08518">
        <ele>421.52</ele>
        <time>2018-08-25T09:09:53Z</time>
      </trkpt>
      <trkpt lat="43.01876" lon="-0.08504">
        <ele>419.62</ele>
        <time>2018-08-25T09:09:57Z</time>
      </trkpt>
      <trkpt lat="43.01896" lon="-0.08498">
        <ele>419.52</ele>
        <time>2018-08-25T09:10:01Z</time>
      </trkpt>
      <trkpt lat="43.01914" lon="-0.08484">
        <ele>422.11</ele>
        <time>2018-08-25T09:10:04Z</time>
      </trkpt>
      <trkpt lat="43.01927" lon="-0.08466">
        <ele>421.82</ele>
        <time>2018-08-25T09:10:08Z</time>
      </trkpt>
      <trkpt lat="43.01935" lon="-0.08489">
        <ele>420.53</ele>
        <time>2018-08-25T09:10:13Z</time>
      </trkpt>
      <trkpt lat="43.01941" lon="-0.08515">
        <ele>420.52</ele>
        <time>2018-08-25T09:10:18Z</time>
      </trkpt>
      <trkpt lat="43.01955" lon="-0.08535">
        <ele>421.51</ele>
        <time>2018-08-25T09:10:22Z</time>
      </trkpt>
      <trkpt lat="43.0197" lon="-0.08554">
        <ele>421.79</ele>
        <time>2018-08-25T09:10:26Z</time>
      </trkpt>
      <trkpt lat="43.0199" lon="-0.0856">
        <ele>422.52</ele>
        <time>2018-08-25T09:10:30Z</time>
      </trkpt>
      <trkpt lat="43.02008" lon="-0.08553">
        <ele>422.52</ele>
        <time>2018-08-25T09:10:33Z</time>
      </trkpt>
      <trkpt lat="43.02024" lon="-0.08533">
        <ele>423.43</ele>
        <time>2018-08-25T09:10:37Z</time>
      </trkpt>
      <trkpt lat="43.02033" lon="-0.0851">
        <ele>422.59</ele>
        <time>2018-08-25T09:10:43Z</time>
      </trkpt>
      <trkpt lat="43.02045" lon="-0.0849">
        <ele>421.63</ele>
        <time>2018-08-25T09:10:47Z</time>
      </trkpt>
      <trkpt lat="43.02061" lon="-0.08474">
        <ele>420.82</ele>
        <time>2018-08-25T09:10:51Z</time>
      </trkpt>
      <trkpt lat="43.02083" lon="-0.08465">
        <ele>421.52</ele>
        <time>2018-08-25T09:10:55Z</time>
      </trkpt>
      <trkpt lat="43.02106" lon="-0.08456">
        <ele>423.42</ele>
        <time>2018-08-25T09:10:59Z</time>
      </trkpt>
      <trkpt lat="43.02123" lon="-0.08449">
        <ele>422.55</ele>
        <time>2018-08-25T09:11:02Z</time>
      </trkpt>
      <trkpt lat="43.02139" lon="-0.08437">
        <ele>421.61</ele>
        <time>2018-08-25T09:11:05Z</time>
      </trkpt>
      <trkpt lat="43.02151" lon="-0.08416">
        <ele>419.64</ele>
        <time>2018-08-25T09:11:09Z</time>
      </trkpt>
      <trkpt lat="43.02162" lon="-0.08394">
        <ele>419.2</ele>
        <time>2018-08-25T09:11:20Z</time>
      </trkpt>
      <trkpt lat="43.02176" lon="-0.08374">
        <ele>419.52</ele>
        <time>2018-08-25T09:11:27Z</time>
      </trkpt>
      <trkpt lat="43.02188" lon="-0.08351">
        <ele>419.54</ele>
        <time>2018-08-25T09:11:33Z</time>
      </trkpt>
      <trkpt lat="43.02201" lon="-0.08332">
        <ele>418.53</ele>
        <time>2018-08-25T09:11:37Z</time>
      </trkpt>
      <trkpt lat="43.02218" lon="-0.08314">
        <ele>416.77</ele>
        <time>2018-08-25T09:11:42Z</time>
      </trkpt>
      <trkpt lat="43.02239" lon="-0.08309">
        <ele>416.73</ele>
        <time>2018-08-25T09:11:47Z</time>
      </trkpt>
      <trkpt lat="43.02224" lon="-0.08291">
        <ele>419.52</ele>
        <time>2018-08-25T09:12:05Z</time>
      </trkpt>
      <trkpt lat="43.02224" lon="-0.08264">
        <ele>418.53</ele>
        <time>2018-08-25T09:12:10Z</time>
      </trkpt>
      <trkpt lat="43.02236" lon="-0.08243">
        <ele>421.52</ele>
        <time>2018-08-25T09:12:27Z</time>
      </trkpt>
      <trkpt lat="43.02255" lon="-0.08241">
        <ele>420.55</ele>
        <time>2018-08-25T09:12:33Z</time>
      </trkpt>
      <trkpt lat="43.02273" lon="-0.08235">
        <ele>421.51</ele>
        <time>2018-08-25T09:12:41Z</time>
      </trkpt>
      <trkpt lat="43.0229" lon="-0.0822">
        <ele>419.55</ele>
        <time>2018-08-25T09:12:48Z</time>
      </trkpt>
      <trkpt lat="43.02307" lon="-0.08208">
        <ele>418.34</ele>
        <time>2018-08-25T09:12:51Z</time>
      </trkpt>
      <trkpt lat="43.02325" lon="-0.08195">
        <ele>418.52</ele>
        <time>2018-08-25T09:12:54Z</time>
      </trkpt>
      <trkpt lat="43.02342" lon="-0.08188">
        <ele>418.25</ele>
        <time>2018-08-25T09:12:57Z</time>
      </trkpt>
      <trkpt lat="43.02358" lon="-0.08175">
        <ele>419.21</ele>
        <time>2018-08-25T09:13:00Z</time>
      </trkpt>
      <trkpt lat="43.02377" lon="-0.08162">
        <ele>419.52</ele>
        <time>2018-08-25T09:13:04Z</time>
      </trkpt>
      <trkpt lat="43.02394" lon="-0.08152">
        <ele>419.52</ele>
        <time>2018-08-25T09:13:09Z</time>
      </trkpt>
      <trkpt lat="43.02416" lon="-0.08142">
        <ele>418.52</ele>
        <time>2018-08-25T09:13:26Z</time>
      </trkpt>
      <trkpt lat="43.02436" lon="-0.08126">
        <ele>419.49</ele>
        <time>2018-08-25T09:13:30Z</time>
      </trkpt>
      <trkpt lat="43.0245" lon="-0.08111">
        <ele>419.52</ele>
        <time>2018-08-25T09:13:33Z</time>
      </trkpt>
      <trkpt lat="43.02467" lon="-0.08096">
        <ele>419.52</ele>
        <time>2018-08-25T09:13:36Z</time>
      </trkpt>
      <trkpt lat="43.02486" lon="-0.08079">
        <ele>418.55</ele>
        <time>2018-08-25T09:13:40Z</time>
      </trkpt>
      <trkpt lat="43.02502" lon="-0.08062">
        <ele>417.55</ele>
        <time>2018-08-25T09:13:45Z</time>
      </trkpt>
      <trkpt lat="43.02516" lon="-0.08046">
        <ele>416.55</ele>
        <time>2018-08-25T09:13:48Z</time>
      </trkpt>
      <trkpt lat="43.02531" lon="-0.08027">
        <ele>416.52</ele>
        <time>2018-08-25T09:13:51Z</time>
      </trkpt>
      <trkpt lat="43.02549" lon="-0.08006">
        <ele>416.52</ele>
        <time>2018-08-25T09:13:55Z</time>
      </trkpt>
      <trkpt lat="43.02563" lon="-0.07989">
        <ele>414.91</ele>
        <time>2018-08-25T09:13:58Z</time>
      </trkpt>
      <trkpt lat="43.02581" lon="-0.0797">
        <ele>412.85</ele>
        <time>2018-08-25T09:14:02Z</time>
      </trkpt>
      <trkpt lat="43.02593" lon="-0.07947">
        <ele>410.53</ele>
        <time>2018-08-25T09:14:08Z</time>
      </trkpt>
      <trkpt lat="43.02604" lon="-0.07926">
        <ele>410.52</ele>
        <time>2018-08-25T09:14:12Z</time>
      </trkpt>
      <trkpt lat="43.02618" lon="-0.07905">
        <ele>409.61</ele>
        <time>2018-08-25T09:14:15Z</time>
      </trkpt>
      <trkpt lat="43.02632" lon="-0.07882">
        <ele>408.61</ele>
        <time>2018-08-25T09:14:19Z</time>
      </trkpt>
      <trkpt lat="43.02644" lon="-0.0786">
        <ele>409.22</ele>
        <time>2018-08-25T09:14:23Z</time>
      </trkpt>
      <trkpt lat="43.02657" lon="-0.07838">
        <ele>409.52</ele>
        <time>2018-08-25T09:14:27Z</time>
      </trkpt>
      <trkpt lat="43.02671" lon="-0.07816">
        <ele>410.51</ele>
        <time>2018-08-25T09:14:31Z</time>
      </trkpt>
      <trkpt lat="43.02661" lon="-0.07794">
        <ele>410.52</ele>
        <time>2018-08-25T09:14:36Z</time>
      </trkpt>
      <trkpt lat="43.02641" lon="-0.07788">
        <ele>410.6</ele>
        <time>2018-08-25T09:14:40Z</time>
      </trkpt>
      <trkpt lat="43.0262" lon="-0.07777">
        <ele>409.55</ele>
        <time>2018-08-25T09:14:44Z</time>
      </trkpt>
      <trkpt lat="43.02601" lon="-0.07771">
        <ele>410.22</ele>
        <time>2018-08-25T09:14:48Z</time>
      </trkpt>
      <trkpt lat="43.02587" lon="-0.0775">
        <ele>407.85</ele>
        <time>2018-08-25T09:14:52Z</time>
      </trkpt>
      <trkpt lat="43.0258" lon="-0.07725">
        <ele>407.52</ele>
        <time>2018-08-25T09:14:56Z</time>
      </trkpt>
      <trkpt lat="43.02574" lon="-0.07699">
        <ele>408.5</ele>
        <time>2018-08-25T09:15:00Z</time>
      </trkpt>
      <trkpt lat="43.02565" lon="-0.0767">
        <ele>408.52</ele>
        <time>2018-08-25T09:15:04Z</time>
      </trkpt>
      <trkpt lat="43.02557" lon="-0.07644">
        <ele>409.49</ele>
        <time>2018-08-25T09:15:07Z</time>
      </trkpt>
      <trkpt lat="43.02564" lon="-0.07621">
        <ele>409.58</ele>
        <time>2018-08-25T09:15:10Z</time>
      </trkpt>
      <trkpt lat="43.02574" lon="-0.07593">
        <ele>409.31</ele>
        <time>2018-08-25T09:15:14Z</time>
      </trkpt>
      <trkpt lat="43.0257" lon="-0.07561">
        <ele>408.61</ele>
        <time>2018-08-25T09:15:18Z</time>
      </trkpt>
      <trkpt lat="43.02571" lon="-0.07533">
        <ele>407.82</ele>
        <time>2018-08-25T09:15:21Z</time>
      </trkpt>
      <trkpt lat="43.02576" lon="-0.07508">
        <ele>406.62</ele>
        <time>2018-08-25T09:15:24Z</time>
      </trkpt>
      <trkpt lat="43.02583" lon="-0.07484">
        <ele>405.55</ele>
        <time>2018-08-25T09:15:27Z</time>
      </trkpt>
      <trkpt lat="43.02587" lon="-0.07459">
        <ele>405.8</ele>
        <time>2018-08-25T09:15:30Z</time>
      </trkpt>
      <trkpt lat="43.02575" lon="-0.07438">
        <ele>406.22</ele>
        <time>2018-08-25T09:15:35Z</time>
      </trkpt>
      <trkpt lat="43.02558" lon="-0.07416">
        <ele>408.21</ele>
        <time>2018-08-25T09:15:40Z</time>
      </trkpt>
      <trkpt lat="43.02545" lon="-0.07392">
        <ele>407.61</ele>
        <time>2018-08-25T09:15:44Z</time>
      </trkpt>
      <trkpt lat="43.02557" lon="-0.07369">
        <ele>406.53</ele>
        <time>2018-08-25T09:15:48Z</time>
      </trkpt>
      <trkpt lat="43.02572" lon="-0.07343">
        <ele>407.5</ele>
        <time>2018-08-25T09:15:52Z</time>
      </trkpt>
      <trkpt lat="43.02587" lon="-0.07325">
        <ele>405.85</ele>
        <time>2018-08-25T09:15:55Z</time>
      </trkpt>
      <trkpt lat="43.02604" lon="-0.07313">
        <ele>406.23</ele>
        <time>2018-08-25T09:15:58Z</time>
      </trkpt>
      <trkpt lat="43.02623" lon="-0.07303">
        <ele>406.51</ele>
        <time>2018-08-25T09:16:01Z</time>
      </trkpt>
      <trkpt lat="43.02642" lon="-0.07295">
        <ele>407.43</ele>
        <time>2018-08-25T09:16:04Z</time>
      </trkpt>
      <trkpt lat="43.02661" lon="-0.07288">
        <ele>408.22</ele>
        <time>2018-08-25T09:16:07Z</time>
      </trkpt>
      <trkpt lat="43.02679" lon="-0.0728">
        <ele>408.51</ele>
        <time>2018-08-25T09:16:10Z</time>
      </trkpt>
      <trkpt lat="43.02697" lon="-0.07274">
        <ele>408.73</ele>
        <time>2018-08-25T09:16:13Z</time>
      </trkpt>
      <trkpt lat="43.02716" lon="-0.0727">
        <ele>408.53</ele>
        <time>2018-08-25T09:16:16Z</time>
      </trkpt>
      <trkpt lat="43.02734" lon="-0.07249">
        <ele>406.85</ele>
        <time>2018-08-25T09:16:20Z</time>
      </trkpt>
      <trkpt lat="43.02744" lon="-0.07223">
        <ele>406.52</ele>
        <time>2018-08-25T09:16:24Z</time>
      </trkpt>
      <trkpt lat="43.02732" lon="-0.07195">
        <ele>406.52</ele>
        <time>2018-08-25T09:16:28Z</time>
      </trkpt>
      <trkpt lat="43.02728" lon="-0.0717">
        <ele>406.52</ele>
        <time>2018-08-25T09:16:31Z</time>
      </trkpt>
      <trkpt lat="43.02719" lon="-0.07148">
        <ele>405.82</ele>
        <time>2018-08-25T09:16:34Z</time>
      </trkpt>
      <trkpt lat="43.02707" lon="-0.07129">
        <ele>405.53</ele>
        <time>2018-08-25T09:16:37Z</time>
      </trkpt>
      <trkpt lat="43.02695" lon="-0.07109">
        <ele>404.82</ele>
        <time>2018-08-25T09:16:40Z</time>
      </trkpt>
      <trkpt lat="43.02693" lon="-0.0708">
        <ele>403.62</ele>
        <time>2018-08-25T09:16:43Z</time>
      </trkpt>
      <trkpt lat="43.02695" lon="-0.07054">
        <ele>402.76</ele>
        <time>2018-08-25T09:16:46Z</time>
      </trkpt>
      <trkpt lat="43.02698" lon="-0.07028">
        <ele>402.53</ele>
        <time>2018-08-25T09:16:49Z</time>
      </trkpt>
      <trkpt lat="43.02698" lon="-0.07002">
        <ele>401.55</ele>
        <time>2018-08-25T09:16:52Z</time>
      </trkpt>
      <trkpt lat="43.02694" lon="-0.06978">
        <ele>402.29</ele>
        <time>2018-08-25T09:16:55Z</time>
      </trkpt>
      <trkpt lat="43.0269" lon="-0.06952">
        <ele>403.22</ele>
        <time>2018-08-25T09:16:58Z</time>
      </trkpt>
      <trkpt lat="43.02693" lon="-0.06924">
        <ele>403.58</ele>
        <time>2018-08-25T09:17:01Z</time>
      </trkpt>
      <trkpt lat="43.02693" lon="-0.06898">
        <ele>403.52</ele>
        <time>2018-08-25T09:17:04Z</time>
      </trkpt>
      <trkpt lat="43.02692" lon="-0.0687">
        <ele>404.22</ele>
        <time>2018-08-25T09:17:07Z</time>
      </trkpt>
      <trkpt lat="43.02694" lon="-0.06844">
        <ele>404.51</ele>
        <time>2018-08-25T09:17:10Z</time>
      </trkpt>
      <trkpt lat="43.02701" lon="-0.06821">
        <ele>405.49</ele>
        <time>2018-08-25T09:17:13Z</time>
      </trkpt>
      <trkpt lat="43.0271" lon="-0.06799">
        <ele>405.52</ele>
        <time>2018-08-25T09:17:16Z</time>
      </trkpt>
      <trkpt lat="43.02719" lon="-0.06776">
        <ele>406.43</ele>
        <time>2018-08-25T09:17:19Z</time>
      </trkpt>
      <trkpt lat="43.02731" lon="-0.06755">
        <ele>405.55</ele>
        <time>2018-08-25T09:17:22Z</time>
      </trkpt>
      <trkpt lat="43.02744" lon="-0.06733">
        <ele>405.52</ele>
        <time>2018-08-25T09:17:25Z</time>
      </trkpt>
      <trkpt lat="43.02755" lon="-0.06712">
        <ele>404.82</ele>
        <time>2018-08-25T09:17:28Z</time>
      </trkpt>
      <trkpt lat="43.02769" lon="-0.06687">
        <ele>404.52</ele>
        <time>2018-08-25T09:17:32Z</time>
      </trkpt>
      <trkpt lat="43.02787" lon="-0.06667">
        <ele>404.31</ele>
        <time>2018-08-25T09:17:36Z</time>
      </trkpt>
      <trkpt lat="43.02784" lon="-0.06638">
        <ele>404.81</ele>
        <time>2018-08-25T09:17:41Z</time>
      </trkpt>
      <trkpt lat="43.02773" lon="-0.06614">
        <ele>405.43</ele>
        <time>2018-08-25T09:17:46Z</time>
      </trkpt>
      <trkpt lat="43.02765" lon="-0.06591">
        <ele>405.31</ele>
        <time>2018-08-25T09:17:50Z</time>
      </trkpt>
      <trkpt lat="43.02777" lon="-0.0657">
        <ele>405.52</ele>
        <time>2018-08-25T09:17:58Z</time>
      </trkpt>
      <trkpt lat="43.02786" lon="-0.06549">
        <ele>405.52</ele>
        <time>2018-08-25T09:18:05Z</time>
      </trkpt>
      <trkpt lat="43.02804" lon="-0.06536">
        <ele>405.52</ele>
        <time>2018-08-25T09:18:11Z</time>
      </trkpt>
      <trkpt lat="43.0282" lon="-0.06523">
        <ele>405.52</ele>
        <time>2018-08-25T09:18:16Z</time>
      </trkpt>
      <trkpt lat="43.02832" lon="-0.06503">
        <ele>405.73</ele>
        <time>2018-08-25T09:18:20Z</time>
      </trkpt>
      <trkpt lat="43.0284" lon="-0.0648">
        <ele>406.51</ele>
        <time>2018-08-25T09:18:25Z</time>
      </trkpt>
      <trkpt lat="43.02853" lon="-0.06458">
        <ele>406.52</ele>
        <time>2018-08-25T09:18:33Z</time>
      </trkpt>
      <trkpt lat="43.02862" lon="-0.06434">
        <ele>406.52</ele>
        <time>2018-08-25T09:18:42Z</time>
      </trkpt>
      <trkpt lat="43.0287" lon="-0.06407">
        <ele>407.52</ele>
        <time>2018-08-25T09:18:49Z</time>
      </trkpt>
      <trkpt lat="43.02868" lon="-0.06379">
        <ele>408.52</ele>
        <time>2018-08-25T09:18:55Z</time>
      </trkpt>
      <trkpt lat="43.02886" lon="-0.06362">
        <ele>409.49</ele>
        <time>2018-08-25T09:19:03Z</time>
      </trkpt>
      <trkpt lat="43.02905" lon="-0.06356">
        <ele>409.52</ele>
        <time>2018-08-25T09:19:10Z</time>
      </trkpt>
      <trkpt lat="43.02925" lon="-0.0636">
        <ele>409.52</ele>
        <time>2018-08-25T09:19:17Z</time>
      </trkpt>
      <trkpt lat="43.02944" lon="-0.06348">
        <ele>411.28</ele>
        <time>2018-08-25T09:19:25Z</time>
      </trkpt>
      <trkpt lat="43.02963" lon="-0.06342">
        <ele>411.82</ele>
        <time>2018-08-25T09:19:31Z</time>
      </trkpt>
      <trkpt lat="43.02983" lon="-0.06341">
        <ele>413.43</ele>
        <time>2018-08-25T09:19:37Z</time>
      </trkpt>
      <trkpt lat="43.03001" lon="-0.06335">
        <ele>415.22</ele>
        <time>2018-08-25T09:19:45Z</time>
      </trkpt>
      <trkpt lat="43.03015" lon="-0.06316">
        <ele>415.61</ele>
        <time>2018-08-25T09:19:51Z</time>
      </trkpt>
      <trkpt lat="43.03029" lon="-0.06299">
        <ele>415.43</ele>
        <time>2018-08-25T09:19:58Z</time>
      </trkpt>
      <trkpt lat="43.03042" lon="-0.06274">
        <ele>408.77</ele>
        <time>2018-08-25T09:20:08Z</time>
      </trkpt>
      <trkpt lat="43.03061" lon="-0.06262">
        <ele>408.52</ele>
        <time>2018-08-25T09:20:12Z</time>
      </trkpt>
      <trkpt lat="43.03084" lon="-0.06254">
        <ele>406.85</ele>
        <time>2018-08-25T09:20:16Z</time>
      </trkpt>
      <trkpt lat="43.03105" lon="-0.06246">
        <ele>405.56</ele>
        <time>2018-08-25T09:20:19Z</time>
      </trkpt>
      <trkpt lat="43.03127" lon="-0.06238">
        <ele>405.52</ele>
        <time>2018-08-25T09:20:22Z</time>
      </trkpt>
      <trkpt lat="43.03148" lon="-0.0623">
        <ele>404.55</ele>
        <time>2018-08-25T09:20:25Z</time>
      </trkpt>
      <trkpt lat="43.03169" lon="-0.06222">
        <ele>404.52</ele>
        <time>2018-08-25T09:20:28Z</time>
      </trkpt>
      <trkpt lat="43.03191" lon="-0.06216">
        <ele>404.52</ele>
        <time>2018-08-25T09:20:31Z</time>
      </trkpt>
      <trkpt lat="43.03212" lon="-0.06207">
        <ele>404.52</ele>
        <time>2018-08-25T09:20:34Z</time>
      </trkpt>
      <trkpt lat="43.03234" lon="-0.06198">
        <ele>404.52</ele>
        <time>2018-08-25T09:20:37Z</time>
      </trkpt>
      <trkpt lat="43.03256" lon="-0.06189">
        <ele>404.52</ele>
        <time>2018-08-25T09:20:40Z</time>
      </trkpt>
      <trkpt lat="43.03277" lon="-0.06181">
        <ele>403.76</ele>
        <time>2018-08-25T09:20:43Z</time>
      </trkpt>
      <trkpt lat="43.03299" lon="-0.06172">
        <ele>403.53</ele>
        <time>2018-08-25T09:20:46Z</time>
      </trkpt>
      <trkpt lat="43.0332" lon="-0.06165">
        <ele>402.82</ele>
        <time>2018-08-25T09:20:49Z</time>
      </trkpt>
      <trkpt lat="43.03342" lon="-0.06155">
        <ele>401.83</ele>
        <time>2018-08-25T09:20:52Z</time>
      </trkpt>
      <trkpt lat="43.03364" lon="-0.06147">
        <ele>401.53</ele>
        <time>2018-08-25T09:20:55Z</time>
      </trkpt>
      <trkpt lat="43.03386" lon="-0.06139">
        <ele>401.52</ele>
        <time>2018-08-25T09:20:58Z</time>
      </trkpt>
      <trkpt lat="43.03408" lon="-0.06137">
        <ele>402.43</ele>
        <time>2018-08-25T09:21:01Z</time>
      </trkpt>
      <trkpt lat="43.03428" lon="-0.06132">
        <ele>401.53</ele>
        <time>2018-08-25T09:21:05Z</time>
      </trkpt>
      <trkpt lat="43.03433" lon="-0.06162">
        <ele>402.52</ele>
        <time>2018-08-25T09:21:14Z</time>
      </trkpt>
      <trkpt lat="43.03445" lon="-0.06181">
        <ele>403.52</ele>
        <time>2018-08-25T09:21:22Z</time>
      </trkpt>
      <trkpt lat="43.03463" lon="-0.06173">
        <ele>403.82</ele>
        <time>2018-08-25T09:21:27Z</time>
      </trkpt>
      <trkpt lat="43.03483" lon="-0.06164">
        <ele>403.52</ele>
        <time>2018-08-25T09:21:32Z</time>
      </trkpt>
      <trkpt lat="43.03502" lon="-0.06178">
        <ele>406.19</ele>
        <time>2018-08-25T09:21:38Z</time>
      </trkpt>
      <trkpt lat="43.03511" lon="-0.06199">
        <ele>407.49</ele>
        <time>2018-08-25T09:21:42Z</time>
      </trkpt>
      <trkpt lat="43.03529" lon="-0.06203">
        <ele>408.49</ele>
        <time>2018-08-25T09:21:49Z</time>
      </trkpt>
      <trkpt lat="43.03547" lon="-0.06206">
        <ele>410.2</ele>
        <time>2018-08-25T09:21:57Z</time>
      </trkpt>
      <trkpt lat="43.03565" lon="-0.06213">
        <ele>410.52</ele>
        <time>2018-08-25T09:22:05Z</time>
      </trkpt>
      <trkpt lat="43.03586" lon="-0.06214">
        <ele>411.22</ele>
        <time>2018-08-25T09:22:11Z</time>
      </trkpt>
      <trkpt lat="43.03605" lon="-0.06207">
        <ele>411.52</ele>
        <time>2018-08-25T09:22:18Z</time>
      </trkpt>
      <trkpt lat="43.03625" lon="-0.06207">
        <ele>412.52</ele>
        <time>2018-08-25T09:22:25Z</time>
      </trkpt>
      <trkpt lat="43.03644" lon="-0.06212">
        <ele>411.82</ele>
        <time>2018-08-25T09:22:30Z</time>
      </trkpt>
      <trkpt lat="43.03663" lon="-0.06205">
        <ele>412.51</ele>
        <time>2018-08-25T09:22:36Z</time>
      </trkpt>
      <trkpt lat="43.03681" lon="-0.06219">
        <ele>411.73</ele>
        <time>2018-08-25T09:22:44Z</time>
      </trkpt>
      <trkpt lat="43.03702" lon="-0.0622">
        <ele>412.51</ele>
        <time>2018-08-25T09:22:50Z</time>
      </trkpt>
      <trkpt lat="43.03722" lon="-0.0622">
        <ele>412.52</ele>
        <time>2018-08-25T09:22:56Z</time>
      </trkpt>
      <trkpt lat="43.03741" lon="-0.06211">
        <ele>412.52</ele>
        <time>2018-08-25T09:23:01Z</time>
      </trkpt>
      <trkpt lat="43.03758" lon="-0.06199">
        <ele>412.53</ele>
        <time>2018-08-25T09:23:07Z</time>
      </trkpt>
      <trkpt lat="43.03775" lon="-0.0619">
        <ele>412.52</ele>
        <time>2018-08-25T09:23:13Z</time>
      </trkpt>
      <trkpt lat="43.03785" lon="-0.06169">
        <ele>412.52</ele>
        <time>2018-08-25T09:23:19Z</time>
      </trkpt>
      <trkpt lat="43.03803" lon="-0.06167">
        <ele>412.43</ele>
        <time>2018-08-25T09:23:25Z</time>
      </trkpt>
      <trkpt lat="43.03815" lon="-0.06186">
        <ele>412.43</ele>
        <time>2018-08-25T09:23:31Z</time>
      </trkpt>
      <trkpt lat="43.03832" lon="-0.06199">
        <ele>412.22</ele>
        <time>2018-08-25T09:23:40Z</time>
      </trkpt>
      <trkpt lat="43.03851" lon="-0.06194">
        <ele>414.22</ele>
        <time>2018-08-25T09:23:48Z</time>
      </trkpt>
      <trkpt lat="43.03872" lon="-0.06191">
        <ele>414.52</ele>
        <time>2018-08-25T09:23:54Z</time>
      </trkpt>
      <trkpt lat="43.03891" lon="-0.06186">
        <ele>415.49</ele>
        <time>2018-08-25T09:24:00Z</time>
      </trkpt>
      <trkpt lat="43.0391" lon="-0.06176">
        <ele>416.49</ele>
        <time>2018-08-25T09:24:07Z</time>
      </trkpt>
      <trkpt lat="43.03929" lon="-0.0617">
        <ele>416.52</ele>
        <time>2018-08-25T09:24:13Z</time>
      </trkpt>
      <trkpt lat="43.03949" lon="-0.06168">
        <ele>417.22</ele>
        <time>2018-08-25T09:24:20Z</time>
      </trkpt>
      <trkpt lat="43.03969" lon="-0.06161">
        <ele>417.52</ele>
        <time>2018-08-25T09:24:27Z</time>
      </trkpt>
      <trkpt lat="43.03987" lon="-0.06155">
        <ele>417.52</ele>
        <time>2018-08-25T09:24:32Z</time>
      </trkpt>
      <trkpt lat="43.04005" lon="-0.06146">
        <ele>418.46</ele>
        <time>2018-08-25T09:24:39Z</time>
      </trkpt>
      <trkpt lat="43.04023" lon="-0.06137">
        <ele>416.55</ele>
        <time>2018-08-25T09:24:48Z</time>
      </trkpt>
      <trkpt lat="43.0404" lon="-0.06128">
        <ele>416.52</ele>
        <time>2018-08-25T09:25:17Z</time>
      </trkpt>
      <trkpt lat="43.04059" lon="-0.06118">
        <ele>417.51</ele>
        <time>2018-08-25T09:25:29Z</time>
      </trkpt>
      <trkpt lat="43.04074" lon="-0.06099">
        <ele>416.64</ele>
        <time>2018-08-25T09:25:34Z</time>
      </trkpt>
      <trkpt lat="43.04092" lon="-0.06088">
        <ele>415.31</ele>
        <time>2018-08-25T09:25:39Z</time>
      </trkpt>
      <trkpt lat="43.04111" lon="-0.06089">
        <ele>415.52</ele>
        <time>2018-08-25T09:25:44Z</time>
      </trkpt>
      <trkpt lat="43.04129" lon="-0.06101">
        <ele>414.82</ele>
        <time>2018-08-25T09:25:49Z</time>
      </trkpt>
      <trkpt lat="43.0415" lon="-0.06114">
        <ele>413.53</ele>
        <time>2018-08-25T09:25:54Z</time>
      </trkpt>
      <trkpt lat="43.04169" lon="-0.06127">
        <ele>412.55</ele>
        <time>2018-08-25T09:25:58Z</time>
      </trkpt>
      <trkpt lat="43.04193" lon="-0.0613">
        <ele>410.64</ele>
        <time>2018-08-25T09:26:02Z</time>
      </trkpt>
      <trkpt lat="43.04211" lon="-0.06113">
        <ele>410.52</ele>
        <time>2018-08-25T09:26:06Z</time>
      </trkpt>
      <trkpt lat="43.04228" lon="-0.06099">
        <ele>411.22</ele>
        <time>2018-08-25T09:26:09Z</time>
      </trkpt>
      <trkpt lat="43.04245" lon="-0.06089">
        <ele>412.42</ele>
        <time>2018-08-25T09:26:12Z</time>
      </trkpt>
      <trkpt lat="43.04264" lon="-0.06074">
        <ele>413.43</ele>
        <time>2018-08-25T09:26:16Z</time>
      </trkpt>
      <trkpt lat="43.0428" lon="-0.06051">
        <ele>414.49</ele>
        <time>2018-08-25T09:26:20Z</time>
      </trkpt>
      <trkpt lat="43.0429" lon="-0.0603">
        <ele>415.43</ele>
        <time>2018-08-25T09:26:23Z</time>
      </trkpt>
      <trkpt lat="43.04294" lon="-0.06006">
        <ele>416.43</ele>
        <time>2018-08-25T09:26:26Z</time>
      </trkpt>
      <trkpt lat="43.04291" lon="-0.05981">
        <ele>414.83</ele>
        <time>2018-08-25T09:26:30Z</time>
      </trkpt>
      <trkpt lat="43.04294" lon="-0.05953">
        <ele>411.94</ele>
        <time>2018-08-25T09:26:34Z</time>
      </trkpt>
      <trkpt lat="43.04301" lon="-0.05928">
        <ele>408.65</ele>
        <time>2018-08-25T09:26:38Z</time>
      </trkpt>
      <trkpt lat="43.04305" lon="-0.05902">
        <ele>406.62</ele>
        <time>2018-08-25T09:26:42Z</time>
      </trkpt>
      <trkpt lat="43.04309" lon="-0.05876">
        <ele>407.22</ele>
        <time>2018-08-25T09:26:45Z</time>
      </trkpt>
      <trkpt lat="43.04316" lon="-0.05851">
        <ele>408.49</ele>
        <time>2018-08-25T09:26:49Z</time>
      </trkpt>
      <trkpt lat="43.04325" lon="-0.05824">
        <ele>408.52</ele>
        <time>2018-08-25T09:26:53Z</time>
      </trkpt>
      <trkpt lat="43.04338" lon="-0.058">
        <ele>407.55</ele>
        <time>2018-08-25T09:26:57Z</time>
      </trkpt>
      <trkpt lat="43.04355" lon="-0.05781">
        <ele>408.22</ele>
        <time>2018-08-25T09:27:00Z</time>
      </trkpt>
      <trkpt lat="43.04372" lon="-0.05764">
        <ele>408.72</ele>
        <time>2018-08-25T09:27:03Z</time>
      </trkpt>
      <trkpt lat="43.04389" lon="-0.05749">
        <ele>408.53</ele>
        <time>2018-08-25T09:27:06Z</time>
      </trkpt>
      <trkpt lat="43.04407" lon="-0.05741">
        <ele>409.5</ele>
        <time>2018-08-25T09:27:09Z</time>
      </trkpt>
      <trkpt lat="43.0442" lon="-0.05723">
        <ele>408.82</ele>
        <time>2018-08-25T09:27:12Z</time>
      </trkpt>
      <trkpt lat="43.04435" lon="-0.05707">
        <ele>407.83</ele>
        <time>2018-08-25T09:27:15Z</time>
      </trkpt>
      <trkpt lat="43.04455" lon="-0.0569">
        <ele>405.62</ele>
        <time>2018-08-25T09:27:19Z</time>
      </trkpt>
      <trkpt lat="43.04472" lon="-0.0568">
        <ele>405.73</ele>
        <time>2018-08-25T09:27:22Z</time>
      </trkpt>
      <trkpt lat="43.0449" lon="-0.05666">
        <ele>405.53</ele>
        <time>2018-08-25T09:27:25Z</time>
      </trkpt>
      <trkpt lat="43.04505" lon="-0.05649">
        <ele>405.46</ele>
        <time>2018-08-25T09:27:28Z</time>
      </trkpt>
      <trkpt lat="43.04519" lon="-0.05631">
        <ele>405.52</ele>
        <time>2018-08-25T09:27:31Z</time>
      </trkpt>
      <trkpt lat="43.04536" lon="-0.05615">
        <ele>405.52</ele>
        <time>2018-08-25T09:27:34Z</time>
      </trkpt>
      <trkpt lat="43.04552" lon="-0.05602">
        <ele>405.52</ele>
        <time>2018-08-25T09:27:37Z</time>
      </trkpt>
      <trkpt lat="43.04562" lon="-0.05578">
        <ele>406.51</ele>
        <time>2018-08-25T09:27:42Z</time>
      </trkpt>
      <trkpt lat="43.04577" lon="-0.0556">
        <ele>406.52</ele>
        <time>2018-08-25T09:27:46Z</time>
      </trkpt>
      <trkpt lat="43.04596" lon="-0.05543">
        <ele>406.52</ele>
        <time>2018-08-25T09:27:50Z</time>
      </trkpt>
      <trkpt lat="43.04615" lon="-0.05527">
        <ele>406.52</ele>
        <time>2018-08-25T09:27:54Z</time>
      </trkpt>
      <trkpt lat="43.0463" lon="-0.05509">
        <ele>406.52</ele>
        <time>2018-08-25T09:27:57Z</time>
      </trkpt>
      <trkpt lat="43.04646" lon="-0.05493">
        <ele>406.6</ele>
        <time>2018-08-25T09:28:01Z</time>
      </trkpt>
      <trkpt lat="43.04663" lon="-0.05475">
        <ele>407.43</ele>
        <time>2018-08-25T09:28:04Z</time>
      </trkpt>
      <trkpt lat="43.04679" lon="-0.05462">
        <ele>407.52</ele>
        <time>2018-08-25T09:28:07Z</time>
      </trkpt>
      <trkpt lat="43.04695" lon="-0.05446">
        <ele>407.58</ele>
        <time>2018-08-25T09:28:10Z</time>
      </trkpt>
      <trkpt lat="43.04709" lon="-0.05426">
        <ele>408.5</ele>
        <time>2018-08-25T09:28:14Z</time>
      </trkpt>
      <trkpt lat="43.04717" lon="-0.05404">
        <ele>408.52</ele>
        <time>2018-08-25T09:28:18Z</time>
      </trkpt>
      <trkpt lat="43.0473" lon="-0.05381">
        <ele>408.52</ele>
        <time>2018-08-25T09:28:24Z</time>
      </trkpt>
      <trkpt lat="43.04744" lon="-0.05361">
        <ele>408.54</ele>
        <time>2018-08-25T09:28:29Z</time>
      </trkpt>
      <trkpt lat="43.04762" lon="-0.05358">
        <ele>408.52</ele>
        <time>2018-08-25T09:28:34Z</time>
      </trkpt>
      <trkpt lat="43.0478" lon="-0.05351">
        <ele>409.22</ele>
        <time>2018-08-25T09:28:39Z</time>
      </trkpt>
      <trkpt lat="43.04791" lon="-0.05331">
        <ele>408.82</ele>
        <time>2018-08-25T09:28:44Z</time>
      </trkpt>
      <trkpt lat="43.04812" lon="-0.05324">
        <ele>408.52</ele>
        <time>2018-08-25T09:28:49Z</time>
      </trkpt>
      <trkpt lat="43.04833" lon="-0.05328">
        <ele>409.22</ele>
        <time>2018-08-25T09:28:55Z</time>
      </trkpt>
      <trkpt lat="43.04849" lon="-0.05313">
        <ele>410.49</ele>
        <time>2018-08-25T09:28:59Z</time>
      </trkpt>
      <trkpt lat="43.04865" lon="-0.05296">
        <ele>410.31</ele>
        <time>2018-08-25T09:29:04Z</time>
      </trkpt>
      <trkpt lat="43.04874" lon="-0.0527">
        <ele>407.7</ele>
        <time>2018-08-25T09:29:09Z</time>
      </trkpt>
      <trkpt lat="43.0489" lon="-0.0525">
        <ele>407.23</ele>
        <time>2018-08-25T09:29:13Z</time>
      </trkpt>
      <trkpt lat="43.04904" lon="-0.05229">
        <ele>405.91</ele>
        <time>2018-08-25T09:29:17Z</time>
      </trkpt>
      <trkpt lat="43.0492" lon="-0.05213">
        <ele>404.53</ele>
        <time>2018-08-25T09:29:21Z</time>
      </trkpt>
      <trkpt lat="43.0494" lon="-0.05206">
        <ele>405.22</ele>
        <time>2018-08-25T09:29:26Z</time>
      </trkpt>
      <trkpt lat="43.04948" lon="-0.05182">
        <ele>406.52</ele>
        <time>2018-08-25T09:29:31Z</time>
      </trkpt>
      <trkpt lat="43.04965" lon="-0.05166">
        <ele>406.52</ele>
        <time>2018-08-25T09:29:35Z</time>
      </trkpt>
      <trkpt lat="43.04983" lon="-0.05179">
        <ele>406.52</ele>
        <time>2018-08-25T09:29:39Z</time>
      </trkpt>
      <trkpt lat="43.05002" lon="-0.05185">
        <ele>406.5</ele>
        <time>2018-08-25T09:29:43Z</time>
      </trkpt>
      <trkpt lat="43.05021" lon="-0.05192">
        <ele>405.61</ele>
        <time>2018-08-25T09:29:47Z</time>
      </trkpt>
      <trkpt lat="43.0504" lon="-0.05183">
        <ele>406.43</ele>
        <time>2018-08-25T09:29:51Z</time>
      </trkpt>
      <trkpt lat="43.0506" lon="-0.05174">
        <ele>406.54</ele>
        <time>2018-08-25T09:29:55Z</time>
      </trkpt>
      <trkpt lat="43.05081" lon="-0.05163">
        <ele>405.82</ele>
        <time>2018-08-25T09:29:59Z</time>
      </trkpt>
      <trkpt lat="43.05101" lon="-0.0515">
        <ele>406.43</ele>
        <time>2018-08-25T09:30:03Z</time>
      </trkpt>
      <trkpt lat="43.0512" lon="-0.0513">
        <ele>409.19</ele>
        <time>2018-08-25T09:30:07Z</time>
      </trkpt>
      <trkpt lat="43.05137" lon="-0.05114">
        <ele>409.46</ele>
        <time>2018-08-25T09:30:11Z</time>
      </trkpt>
      <trkpt lat="43.05155" lon="-0.05097">
        <ele>408.82</ele>
        <time>2018-08-25T09:30:15Z</time>
      </trkpt>
      <trkpt lat="43.05168" lon="-0.0508">
        <ele>409.5</ele>
        <time>2018-08-25T09:30:19Z</time>
      </trkpt>
      <trkpt lat="43.05183" lon="-0.05063">
        <ele>407.82</ele>
        <time>2018-08-25T09:31:12Z</time>
      </trkpt>
      <trkpt lat="43.05197" lon="-0.05041">
        <ele>406.53</ele>
        <time>2018-08-25T09:31:18Z</time>
      </trkpt>
      <trkpt lat="43.05207" lon="-0.0502">
        <ele>402.95</ele>
        <time>2018-08-25T09:31:22Z</time>
      </trkpt>
      <trkpt lat="43.05225" lon="-0.05003">
        <ele>401.25</ele>
        <time>2018-08-25T09:31:27Z</time>
      </trkpt>
      <trkpt lat="43.05244" lon="-0.0499">
        <ele>403.19</ele>
        <time>2018-08-25T09:31:32Z</time>
      </trkpt>
      <trkpt lat="43.05261" lon="-0.04979">
        <ele>405.21</ele>
        <time>2018-08-25T09:31:37Z</time>
      </trkpt>
      <trkpt lat="43.05279" lon="-0.04967">
        <ele>406.22</ele>
        <time>2018-08-25T09:31:43Z</time>
      </trkpt>
      <trkpt lat="43.05295" lon="-0.04951">
        <ele>407.22</ele>
        <time>2018-08-25T09:31:48Z</time>
      </trkpt>
      <trkpt lat="43.05296" lon="-0.04923">
        <ele>408.52</ele>
        <time>2018-08-25T09:31:55Z</time>
      </trkpt>
      <trkpt lat="43.05304" lon="-0.04899">
        <ele>408.52</ele>
        <time>2018-08-25T09:32:04Z</time>
      </trkpt>
      <trkpt lat="43.05319" lon="-0.04886">
        <ele>407.25</ele>
        <time>2018-08-25T09:32:14Z</time>
      </trkpt>
      <trkpt lat="43.0534" lon="-0.04876">
        <ele>407.33</ele>
        <time>2018-08-25T09:32:19Z</time>
      </trkpt>
      <trkpt lat="43.05355" lon="-0.04858">
        <ele>409.21</ele>
        <time>2018-08-25T09:32:23Z</time>
      </trkpt>
      <trkpt lat="43.0537" lon="-0.04837">
        <ele>409.52</ele>
        <time>2018-08-25T09:32:27Z</time>
      </trkpt>
      <trkpt lat="43.05387" lon="-0.04821">
        <ele>411.42</ele>
        <time>2018-08-25T09:32:31Z</time>
      </trkpt>
      <trkpt lat="43.05404" lon="-0.04813">
        <ele>412.49</ele>
        <time>2018-08-25T09:32:35Z</time>
      </trkpt>
      <trkpt lat="43.05423" lon="-0.04797">
        <ele>412.52</ele>
        <time>2018-08-25T09:32:40Z</time>
      </trkpt>
      <trkpt lat="43.05442" lon="-0.04799">
        <ele>413.52</ele>
        <time>2018-08-25T09:32:47Z</time>
      </trkpt>
      <trkpt lat="43.0546" lon="-0.04783">
        <ele>412.53</ele>
        <time>2018-08-25T09:32:54Z</time>
      </trkpt>
      <trkpt lat="43.0547" lon="-0.04762">
        <ele>411.61</ele>
        <time>2018-08-25T09:32:59Z</time>
      </trkpt>
      <trkpt lat="43.05477" lon="-0.04739">
        <ele>410.61</ele>
        <time>2018-08-25T09:33:04Z</time>
      </trkpt>
      <trkpt lat="43.05489" lon="-0.04715">
        <ele>409.82</ele>
        <time>2018-08-25T09:33:10Z</time>
      </trkpt>
      <trkpt lat="43.05501" lon="-0.04692">
        <ele>406.65</ele>
        <time>2018-08-25T09:33:15Z</time>
      </trkpt>
      <trkpt lat="43.05513" lon="-0.04671">
        <ele>405.82</ele>
        <time>2018-08-25T09:33:21Z</time>
      </trkpt>
      <trkpt lat="43.05526" lon="-0.04649">
        <ele>406.24</ele>
        <time>2018-08-25T09:33:27Z</time>
      </trkpt>
      <trkpt lat="43.05538" lon="-0.0463">
        <ele>405.52</ele>
        <time>2018-08-25T09:33:38Z</time>
      </trkpt>
      <trkpt lat="43.05545" lon="-0.04606">
        <ele>404.82</ele>
        <time>2018-08-25T09:33:54Z</time>
      </trkpt>
      <trkpt lat="43.05548" lon="-0.04576">
        <ele>403.61</ele>
        <time>2018-08-25T09:34:01Z</time>
      </trkpt>
      <trkpt lat="43.05551" lon="-0.0455">
        <ele>402.61</ele>
        <time>2018-08-25T09:34:06Z</time>
      </trkpt>
      <trkpt lat="43.05563" lon="-0.04527">
        <ele>401.61</ele>
        <time>2018-08-25T09:34:10Z</time>
      </trkpt>
      <trkpt lat="43.05575" lon="-0.04502">
        <ele>399.83</ele>
        <time>2018-08-25T09:34:14Z</time>
      </trkpt>
      <trkpt lat="43.0559" lon="-0.04483">
        <ele>400.51</ele>
        <time>2018-08-25T09:34:19Z</time>
      </trkpt>
      <trkpt lat="43.05595" lon="-0.04458">
        <ele>400.61</ele>
        <time>2018-08-25T09:34:26Z</time>
      </trkpt>
      <trkpt lat="43.05587" lon="-0.04435">
        <ele>398.85</ele>
        <time>2018-08-25T09:34:35Z</time>
      </trkpt>
      <trkpt lat="43.05606" lon="-0.04429">
        <ele>397.82</ele>
        <time>2018-08-25T09:34:43Z</time>
      </trkpt>
      <trkpt lat="43.05622" lon="-0.04418">
        <ele>395.53</ele>
        <time>2018-08-25T09:34:50Z</time>
      </trkpt>
      <trkpt lat="43.05638" lon="-0.044">
        <ele>395.25</ele>
        <time>2018-08-25T09:34:59Z</time>
      </trkpt>
      <trkpt lat="43.05654" lon="-0.04389">
        <ele>394.52</ele>
        <time>2018-08-25T09:35:06Z</time>
      </trkpt>
      <trkpt lat="43.05673" lon="-0.04384">
        <ele>394.52</ele>
        <time>2018-08-25T09:35:14Z</time>
      </trkpt>
      <trkpt lat="43.05691" lon="-0.04367">
        <ele>394.52</ele>
        <time>2018-08-25T09:35:20Z</time>
      </trkpt>
      <trkpt lat="43.05706" lon="-0.04352">
        <ele>394.52</ele>
        <time>2018-08-25T09:35:26Z</time>
      </trkpt>
      <trkpt lat="43.05719" lon="-0.04334">
        <ele>393.52</ele>
        <time>2018-08-25T09:35:40Z</time>
      </trkpt>
      <trkpt lat="43.05733" lon="-0.04316">
        <ele>389.52</ele>
        <time>2018-08-25T09:35:58Z</time>
      </trkpt>
      <trkpt lat="43.05748" lon="-0.04296">
        <ele>392.43</ele>
        <time>2018-08-25T09:36:10Z</time>
      </trkpt>
      <trkpt lat="43.05759" lon="-0.04275">
        <ele>391.53</ele>
        <time>2018-08-25T09:36:15Z</time>
      </trkpt>
      <trkpt lat="43.05777" lon="-0.04267">
        <ele>391.52</ele>
        <time>2018-08-25T09:36:21Z</time>
      </trkpt>
      <trkpt lat="43.05795" lon="-0.0426">
        <ele>392.52</ele>
        <time>2018-08-25T09:36:28Z</time>
      </trkpt>
      <trkpt lat="43.05808" lon="-0.04242">
        <ele>393.14</ele>
        <time>2018-08-25T09:36:33Z</time>
      </trkpt>
      <trkpt lat="43.05825" lon="-0.04227">
        <ele>393.61</ele>
        <time>2018-08-25T09:36:40Z</time>
      </trkpt>
      <trkpt lat="43.05835" lon="-0.04203">
        <ele>393.52</ele>
        <time>2018-08-25T09:36:50Z</time>
      </trkpt>
      <trkpt lat="43.05854" lon="-0.04189">
        <ele>394.49</ele>
        <time>2018-08-25T09:36:55Z</time>
      </trkpt>
      <trkpt lat="43.05873" lon="-0.04178">
        <ele>394.73</ele>
        <time>2018-08-25T09:36:59Z</time>
      </trkpt>
      <trkpt lat="43.0589" lon="-0.04167">
        <ele>395.5</ele>
        <time>2018-08-25T09:37:02Z</time>
      </trkpt>
      <trkpt lat="43.0591" lon="-0.04155">
        <ele>395.52</ele>
        <time>2018-08-25T09:37:05Z</time>
      </trkpt>
      <trkpt lat="43.05929" lon="-0.04143">
        <ele>395.52</ele>
        <time>2018-08-25T09:37:08Z</time>
      </trkpt>
      <trkpt lat="43.05948" lon="-0.04132">
        <ele>396.43</ele>
        <time>2018-08-25T09:37:11Z</time>
      </trkpt>
      <trkpt lat="43.05968" lon="-0.04121">
        <ele>397.49</ele>
        <time>2018-08-25T09:37:14Z</time>
      </trkpt>
      <trkpt lat="43.05987" lon="-0.04108">
        <ele>399.13</ele>
        <time>2018-08-25T09:37:17Z</time>
      </trkpt>
      <trkpt lat="43.06006" lon="-0.04093">
        <ele>403.77</ele>
        <time>2018-08-25T09:37:20Z</time>
      </trkpt>
      <trkpt lat="43.06026" lon="-0.04085">
        <ele>406.38</ele>
        <time>2018-08-25T09:37:23Z</time>
      </trkpt>
      <trkpt lat="43.06045" lon="-0.04076">
        <ele>407.49</ele>
        <time>2018-08-25T09:37:26Z</time>
      </trkpt>
      <trkpt lat="43.06063" lon="-0.04067">
        <ele>408.49</ele>
        <time>2018-08-25T09:37:29Z</time>
      </trkpt>
      <trkpt lat="43.06082" lon="-0.04057">
        <ele>410.47</ele>
        <time>2018-08-25T09:37:32Z</time>
      </trkpt>
      <trkpt lat="43.061" lon="-0.04048">
        <ele>411.49</ele>
        <time>2018-08-25T09:37:35Z</time>
      </trkpt>
      <trkpt lat="43.06118" lon="-0.04038">
        <ele>411.52</ele>
        <time>2018-08-25T09:37:38Z</time>
      </trkpt>
      <trkpt lat="43.06137" lon="-0.0403">
        <ele>412.22</ele>
        <time>2018-08-25T09:37:41Z</time>
      </trkpt>
      <trkpt lat="43.06156" lon="-0.04023">
        <ele>412.45</ele>
        <time>2018-08-25T09:37:44Z</time>
      </trkpt>
      <trkpt lat="43.06176" lon="-0.04018">
        <ele>412.52</ele>
        <time>2018-08-25T09:37:47Z</time>
      </trkpt>
      <trkpt lat="43.06196" lon="-0.04015">
        <ele>412.52</ele>
        <time>2018-08-25T09:37:50Z</time>
      </trkpt>
      <trkpt lat="43.06217" lon="-0.04013">
        <ele>412.52</ele>
        <time>2018-08-25T09:37:53Z</time>
      </trkpt>
      <trkpt lat="43.06237" lon="-0.0401">
        <ele>412.52</ele>
        <time>2018-08-25T09:37:56Z</time>
      </trkpt>
      <trkpt lat="43.06256" lon="-0.04008">
        <ele>410.85</ele>
        <time>2018-08-25T09:37:59Z</time>
      </trkpt>
      <trkpt lat="43.06277" lon="-0.04009">
        <ele>407.25</ele>
        <time>2018-08-25T09:38:02Z</time>
      </trkpt>
      <trkpt lat="43.06296" lon="-0.04006">
        <ele>406.33</ele>
        <time>2018-08-25T09:38:05Z</time>
      </trkpt>
      <trkpt lat="43.06314" lon="-0.04">
        <ele>406.52</ele>
        <time>2018-08-25T09:38:08Z</time>
      </trkpt>
      <trkpt lat="43.06333" lon="-0.04">
        <ele>406.52</ele>
        <time>2018-08-25T09:38:11Z</time>
      </trkpt>
      <trkpt lat="43.06354" lon="-0.04">
        <ele>405.55</ele>
        <time>2018-08-25T09:38:14Z</time>
      </trkpt>
      <trkpt lat="43.06373" lon="-0.04">
        <ele>405.52</ele>
        <time>2018-08-25T09:38:17Z</time>
      </trkpt>
      <trkpt lat="43.06393" lon="-0.03998">
        <ele>403.85</ele>
        <time>2018-08-25T09:38:20Z</time>
      </trkpt>
      <trkpt lat="43.06413" lon="-0.03997">
        <ele>403.53</ele>
        <time>2018-08-25T09:38:23Z</time>
      </trkpt>
      <trkpt lat="43.06433" lon="-0.03996">
        <ele>402.82</ele>
        <time>2018-08-25T09:38:26Z</time>
      </trkpt>
      <trkpt lat="43.06453" lon="-0.03996">
        <ele>402.53</ele>
        <time>2018-08-25T09:38:29Z</time>
      </trkpt>
      <trkpt lat="43.06472" lon="-0.03994">
        <ele>402.73</ele>
        <time>2018-08-25T09:38:32Z</time>
      </trkpt>
      <trkpt lat="43.06491" lon="-0.03992">
        <ele>402.53</ele>
        <time>2018-08-25T09:38:35Z</time>
      </trkpt>
      <trkpt lat="43.06511" lon="-0.03991">
        <ele>402.52</ele>
        <time>2018-08-25T09:38:38Z</time>
      </trkpt>
      <trkpt lat="43.06531" lon="-0.03992">
        <ele>403.43</ele>
        <time>2018-08-25T09:38:41Z</time>
      </trkpt>
      <trkpt lat="43.06551" lon="-0.03992">
        <ele>404.22</ele>
        <time>2018-08-25T09:38:44Z</time>
      </trkpt>
      <trkpt lat="43.06571" lon="-0.03992">
        <ele>405.42</ele>
        <time>2018-08-25T09:38:47Z</time>
      </trkpt>
      <trkpt lat="43.06591" lon="-0.03994">
        <ele>404.82</ele>
        <time>2018-08-25T09:38:50Z</time>
      </trkpt>
      <trkpt lat="43.06611" lon="-0.03995">
        <ele>404.53</ele>
        <time>2018-08-25T09:38:53Z</time>
      </trkpt>
      <trkpt lat="43.06631" lon="-0.03996">
        <ele>404.52</ele>
        <time>2018-08-25T09:38:56Z</time>
      </trkpt>
      <trkpt lat="43.0665" lon="-0.03999">
        <ele>404.52</ele>
        <time>2018-08-25T09:38:59Z</time>
      </trkpt>
      <trkpt lat="43.06668" lon="-0.04002">
        <ele>403.55</ele>
        <time>2018-08-25T09:39:02Z</time>
      </trkpt>
      <trkpt lat="43.0669" lon="-0.04008">
        <ele>402.61</ele>
        <time>2018-08-25T09:39:05Z</time>
      </trkpt>
      <trkpt lat="43.0671" lon="-0.0401">
        <ele>401.55</ele>
        <time>2018-08-25T09:39:08Z</time>
      </trkpt>
      <trkpt lat="43.0673" lon="-0.04014">
        <ele>401.52</ele>
        <time>2018-08-25T09:39:11Z</time>
      </trkpt>
      <trkpt lat="43.06751" lon="-0.04021">
        <ele>401.52</ele>
        <time>2018-08-25T09:39:14Z</time>
      </trkpt>
      <trkpt lat="43.06772" lon="-0.04028">
        <ele>400.55</ele>
        <time>2018-08-25T09:39:17Z</time>
      </trkpt>
      <trkpt lat="43.06793" lon="-0.04037">
        <ele>398.91</ele>
        <time>2018-08-25T09:39:20Z</time>
      </trkpt>
      <trkpt lat="43.06813" lon="-0.04045">
        <ele>398.53</ele>
        <time>2018-08-25T09:39:23Z</time>
      </trkpt>
      <trkpt lat="43.06834" lon="-0.04051">
        <ele>398.52</ele>
        <time>2018-08-25T09:39:26Z</time>
      </trkpt>
      <trkpt lat="43.06855" lon="-0.04058">
        <ele>397.55</ele>
        <time>2018-08-25T09:39:29Z</time>
      </trkpt>
      <trkpt lat="43.06875" lon="-0.04063">
        <ele>397.52</ele>
        <time>2018-08-25T09:39:32Z</time>
      </trkpt>
      <trkpt lat="43.06895" lon="-0.04064">
        <ele>397.52</ele>
        <time>2018-08-25T09:39:35Z</time>
      </trkpt>
      <trkpt lat="43.06914" lon="-0.04069">
        <ele>398.49</ele>
        <time>2018-08-25T09:39:38Z</time>
      </trkpt>
      <trkpt lat="43.06934" lon="-0.04075">
        <ele>399.49</ele>
        <time>2018-08-25T09:39:41Z</time>
      </trkpt>
      <trkpt lat="43.06955" lon="-0.04077">
        <ele>399.52</ele>
        <time>2018-08-25T09:39:44Z</time>
      </trkpt>
      <trkpt lat="43.06977" lon="-0.04077">
        <ele>400.22</ele>
        <time>2018-08-25T09:39:47Z</time>
      </trkpt>
      <trkpt lat="43.06996" lon="-0.04076">
        <ele>400.51</ele>
        <time>2018-08-25T09:39:50Z</time>
      </trkpt>
      <trkpt lat="43.07017" lon="-0.04075">
        <ele>400.52</ele>
        <time>2018-08-25T09:39:53Z</time>
      </trkpt>
      <trkpt lat="43.07036" lon="-0.04072">
        <ele>400.52</ele>
        <time>2018-08-25T09:39:56Z</time>
      </trkpt>
      <trkpt lat="43.07055" lon="-0.04058">
        <ele>400.73</ele>
        <time>2018-08-25T09:40:00Z</time>
      </trkpt>
      <trkpt lat="43.07073" lon="-0.04046">
        <ele>402.2</ele>
        <time>2018-08-25T09:40:04Z</time>
      </trkpt>
      <trkpt lat="43.07089" lon="-0.04037">
        <ele>405.39</ele>
        <time>2018-08-25T09:40:08Z</time>
      </trkpt>
      <trkpt lat="43.0707" lon="-0.04038">
        <ele>406.52</ele>
        <time>2018-08-25T09:40:23Z</time>
      </trkpt>
      <trkpt lat="43.07049" lon="-0.04047">
        <ele>406.52</ele>
        <time>2018-08-25T09:40:27Z</time>
      </trkpt>
      <trkpt lat="43.07028" lon="-0.04057">
        <ele>407.51</ele>
        <time>2018-08-25T09:40:31Z</time>
      </trkpt>
      <trkpt lat="43.07008" lon="-0.04067">
        <ele>407.52</ele>
        <time>2018-08-25T09:40:35Z</time>
      </trkpt>
      <trkpt lat="43.06988" lon="-0.04071">
        <ele>406.34</ele>
        <time>2018-08-25T09:40:39Z</time>
      </trkpt>
      <trkpt lat="43.06967" lon="-0.04068">
        <ele>406.52</ele>
        <time>2018-08-25T09:40:43Z</time>
      </trkpt>
      <trkpt lat="43.06945" lon="-0.04066">
        <ele>407.22</ele>
        <time>2018-08-25T09:40:47Z</time>
      </trkpt>
      <trkpt lat="43.06926" lon="-0.04061">
        <ele>408.49</ele>
        <time>2018-08-25T09:40:51Z</time>
      </trkpt>
      <trkpt lat="43.06906" lon="-0.04056">
        <ele>408.52</ele>
        <time>2018-08-25T09:40:55Z</time>
      </trkpt>
      <trkpt lat="43.06887" lon="-0.04054">
        <ele>407.82</ele>
        <time>2018-08-25T09:40:59Z</time>
      </trkpt>
      <trkpt lat="43.06872" lon="-0.04079">
        <ele>407.54</ele>
        <time>2018-08-25T09:41:03Z</time>
      </trkpt>
      <trkpt lat="43.06858" lon="-0.041">
        <ele>406.82</ele>
        <time>2018-08-25T09:41:06Z</time>
      </trkpt>
      <trkpt lat="43.06844" lon="-0.04121">
        <ele>403.95</ele>
        <time>2018-08-25T09:41:09Z</time>
      </trkpt>
      <trkpt lat="43.06831" lon="-0.04142">
        <ele>402.56</ele>
        <time>2018-08-25T09:41:12Z</time>
      </trkpt>
      <trkpt lat="43.06824" lon="-0.04166">
        <ele>403.43</ele>
        <time>2018-08-25T09:41:15Z</time>
      </trkpt>
      <trkpt lat="43.06816" lon="-0.0419">
        <ele>403.52</ele>
        <time>2018-08-25T09:41:18Z</time>
      </trkpt>
      <trkpt lat="43.06809" lon="-0.04213">
        <ele>403.52</ele>
        <time>2018-08-25T09:41:21Z</time>
      </trkpt>
      <trkpt lat="43.068" lon="-0.04242">
        <ele>404.51</ele>
        <time>2018-08-25T09:41:25Z</time>
      </trkpt>
      <trkpt lat="43.06804" lon="-0.04271">
        <ele>406.21</ele>
        <time>2018-08-25T09:41:29Z</time>
      </trkpt>
      <trkpt lat="43.06823" lon="-0.04285">
        <ele>406.5</ele>
        <time>2018-08-25T09:41:33Z</time>
      </trkpt>
      <trkpt lat="43.06839" lon="-0.04299">
        <ele>407.43</ele>
        <time>2018-08-25T09:41:37Z</time>
      </trkpt>
      <trkpt lat="43.06856" lon="-0.04319">
        <ele>407.52</ele>
        <time>2018-08-25T09:41:42Z</time>
      </trkpt>
      <trkpt lat="43.06871" lon="-0.04336">
        <ele>406.55</ele>
        <time>2018-08-25T09:41:46Z</time>
      </trkpt>
      <trkpt lat="43.06881" lon="-0.04359">
        <ele>407.51</ele>
        <time>2018-08-25T09:41:50Z</time>
      </trkpt>
      <trkpt lat="43.06888" lon="-0.04383">
        <ele>409.4</ele>
        <time>2018-08-25T09:41:54Z</time>
      </trkpt>
      <trkpt lat="43.06898" lon="-0.04404">
        <ele>411.49</ele>
        <time>2018-08-25T09:41:58Z</time>
      </trkpt>
      <trkpt lat="43.06913" lon="-0.04427">
        <ele>413.49</ele>
        <time>2018-08-25T09:42:03Z</time>
      </trkpt>
      <trkpt lat="43.06925" lon="-0.04445">
        <ele>414.22</ele>
        <time>2018-08-25T09:42:07Z</time>
      </trkpt>
      <trkpt lat="43.06941" lon="-0.04467">
        <ele>415.49</ele>
        <time>2018-08-25T09:42:12Z</time>
      </trkpt>
      <trkpt lat="43.06955" lon="-0.04483">
        <ele>416.49</ele>
        <time>2018-08-25T09:42:16Z</time>
      </trkpt>
      <trkpt lat="43.06973" lon="-0.04501">
        <ele>416.52</ele>
        <time>2018-08-25T09:42:21Z</time>
      </trkpt>
      <trkpt lat="43.06993" lon="-0.04508">
        <ele>418.42</ele>
        <time>2018-08-25T09:42:25Z</time>
      </trkpt>
      <trkpt lat="43.07013" lon="-0.04505">
        <ele>419.51</ele>
        <time>2018-08-25T09:42:29Z</time>
      </trkpt>
      <trkpt lat="43.07032" lon="-0.04495">
        <ele>421.13</ele>
        <time>2018-08-25T09:42:33Z</time>
      </trkpt>
      <trkpt lat="43.07049" lon="-0.04483">
        <ele>421.52</ele>
        <time>2018-08-25T09:42:37Z</time>
      </trkpt>
      <trkpt lat="43.07066" lon="-0.04471">
        <ele>420.53</ele>
        <time>2018-08-25T09:42:41Z</time>
      </trkpt>
      <trkpt lat="43.07083" lon="-0.04461">
        <ele>419.53</ele>
        <time>2018-08-25T09:42:45Z</time>
      </trkpt>
      <trkpt lat="43.07101" lon="-0.04449">
        <ele>419.52</ele>
        <time>2018-08-25T09:42:49Z</time>
      </trkpt>
      <trkpt lat="43.07119" lon="-0.0444">
        <ele>419.52</ele>
        <time>2018-08-25T09:42:53Z</time>
      </trkpt>
      <trkpt lat="43.07137" lon="-0.04443">
        <ele>419.52</ele>
        <time>2018-08-25T09:42:57Z</time>
      </trkpt>
      <trkpt lat="43.07154" lon="-0.04455">
        <ele>420.49</ele>
        <time>2018-08-25T09:43:01Z</time>
      </trkpt>
      <trkpt lat="43.0717" lon="-0.04466">
        <ele>421.51</ele>
        <time>2018-08-25T09:43:05Z</time>
      </trkpt>
      <trkpt lat="43.07186" lon="-0.04478">
        <ele>422.51</ele>
        <time>2018-08-25T09:43:09Z</time>
      </trkpt>
      <trkpt lat="43.07202" lon="-0.04491">
        <ele>423.51</ele>
        <time>2018-08-25T09:43:13Z</time>
      </trkpt>
      <trkpt lat="43.07218" lon="-0.04505">
        <ele>423.52</ele>
        <time>2018-08-25T09:43:17Z</time>
      </trkpt>
      <trkpt lat="43.07236" lon="-0.04513">
        <ele>424.22</ele>
        <time>2018-08-25T09:43:21Z</time>
      </trkpt>
      <trkpt lat="43.07257" lon="-0.04518">
        <ele>429.11</ele>
        <time>2018-08-25T09:43:26Z</time>
      </trkpt>
      <trkpt lat="43.07271" lon="-0.04535">
        <ele>430.43</ele>
        <time>2018-08-25T09:43:30Z</time>
      </trkpt>
      <trkpt lat="43.07286" lon="-0.04558">
        <ele>432.49</ele>
        <time>2018-08-25T09:43:35Z</time>
      </trkpt>
      <trkpt lat="43.07302" lon="-0.04578">
        <ele>434.49</ele>
        <time>2018-08-25T09:43:40Z</time>
      </trkpt>
      <trkpt lat="43.07285" lon="-0.04573">
        <ele>436.52</ele>
        <time>2018-08-25T09:43:48Z</time>
      </trkpt>
      <trkpt lat="43.07267" lon="-0.04553">
        <ele>438.49</ele>
        <time>2018-08-25T09:43:53Z</time>
      </trkpt>
      <trkpt lat="43.0725" lon="-0.04542">
        <ele>440.19</ele>
        <time>2018-08-25T09:43:57Z</time>
      </trkpt>
      <trkpt lat="43.07233" lon="-0.04532">
        <ele>441.49</ele>
        <time>2018-08-25T09:44:01Z</time>
      </trkpt>
      <trkpt lat="43.07212" lon="-0.04525">
        <ele>441.52</ele>
        <time>2018-08-25T09:44:06Z</time>
      </trkpt>
      <trkpt lat="43.07191" lon="-0.04523">
        <ele>441.52</ele>
        <time>2018-08-25T09:44:11Z</time>
      </trkpt>
      <trkpt lat="43.0717" lon="-0.04527">
        <ele>443.42</ele>
        <time>2018-08-25T09:44:16Z</time>
      </trkpt>
      <trkpt lat="43.07149" lon="-0.0453">
        <ele>445.21</ele>
        <time>2018-08-25T09:44:21Z</time>
      </trkpt>
      <trkpt lat="43.07128" lon="-0.04535">
        <ele>447.42</ele>
        <time>2018-08-25T09:44:26Z</time>
      </trkpt>
      <trkpt lat="43.07109" lon="-0.0454">
        <ele>448.43</ele>
        <time>2018-08-25T09:44:31Z</time>
      </trkpt>
      <trkpt lat="43.0709" lon="-0.0455">
        <ele>450.19</ele>
        <time>2018-08-25T09:44:36Z</time>
      </trkpt>
      <trkpt lat="43.07072" lon="-0.04562">
        <ele>452.21</ele>
        <time>2018-08-25T09:44:41Z</time>
      </trkpt>
      <trkpt lat="43.07054" lon="-0.04576">
        <ele>453.49</ele>
        <time>2018-08-25T09:44:46Z</time>
      </trkpt>
      <trkpt lat="43.07037" lon="-0.04588">
        <ele>456.19</ele>
        <time>2018-08-25T09:44:51Z</time>
      </trkpt>
      <trkpt lat="43.0702" lon="-0.04601">
        <ele>458.42</ele>
        <time>2018-08-25T09:44:56Z</time>
      </trkpt>
      <trkpt lat="43.07006" lon="-0.04621">
        <ele>461.21</ele>
        <time>2018-08-25T09:45:02Z</time>
      </trkpt>
      <trkpt lat="43.07" lon="-0.04645">
        <ele>462.22</ele>
        <time>2018-08-25T09:45:07Z</time>
      </trkpt>
      <trkpt lat="43.06994" lon="-0.0467">
        <ele>464.22</ele>
        <time>2018-08-25T09:45:13Z</time>
      </trkpt>
      <trkpt lat="43.06987" lon="-0.04695">
        <ele>465.43</ele>
        <time>2018-08-25T09:45:18Z</time>
      </trkpt>
      <trkpt lat="43.06978" lon="-0.0472">
        <ele>466.49</ele>
        <time>2018-08-25T09:45:23Z</time>
      </trkpt>
      <trkpt lat="43.06967" lon="-0.04744">
        <ele>468.21</ele>
        <time>2018-08-25T09:45:28Z</time>
      </trkpt>
      <trkpt lat="43.06949" lon="-0.04754">
        <ele>475.06</ele>
        <time>2018-08-25T09:45:34Z</time>
      </trkpt>
      <trkpt lat="43.06936" lon="-0.04772">
        <ele>478.19</ele>
        <time>2018-08-25T09:45:39Z</time>
      </trkpt>
      <trkpt lat="43.06923" lon="-0.04789">
        <ele>478.52</ele>
        <time>2018-08-25T09:45:43Z</time>
      </trkpt>
      <trkpt lat="43.06914" lon="-0.04812">
        <ele>480.49</ele>
        <time>2018-08-25T09:45:48Z</time>
      </trkpt>
      <trkpt lat="43.06912" lon="-0.04845">
        <ele>480.52</ele>
        <time>2018-08-25T09:45:51Z</time>
      </trkpt>
      <trkpt lat="43.06914" lon="-0.04878">
        <ele>480.73</ele>
        <time>2018-08-25T09:45:54Z</time>
      </trkpt>
      <trkpt lat="43.06908" lon="-0.04902">
        <ele>479.84</ele>
        <time>2018-08-25T09:45:56Z</time>
      </trkpt>
      <trkpt lat="43.0689" lon="-0.04926">
        <ele>477.86</ele>
        <time>2018-08-25T09:45:59Z</time>
      </trkpt>
      <trkpt lat="43.06872" lon="-0.04934">
        <ele>479.41</ele>
        <time>2018-08-25T09:46:03Z</time>
      </trkpt>
      <trkpt lat="43.06852" lon="-0.04932">
        <ele>481.43</ele>
        <time>2018-08-25T09:46:10Z</time>
      </trkpt>
      <trkpt lat="43.06834" lon="-0.04924">
        <ele>482.43</ele>
        <time>2018-08-25T09:46:16Z</time>
      </trkpt>
      <trkpt lat="43.06818" lon="-0.04908">
        <ele>484.28</ele>
        <time>2018-08-25T09:46:24Z</time>
      </trkpt>
      <trkpt lat="43.06805" lon="-0.04888">
        <ele>485.43</ele>
        <time>2018-08-25T09:46:30Z</time>
      </trkpt>
      <trkpt lat="43.06792" lon="-0.04868">
        <ele>486.43</ele>
        <time>2018-08-25T09:46:37Z</time>
      </trkpt>
      <trkpt lat="43.06781" lon="-0.04847">
        <ele>486.52</ele>
        <time>2018-08-25T09:46:43Z</time>
      </trkpt>
      <trkpt lat="43.06767" lon="-0.04826">
        <ele>488.22</ele>
        <time>2018-08-25T09:46:49Z</time>
      </trkpt>
      <trkpt lat="43.06754" lon="-0.04805">
        <ele>488.52</ele>
        <time>2018-08-25T09:46:55Z</time>
      </trkpt>
      <trkpt lat="43.06743" lon="-0.04782">
        <ele>490.43</ele>
        <time>2018-08-25T09:47:02Z</time>
      </trkpt>
      <trkpt lat="43.06725" lon="-0.04769">
        <ele>491.52</ele>
        <time>2018-08-25T09:47:08Z</time>
      </trkpt>
      <trkpt lat="43.06708" lon="-0.04756">
        <ele>494.19</ele>
        <time>2018-08-25T09:47:14Z</time>
      </trkpt>
      <trkpt lat="43.06689" lon="-0.04742">
        <ele>496.43</ele>
        <time>2018-08-25T09:47:21Z</time>
      </trkpt>
      <trkpt lat="43.0667" lon="-0.0473">
        <ele>499.22</ele>
        <time>2018-08-25T09:47:28Z</time>
      </trkpt>
      <trkpt lat="43.06651" lon="-0.04721">
        <ele>501.13</ele>
        <time>2018-08-25T09:47:34Z</time>
      </trkpt>
      <trkpt lat="43.06632" lon="-0.04727">
        <ele>504.21</ele>
        <time>2018-08-25T09:47:40Z</time>
      </trkpt>
      <trkpt lat="43.06623" lon="-0.04755">
        <ele>513.51</ele>
        <time>2018-08-25T09:47:47Z</time>
      </trkpt>
      <trkpt lat="43.06621" lon="-0.0478">
        <ele>514.29</ele>
        <time>2018-08-25T09:47:52Z</time>
      </trkpt>
      <trkpt lat="43.0662" lon="-0.04808">
        <ele>518.12</ele>
        <time>2018-08-25T09:47:57Z</time>
      </trkpt>
      <trkpt lat="43.06624" lon="-0.04834">
        <ele>518.52</ele>
        <time>2018-08-25T09:48:01Z</time>
      </trkpt>
      <trkpt lat="43.06624" lon="-0.0486">
        <ele>520.2</ele>
        <time>2018-08-25T09:48:06Z</time>
      </trkpt>
      <trkpt lat="43.06619" lon="-0.04891">
        <ele>521.42</ele>
        <time>2018-08-25T09:48:09Z</time>
      </trkpt>
      <trkpt lat="43.0661" lon="-0.04923">
        <ele>521.52</ele>
        <time>2018-08-25T09:48:12Z</time>
      </trkpt>
      <trkpt lat="43.06603" lon="-0.04949">
        <ele>520.82</ele>
        <time>2018-08-25T09:48:15Z</time>
      </trkpt>
      <trkpt lat="43.06595" lon="-0.04976">
        <ele>520.53</ele>
        <time>2018-08-25T09:48:18Z</time>
      </trkpt>
      <trkpt lat="43.06582" lon="-0.04999">
        <ele>520.52</ele>
        <time>2018-08-25T09:48:21Z</time>
      </trkpt>
      <trkpt lat="43.06564" lon="-0.05002">
        <ele>519.82</ele>
        <time>2018-08-25T09:48:24Z</time>
      </trkpt>
      <trkpt lat="43.06551" lon="-0.04984">
        <ele>521.2</ele>
        <time>2018-08-25T09:48:27Z</time>
      </trkpt>
      <trkpt lat="43.0654" lon="-0.04962">
        <ele>523.48</ele>
        <time>2018-08-25T09:48:31Z</time>
      </trkpt>
      <trkpt lat="43.06526" lon="-0.04945">
        <ele>524.52</ele>
        <time>2018-08-25T09:48:38Z</time>
      </trkpt>
      <trkpt lat="43.06517" lon="-0.04923">
        <ele>525.49</ele>
        <time>2018-08-25T09:48:46Z</time>
      </trkpt>
      <trkpt lat="43.06505" lon="-0.04904">
        <ele>528.49</ele>
        <time>2018-08-25T09:48:56Z</time>
      </trkpt>
      <trkpt lat="43.06501" lon="-0.04928">
        <ele>535.49</ele>
        <time>2018-08-25T09:49:13Z</time>
      </trkpt>
      <trkpt lat="43.06501" lon="-0.04954">
        <ele>538.43</ele>
        <time>2018-08-25T09:49:22Z</time>
      </trkpt>
      <trkpt lat="43.06501" lon="-0.0498">
        <ele>539.43</ele>
        <time>2018-08-25T09:49:31Z</time>
      </trkpt>
      <trkpt lat="43.06503" lon="-0.05007">
        <ele>543.42</ele>
        <time>2018-08-25T09:49:40Z</time>
      </trkpt>
      <trkpt lat="43.06501" lon="-0.04982">
        <ele>554.49</ele>
        <time>2018-08-25T09:49:57Z</time>
      </trkpt>
      <trkpt lat="43.06497" lon="-0.04957">
        <ele>557.49</ele>
        <time>2018-08-25T09:50:07Z</time>
      </trkpt>
      <trkpt lat="43.06484" lon="-0.04936">
        <ele>559.22</ele>
        <time>2018-08-25T09:50:15Z</time>
      </trkpt>
      <trkpt lat="43.0647" lon="-0.04918">
        <ele>558.55</ele>
        <time>2018-08-25T09:50:24Z</time>
      </trkpt>
      <trkpt lat="43.06457" lon="-0.04897">
        <ele>560.22</ele>
        <time>2018-08-25T09:50:34Z</time>
      </trkpt>
      <trkpt lat="43.06439" lon="-0.04889">
        <ele>563.46</ele>
        <time>2018-08-25T09:50:43Z</time>
      </trkpt>
      <trkpt lat="43.06421" lon="-0.0488">
        <ele>566.52</ele>
        <time>2018-08-25T09:50:56Z</time>
      </trkpt>
      <trkpt lat="43.06405" lon="-0.04866">
        <ele>568.52</ele>
        <time>2018-08-25T09:51:06Z</time>
      </trkpt>
      <trkpt lat="43.06387" lon="-0.04855">
        <ele>571.49</ele>
        <time>2018-08-25T09:51:15Z</time>
      </trkpt>
      <trkpt lat="43.06369" lon="-0.04849">
        <ele>570.61</ele>
        <time>2018-08-25T09:51:23Z</time>
      </trkpt>
      <trkpt lat="43.06351" lon="-0.04852">
        <ele>567.52</ele>
        <time>2018-08-25T09:51:33Z</time>
      </trkpt>
      <trkpt lat="43.06332" lon="-0.04861">
        <ele>569.51</ele>
        <time>2018-08-25T09:51:43Z</time>
      </trkpt>
      <trkpt lat="43.06316" lon="-0.04877">
        <ele>572.57</ele>
        <time>2018-08-25T09:51:53Z</time>
      </trkpt>
      <trkpt lat="43.06303" lon="-0.04896">
        <ele>575.49</ele>
        <time>2018-08-25T09:52:01Z</time>
      </trkpt>
      <trkpt lat="43.06314" lon="-0.04918">
        <ele>577.22</ele>
        <time>2018-08-25T09:52:10Z</time>
      </trkpt>
      <trkpt lat="43.06331" lon="-0.0493">
        <ele>578.49</ele>
        <time>2018-08-25T09:52:18Z</time>
      </trkpt>
      <trkpt lat="43.06347" lon="-0.04943">
        <ele>581.43</ele>
        <time>2018-08-25T09:52:26Z</time>
      </trkpt>
      <trkpt lat="43.06362" lon="-0.0496">
        <ele>582.22</ele>
        <time>2018-08-25T09:52:34Z</time>
      </trkpt>
      <trkpt lat="43.06379" lon="-0.04976">
        <ele>585.21</ele>
        <time>2018-08-25T09:52:42Z</time>
      </trkpt>
      <trkpt lat="43.06395" lon="-0.0499">
        <ele>589.19</ele>
        <time>2018-08-25T09:52:50Z</time>
      </trkpt>
      <trkpt lat="43.06409" lon="-0.05009">
        <ele>592.21</ele>
        <time>2018-08-25T09:52:58Z</time>
      </trkpt>
      <trkpt lat="43.06422" lon="-0.0503">
        <ele>593.52</ele>
        <time>2018-08-25T09:53:06Z</time>
      </trkpt>
      <trkpt lat="43.06433" lon="-0.05052">
        <ele>597.19</ele>
        <time>2018-08-25T09:53:14Z</time>
      </trkpt>
      <trkpt lat="43.06441" lon="-0.05077">
        <ele>601.42</ele>
        <time>2018-08-25T09:53:21Z</time>
      </trkpt>
      <trkpt lat="43.06447" lon="-0.05102">
        <ele>603.43</ele>
        <time>2018-08-25T09:53:27Z</time>
      </trkpt>
      <trkpt lat="43.06453" lon="-0.05128">
        <ele>607.39</ele>
        <time>2018-08-25T09:53:33Z</time>
      </trkpt>
      <trkpt lat="43.06457" lon="-0.05153">
        <ele>608.52</ele>
        <time>2018-08-25T09:53:39Z</time>
      </trkpt>
      <trkpt lat="43.06459" lon="-0.05181">
        <ele>609.52</ele>
        <time>2018-08-25T09:53:45Z</time>
      </trkpt>
      <trkpt lat="43.06461" lon="-0.05209">
        <ele>612.42</ele>
        <time>2018-08-25T09:53:51Z</time>
      </trkpt>
      <trkpt lat="43.06465" lon="-0.05237">
        <ele>615.21</ele>
        <time>2018-08-25T09:53:57Z</time>
      </trkpt>
      <trkpt lat="43.0647" lon="-0.05263">
        <ele>615.52</ele>
        <time>2018-08-25T09:54:02Z</time>
      </trkpt>
      <trkpt lat="43.06475" lon="-0.05288">
        <ele>613.55</ele>
        <time>2018-08-25T09:54:08Z</time>
      </trkpt>
      <trkpt lat="43.06479" lon="-0.05313">
        <ele>611.93</ele>
        <time>2018-08-25T09:54:13Z</time>
      </trkpt>
      <trkpt lat="43.06476" lon="-0.0534">
        <ele>609.85</ele>
        <time>2018-08-25T09:54:17Z</time>
      </trkpt>
      <trkpt lat="43.06476" lon="-0.05367">
        <ele>609.51</ele>
        <time>2018-08-25T09:54:21Z</time>
      </trkpt>
      <trkpt lat="43.06486" lon="-0.05393">
        <ele>609.52</ele>
        <time>2018-08-25T09:54:24Z</time>
      </trkpt>
      <trkpt lat="43.06503" lon="-0.05407">
        <ele>609.46</ele>
        <time>2018-08-25T09:54:27Z</time>
      </trkpt>
      <trkpt lat="43.06522" lon="-0.05406">
        <ele>609.52</ele>
        <time>2018-08-25T09:54:30Z</time>
      </trkpt>
      <trkpt lat="43.06542" lon="-0.05408">
        <ele>610.22</ele>
        <time>2018-08-25T09:54:33Z</time>
      </trkpt>
      <trkpt lat="43.06563" lon="-0.05427">
        <ele>610.51</ele>
        <time>2018-08-25T09:54:36Z</time>
      </trkpt>
      <trkpt lat="43.06576" lon="-0.05447">
        <ele>610.52</ele>
        <time>2018-08-25T09:54:38Z</time>
      </trkpt>
      <trkpt lat="43.06589" lon="-0.05467">
        <ele>609.61</ele>
        <time>2018-08-25T09:54:40Z</time>
      </trkpt>
      <trkpt lat="43.06602" lon="-0.05485">
        <ele>607.22</ele>
        <time>2018-08-25T09:54:42Z</time>
      </trkpt>
      <trkpt lat="43.06617" lon="-0.05501">
        <ele>604.97</ele>
        <time>2018-08-25T09:54:44Z</time>
      </trkpt>
      <trkpt lat="43.06638" lon="-0.05516">
        <ele>603.56</ele>
        <time>2018-08-25T09:54:47Z</time>
      </trkpt>
      <trkpt lat="43.06651" lon="-0.05537">
        <ele>602.55</ele>
        <time>2018-08-25T09:54:51Z</time>
      </trkpt>
      <trkpt lat="43.06657" lon="-0.05564">
        <ele>600.55</ele>
        <time>2018-08-25T09:54:57Z</time>
      </trkpt>
      <trkpt lat="43.06664" lon="-0.05596">
        <ele>601.22</ele>
        <time>2018-08-25T09:55:02Z</time>
      </trkpt>
      <trkpt lat="43.0667" lon="-0.0562">
        <ele>601.3</ele>
        <time>2018-08-25T09:55:05Z</time>
      </trkpt>
      <trkpt lat="43.06675" lon="-0.05649">
        <ele>601.52</ele>
        <time>2018-08-25T09:55:08Z</time>
      </trkpt>
      <trkpt lat="43.06667" lon="-0.05682">
        <ele>601.52</ele>
        <time>2018-08-25T09:55:11Z</time>
      </trkpt>
      <trkpt lat="43.06656" lon="-0.05702">
        <ele>600.82</ele>
        <time>2018-08-25T09:55:13Z</time>
      </trkpt>
      <trkpt lat="43.06648" lon="-0.05728">
        <ele>599.64</ele>
        <time>2018-08-25T09:55:15Z</time>
      </trkpt>
      <trkpt lat="43.06642" lon="-0.05756">
        <ele>597.92</ele>
        <time>2018-08-25T09:55:18Z</time>
      </trkpt>
      <trkpt lat="43.0664" lon="-0.05785">
        <ele>597.53</ele>
        <time>2018-08-25T09:55:22Z</time>
      </trkpt>
      <trkpt lat="43.06662" lon="-0.05798">
        <ele>596.55</ele>
        <time>2018-08-25T09:55:26Z</time>
      </trkpt>
      <trkpt lat="43.06681" lon="-0.05801">
        <ele>594.85</ele>
        <time>2018-08-25T09:55:29Z</time>
      </trkpt>
      <trkpt lat="43.067" lon="-0.05815">
        <ele>593.83</ele>
        <time>2018-08-25T09:55:32Z</time>
      </trkpt>
      <trkpt lat="43.0672" lon="-0.05832">
        <ele>589.95</ele>
        <time>2018-08-25T09:55:36Z</time>
      </trkpt>
      <trkpt lat="43.06715" lon="-0.05857">
        <ele>585.67</ele>
        <time>2018-08-25T09:55:42Z</time>
      </trkpt>
      <trkpt lat="43.06694" lon="-0.05851">
        <ele>584.55</ele>
        <time>2018-08-25T09:55:45Z</time>
      </trkpt>
      <trkpt lat="43.06673" lon="-0.05848">
        <ele>584.5</ele>
        <time>2018-08-25T09:55:49Z</time>
      </trkpt>
      <trkpt lat="43.06686" lon="-0.05867">
        <ele>583.85</ele>
        <time>2018-08-25T09:55:57Z</time>
      </trkpt>
      <trkpt lat="43.06702" lon="-0.05882">
        <ele>583.59</ele>
        <time>2018-08-25T09:56:00Z</time>
      </trkpt>
      <trkpt lat="43.06718" lon="-0.05901">
        <ele>581.62</ele>
        <time>2018-08-25T09:56:04Z</time>
      </trkpt>
      <trkpt lat="43.06697" lon="-0.05907">
        <ele>575.65</ele>
        <time>2018-08-25T09:56:15Z</time>
      </trkpt>
      <trkpt lat="43.0669" lon="-0.05933">
        <ele>571.64</ele>
        <time>2018-08-25T09:56:23Z</time>
      </trkpt>
      <trkpt lat="43.06688" lon="-0.05961">
        <ele>568.91</ele>
        <time>2018-08-25T09:56:28Z</time>
      </trkpt>
      <trkpt lat="43.06684" lon="-0.05987">
        <ele>563.62</ele>
        <time>2018-08-25T09:56:38Z</time>
      </trkpt>
      <trkpt lat="43.06677" lon="-0.06011">
        <ele>559.61</ele>
        <time>2018-08-25T09:56:46Z</time>
      </trkpt>
      <trkpt lat="43.06664" lon="-0.06032">
        <ele>556.55</ele>
        <time>2018-08-25T09:56:54Z</time>
      </trkpt>
      <trkpt lat="43.06649" lon="-0.06048">
        <ele>554.53</ele>
        <time>2018-08-25T09:57:02Z</time>
      </trkpt>
      <trkpt lat="43.06633" lon="-0.06065">
        <ele>551.85</ele>
        <time>2018-08-25T09:57:07Z</time>
      </trkpt>
      <trkpt lat="43.06617" lon="-0.06082">
        <ele>547.62</ele>
        <time>2018-08-25T09:57:13Z</time>
      </trkpt>
      <trkpt lat="43.06605" lon="-0.06104">
        <ele>544.91</ele>
        <time>2018-08-25T09:57:18Z</time>
      </trkpt>
      <trkpt lat="43.06605" lon="-0.0613">
        <ele>547.21</ele>
        <time>2018-08-25T09:57:25Z</time>
      </trkpt>
      <trkpt lat="43.06618" lon="-0.06148">
        <ele>549.49</ele>
        <time>2018-08-25T09:57:33Z</time>
      </trkpt>
      <trkpt lat="43.06641" lon="-0.06156">
        <ele>549.6</ele>
        <time>2018-08-25T09:57:37Z</time>
      </trkpt>
      <trkpt lat="43.06659" lon="-0.06162">
        <ele>550.43</ele>
        <time>2018-08-25T09:57:40Z</time>
      </trkpt>
      <trkpt lat="43.06681" lon="-0.0617">
        <ele>550.44</ele>
        <time>2018-08-25T09:57:44Z</time>
      </trkpt>
      <trkpt lat="43.06701" lon="-0.06172">
        <ele>551.51</ele>
        <time>2018-08-25T09:57:50Z</time>
      </trkpt>
      <trkpt lat="43.06716" lon="-0.0619">
        <ele>552.43</ele>
        <time>2018-08-25T09:57:56Z</time>
      </trkpt>
      <trkpt lat="43.06728" lon="-0.06211">
        <ele>552.52</ele>
        <time>2018-08-25T09:58:02Z</time>
      </trkpt>
      <trkpt lat="43.06735" lon="-0.06238">
        <ele>551.61</ele>
        <time>2018-08-25T09:58:09Z</time>
      </trkpt>
      <trkpt lat="43.06737" lon="-0.06265">
        <ele>551.52</ele>
        <time>2018-08-25T09:58:17Z</time>
      </trkpt>
      <trkpt lat="43.0674" lon="-0.06293">
        <ele>549.52</ele>
        <time>2018-08-25T09:58:25Z</time>
      </trkpt>
      <trkpt lat="43.06745" lon="-0.06319">
        <ele>551.43</ele>
        <time>2018-08-25T09:58:33Z</time>
      </trkpt>
      <trkpt lat="43.06748" lon="-0.06344">
        <ele>551.22</ele>
        <time>2018-08-25T09:58:41Z</time>
      </trkpt>
      <trkpt lat="43.06752" lon="-0.06371">
        <ele>552.21</ele>
        <time>2018-08-25T09:58:48Z</time>
      </trkpt>
      <trkpt lat="43.06757" lon="-0.06396">
        <ele>554.2</ele>
        <time>2018-08-25T09:58:56Z</time>
      </trkpt>
      <trkpt lat="43.0676" lon="-0.06423">
        <ele>557.46</ele>
        <time>2018-08-25T09:59:05Z</time>
      </trkpt>
      <trkpt lat="43.06761" lon="-0.06451">
        <ele>561.13</ele>
        <time>2018-08-25T09:59:12Z</time>
      </trkpt>
      <trkpt lat="43.0676" lon="-0.06478">
        <ele>562.49</ele>
        <time>2018-08-25T09:59:16Z</time>
      </trkpt>
      <trkpt lat="43.06774" lon="-0.06497">
        <ele>560.91</ele>
        <time>2018-08-25T09:59:21Z</time>
      </trkpt>
      <trkpt lat="43.06793" lon="-0.06503">
        <ele>559.53</ele>
        <time>2018-08-25T09:59:25Z</time>
      </trkpt>
      <trkpt lat="43.06811" lon="-0.06514">
        <ele>558.82</ele>
        <time>2018-08-25T09:59:29Z</time>
      </trkpt>
      <trkpt lat="43.0682" lon="-0.0654">
        <ele>556.61</ele>
        <time>2018-08-25T09:59:35Z</time>
      </trkpt>
      <trkpt lat="43.06829" lon="-0.06562">
        <ele>557.43</ele>
        <time>2018-08-25T09:59:42Z</time>
      </trkpt>
      <trkpt lat="43.06842" lon="-0.0658">
        <ele>558.52</ele>
        <time>2018-08-25T09:59:48Z</time>
      </trkpt>
      <trkpt lat="43.06852" lon="-0.06603">
        <ele>558.79</ele>
        <time>2018-08-25T09:59:54Z</time>
      </trkpt>
      <trkpt lat="43.06868" lon="-0.06625">
        <ele>558.82</ele>
        <time>2018-08-25T10:00:00Z</time>
      </trkpt>
      <trkpt lat="43.0688" lon="-0.06647">
        <ele>558.52</ele>
        <time>2018-08-25T10:00:07Z</time>
      </trkpt>
      <trkpt lat="43.0689" lon="-0.0667">
        <ele>557.52</ele>
        <time>2018-08-25T10:00:17Z</time>
      </trkpt>
      <trkpt lat="43.0689" lon="-0.06697">
        <ele>556.52</ele>
        <time>2018-08-25T10:00:26Z</time>
      </trkpt>
      <trkpt lat="43.06902" lon="-0.06715">
        <ele>553.61</ele>
        <time>2018-08-25T10:00:35Z</time>
      </trkpt>
      <trkpt lat="43.06917" lon="-0.06699">
        <ele>551.55</ele>
        <time>2018-08-25T10:00:42Z</time>
      </trkpt>
      <trkpt lat="43.06936" lon="-0.06688">
        <ele>546.53</ele>
        <time>2018-08-25T10:00:52Z</time>
      </trkpt>
      <trkpt lat="43.0696" lon="-0.06688">
        <ele>543.65</ele>
        <time>2018-08-25T10:00:56Z</time>
      </trkpt>
      <trkpt lat="43.06957" lon="-0.06714">
        <ele>541.52</ele>
        <time>2018-08-25T10:01:03Z</time>
      </trkpt>
      <trkpt lat="43.06947" lon="-0.06737">
        <ele>539.55</ele>
        <time>2018-08-25T10:01:11Z</time>
      </trkpt>
      <trkpt lat="43.06939" lon="-0.06761">
        <ele>535.04</ele>
        <time>2018-08-25T10:01:15Z</time>
      </trkpt>
      <trkpt lat="43.06932" lon="-0.0679">
        <ele>531.95</ele>
        <time>2018-08-25T10:01:18Z</time>
      </trkpt>
      <trkpt lat="43.06922" lon="-0.06819">
        <ele>527.34</ele>
        <time>2018-08-25T10:01:21Z</time>
      </trkpt>
      <trkpt lat="43.06918" lon="-0.06846">
        <ele>523.57</ele>
        <time>2018-08-25T10:01:25Z</time>
      </trkpt>
      <trkpt lat="43.06912" lon="-0.06878">
        <ele>523.52</ele>
        <time>2018-08-25T10:01:28Z</time>
      </trkpt>
      <trkpt lat="43.06911" lon="-0.06905">
        <ele>519.95</ele>
        <time>2018-08-25T10:01:32Z</time>
      </trkpt>
      <trkpt lat="43.06919" lon="-0.06929">
        <ele>518.61</ele>
        <time>2018-08-25T10:01:37Z</time>
      </trkpt>
      <trkpt lat="43.0693" lon="-0.0695">
        <ele>518.52</ele>
        <time>2018-08-25T10:01:42Z</time>
      </trkpt>
      <trkpt lat="43.0694" lon="-0.06973">
        <ele>519.52</ele>
        <time>2018-08-25T10:01:48Z</time>
      </trkpt>
      <trkpt lat="43.06946" lon="-0.06999">
        <ele>521.49</ele>
        <time>2018-08-25T10:01:55Z</time>
      </trkpt>
      <trkpt lat="43.06952" lon="-0.07028">
        <ele>522.52</ele>
        <time>2018-08-25T10:02:02Z</time>
      </trkpt>
      <trkpt lat="43.06956" lon="-0.07054">
        <ele>521.53</ele>
        <time>2018-08-25T10:02:09Z</time>
      </trkpt>
      <trkpt lat="43.06957" lon="-0.07081">
        <ele>522.22</ele>
        <time>2018-08-25T10:02:16Z</time>
      </trkpt>
      <trkpt lat="43.06966" lon="-0.07105">
        <ele>522.52</ele>
        <time>2018-08-25T10:02:25Z</time>
      </trkpt>
      <trkpt lat="43.06969" lon="-0.07129">
        <ele>522.61</ele>
        <time>2018-08-25T10:02:32Z</time>
      </trkpt>
      <trkpt lat="43.06969" lon="-0.07157">
        <ele>522.52</ele>
        <time>2018-08-25T10:02:40Z</time>
      </trkpt>
      <trkpt lat="43.06963" lon="-0.07183">
        <ele>525.22</ele>
        <time>2018-08-25T10:02:49Z</time>
      </trkpt>
      <trkpt lat="43.06961" lon="-0.07208">
        <ele>527.51</ele>
        <time>2018-08-25T10:02:58Z</time>
      </trkpt>
      <trkpt lat="43.06959" lon="-0.07235">
        <ele>529.52</ele>
        <time>2018-08-25T10:03:07Z</time>
      </trkpt>
      <trkpt lat="43.06959" lon="-0.07261">
        <ele>535.1</ele>
        <time>2018-08-25T10:03:15Z</time>
      </trkpt>
      <trkpt lat="43.06964" lon="-0.07286">
        <ele>540.42</ele>
        <time>2018-08-25T10:03:24Z</time>
      </trkpt>
      <trkpt lat="43.0697" lon="-0.0731">
        <ele>542.22</ele>
        <time>2018-08-25T10:03:32Z</time>
      </trkpt>
      <trkpt lat="43.06964" lon="-0.07334">
        <ele>545.19</ele>
        <time>2018-08-25T10:03:41Z</time>
      </trkpt>
      <trkpt lat="43.06957" lon="-0.07359">
        <ele>545.73</ele>
        <time>2018-08-25T10:03:49Z</time>
      </trkpt>
      <trkpt lat="43.06948" lon="-0.07384">
        <ele>548.42</ele>
        <time>2018-08-25T10:03:58Z</time>
      </trkpt>
      <trkpt lat="43.06937" lon="-0.07405">
        <ele>552.19</ele>
        <time>2018-08-25T10:04:07Z</time>
      </trkpt>
      <trkpt lat="43.06926" lon="-0.07425">
        <ele>557.22</ele>
        <time>2018-08-25T10:04:17Z</time>
      </trkpt>
      <trkpt lat="43.06931" lon="-0.07449">
        <ele>561.43</ele>
        <time>2018-08-25T10:04:27Z</time>
      </trkpt>
      <trkpt lat="43.06949" lon="-0.07464">
        <ele>560.91</ele>
        <time>2018-08-25T10:04:32Z</time>
      </trkpt>
      <trkpt lat="43.06966" lon="-0.07484">
        <ele>559.82</ele>
        <time>2018-08-25T10:04:37Z</time>
      </trkpt>
      <trkpt lat="43.06983" lon="-0.07501">
        <ele>557.83</ele>
        <time>2018-08-25T10:04:42Z</time>
      </trkpt>
      <trkpt lat="43.06998" lon="-0.07519">
        <ele>559.21</ele>
        <time>2018-08-25T10:04:47Z</time>
      </trkpt>
      <trkpt lat="43.07011" lon="-0.07536">
        <ele>560.22</ele>
        <time>2018-08-25T10:04:52Z</time>
      </trkpt>
      <trkpt lat="43.07025" lon="-0.07556">
        <ele>561.51</ele>
        <time>2018-08-25T10:04:58Z</time>
      </trkpt>
      <trkpt lat="43.07043" lon="-0.07564">
        <ele>562.22</ele>
        <time>2018-08-25T10:05:04Z</time>
      </trkpt>
      <trkpt lat="43.07056" lon="-0.0754">
        <ele>561.61</ele>
        <time>2018-08-25T10:05:10Z</time>
      </trkpt>
      <trkpt lat="43.07071" lon="-0.07519">
        <ele>560.55</ele>
        <time>2018-08-25T10:05:15Z</time>
      </trkpt>
      <trkpt lat="43.07093" lon="-0.07509">
        <ele>559.53</ele>
        <time>2018-08-25T10:05:20Z</time>
      </trkpt>
      <trkpt lat="43.07113" lon="-0.07512">
        <ele>558.61</ele>
        <time>2018-08-25T10:05:23Z</time>
      </trkpt>
      <trkpt lat="43.07131" lon="-0.07516">
        <ele>556.91</ele>
        <time>2018-08-25T10:05:26Z</time>
      </trkpt>
      <trkpt lat="43.07153" lon="-0.07515">
        <ele>554.64</ele>
        <time>2018-08-25T10:05:30Z</time>
      </trkpt>
      <trkpt lat="43.07174" lon="-0.07509">
        <ele>553.53</ele>
        <time>2018-08-25T10:05:34Z</time>
      </trkpt>
      <trkpt lat="43.07194" lon="-0.07501">
        <ele>551.62</ele>
        <time>2018-08-25T10:05:38Z</time>
      </trkpt>
      <trkpt lat="43.07213" lon="-0.07487">
        <ele>550.82</ele>
        <time>2018-08-25T10:05:42Z</time>
      </trkpt>
      <trkpt lat="43.07232" lon="-0.07481">
        <ele>551.5</ele>
        <time>2018-08-25T10:05:45Z</time>
      </trkpt>
      <trkpt lat="43.07252" lon="-0.07471">
        <ele>550.55</ele>
        <time>2018-08-25T10:05:48Z</time>
      </trkpt>
      <trkpt lat="43.07273" lon="-0.07464">
        <ele>549.82</ele>
        <time>2018-08-25T10:05:51Z</time>
      </trkpt>
      <trkpt lat="43.07293" lon="-0.07457">
        <ele>548.62</ele>
        <time>2018-08-25T10:05:54Z</time>
      </trkpt>
      <trkpt lat="43.07309" lon="-0.07441">
        <ele>546.91</ele>
        <time>2018-08-25T10:05:57Z</time>
      </trkpt>
      <trkpt lat="43.07321" lon="-0.07412">
        <ele>544.92</ele>
        <time>2018-08-25T10:06:00Z</time>
      </trkpt>
      <trkpt lat="43.07338" lon="-0.07388">
        <ele>542.86</ele>
        <time>2018-08-25T10:06:03Z</time>
      </trkpt>
      <trkpt lat="43.0736" lon="-0.07369">
        <ele>540.92</ele>
        <time>2018-08-25T10:06:06Z</time>
      </trkpt>
      <trkpt lat="43.07379" lon="-0.07361">
        <ele>541.26</ele>
        <time>2018-08-25T10:06:08Z</time>
      </trkpt>
      <trkpt lat="43.07396" lon="-0.0734">
        <ele>539.63</ele>
        <time>2018-08-25T10:06:11Z</time>
      </trkpt>
      <trkpt lat="43.07407" lon="-0.07312">
        <ele>537.62</ele>
        <time>2018-08-25T10:06:15Z</time>
      </trkpt>
      <trkpt lat="43.07414" lon="-0.07288">
        <ele>536.53</ele>
        <time>2018-08-25T10:06:19Z</time>
      </trkpt>
      <trkpt lat="43.07421" lon="-0.07265">
        <ele>534.62</ele>
        <time>2018-08-25T10:06:23Z</time>
      </trkpt>
      <trkpt lat="43.0744" lon="-0.07255">
        <ele>532.56</ele>
        <time>2018-08-25T10:06:28Z</time>
      </trkpt>
      <trkpt lat="43.07462" lon="-0.07257">
        <ele>530.83</ele>
        <time>2018-08-25T10:06:32Z</time>
      </trkpt>
      <trkpt lat="43.07482" lon="-0.07253">
        <ele>528.83</ele>
        <time>2018-08-25T10:06:37Z</time>
      </trkpt>
      <trkpt lat="43.07492" lon="-0.07231">
        <ele>527.61</ele>
        <time>2018-08-25T10:06:41Z</time>
      </trkpt>
      <trkpt lat="43.07492" lon="-0.07199">
        <ele>526.54</ele>
        <time>2018-08-25T10:06:47Z</time>
      </trkpt>
      <trkpt lat="43.07496" lon="-0.07173">
        <ele>525.76</ele>
        <time>2018-08-25T10:06:52Z</time>
      </trkpt>
      <trkpt lat="43.0751" lon="-0.07147">
        <ele>522.85</ele>
        <time>2018-08-25T10:06:57Z</time>
      </trkpt>
      <trkpt lat="43.07522" lon="-0.07122">
        <ele>520.62</ele>
        <time>2018-08-25T10:07:01Z</time>
      </trkpt>
      <trkpt lat="43.07527" lon="-0.07097">
        <ele>520.52</ele>
        <time>2018-08-25T10:07:07Z</time>
      </trkpt>
      <trkpt lat="43.07529" lon="-0.07071">
        <ele>520.52</ele>
        <time>2018-08-25T10:07:12Z</time>
      </trkpt>
      <trkpt lat="43.07548" lon="-0.07068">
        <ele>520.44</ele>
        <time>2018-08-25T10:07:17Z</time>
      </trkpt>
      <trkpt lat="43.07568" lon="-0.0707">
        <ele>521.22</ele>
        <time>2018-08-25T10:07:23Z</time>
      </trkpt>
      <trkpt lat="43.07584" lon="-0.07082">
        <ele>521.5</ele>
        <time>2018-08-25T10:07:28Z</time>
      </trkpt>
      <trkpt lat="43.07603" lon="-0.07075">
        <ele>522.51</ele>
        <time>2018-08-25T10:07:37Z</time>
      </trkpt>
      <trkpt lat="43.07616" lon="-0.07056">
        <ele>520.56</ele>
        <time>2018-08-25T10:07:42Z</time>
      </trkpt>
    </trkseg>
  </trk>
</gpx>